[[{"header":{"parameterUnit":"m.s-1","parameterCategory":1,"la1":30.6,"la2":29.2853,"lo1":-89.7004,"lo2":-87.6739,"dy":0.0162,"dx":0.0183,"nx":112,"ny":82,"refTime":"2024-05-11T12:00:00:Z","depth":0,"parameterNumber":2,"parameterNumberName":"U-component_of_WINDS"},"data":[0.0,0.0,0.0,0.0,0.0,0.0,0.0,0.0,0.0,0.0,0.0,0.0,0.0,0.0,0.0,0.0,0.0,0.0,0.0,0.0,0.0,0.0,0.0,0.0,0.0,0.0,0.0,0.0,0.0,0.0,0.0,0.0,0.0,0.0,0.0,0.0,0.0,0.0,0.0,0.0,0.0,0.0,0.0,0.0,0.0,0.0,0.0,0.0,0.0,0.0,0.0,0.0,0.0,0.0,0.0,0.0,0.0,0.0,0.0,0.0,0.0,0.0,0.0,0.0,0.0,0.0,0.0,0.0,0.0,0.0,0.0,0.0,0.0,0.0,0.0,0.0,0.0,0.0,0.0,0.0,0.0,0.0,0.0,0.0,0.0,0.0,0.0,0.0,0.0,0.0,-2.3183,-2.5181,-2.6277,-2.7095,-2.767,-2.7095,-2.6289,-2.53,0.0,0.0,0.0,0.0,0.0,0.0,0.0,0.0,0.0,0.0,0.0,0.0,0.0,0.0,0.0,0.0,0.0,0.0,0.0,0.0,0.0,0.0,0.0,0.0,0.0,0.0,0.0,0.0,0.0,0.0,0.0,0.0,0.0,0.0,0.0,0.0,0.0,0.0,0.0,0.0,0.0,0.0,0.0,0.0,0.0,0.0,0.0,0.0,0.0,0.0,0.0,0.0,0.0,0.0,0.0,0.0,0.0,0.0,0.0,0.0,0.0,0.0,0.0,0.0,0.0,0.0,0.0,0.0,0.0,0.0,0.0,0.0,0.0,0.0,0.0,0.0,0.0,0.0,0.0,0.0,0.0,0.0,0.0,0.0,0.0,0.0,0.0,0.0,0.0,0.0,0.0,0.0,0.0,0.0,0.0,0.0,0.0,0.0,0.0,0.0,0.0,0.0,0.0,0.0,-2.5228,-2.7124,-2.8103,-2.8363,-2.7736,-2.7604,-2.7149,-2.6314,0.0,0.0,0.0,0.0,0.0,0.0,0.0,0.0,0.0,0.0,0.0,0.0,0.0,0.0,0.0,0.0,0.0,0.0,0.0,0.0,0.0,0.0,0.0,0.0,0.0,0.0,0.0,0.0,0.0,0.0,0.0,0.0,0.0,0.0,0.0,0.0,0.0,0.0,0.0,0.0,0.0,0.0,0.0,0.0,0.0,0.0,0.0,0.0,0.0,0.0,0.0,0.0,0.0,0.0,0.0,0.0,0.0,0.0,0.0,0.0,0.0,0.0,0.0,0.0,0.0,0.0,0.0,0.0,0.0,0.0,0.0,0.0,0.0,0.0,0.0,0.0,0.0,0.0,0.0,0.0,0.0,0.0,0.0,0.0,0.0,0.0,0.0,0.0,0.0,0.0,0.0,0.0,0.0,0.0,0.0,0.0,0.0,0.0,0.0,0.0,0.0,0.0,0.0,-2.6214,-2.7165,-2.8925,-2.9066,-2.9002,-2.9129,-2.8247,-2.7537,-2.7162,-2.5392,0.0,0.0,0.0,0.0,0.0,0.0,0.0,0.0,0.0,0.0,0.0,0.0,0.0,0.0,0.0,0.0,0.0,0.0,0.0,0.0,0.0,0.0,0.0,0.0,0.0,0.0,0.0,0.0,0.0,0.0,0.0,0.0,0.0,0.0,0.0,0.0,0.0,0.0,0.0,0.0,0.0,0.0,0.0,0.0,0.0,0.0,0.0,0.0,0.0,0.0,0.0,0.0,0.0,0.0,0.0,0.0,0.0,0.0,0.0,0.0,0.0,0.0,0.0,0.0,0.0,0.0,0.0,0.0,0.0,0.0,0.0,0.0,0.0,0.0,0.0,0.0,0.0,0.0,0.0,0.0,0.0,0.0,0.0,0.0,0.0,0.0,0.0,0.0,0.0,0.0,0.0,0.0,0.0,0.0,0.0,0.0,0.0,0.0,0.0,0.0,0.0,0.0,-2.8051,-2.8812,-3.0147,-2.9889,-2.9766,-3.0269,-2.9066,-2.8117,-2.7736,-2.6377,0.0,0.0,0.0,0.0,0.0,0.0,0.0,0.0,0.0,0.0,0.0,0.0,0.0,0.0,0.0,0.0,0.0,0.0,0.0,0.0,0.0,0.0,0.0,0.0,0.0,0.0,0.0,0.0,0.0,0.0,0.0,0.0,0.0,0.0,0.0,0.0,0.0,0.0,0.0,0.0,0.0,0.0,0.0,0.0,0.0,0.0,0.0,0.0,0.0,0.0,0.0,0.0,0.0,0.0,0.0,0.0,0.0,0.0,0.0,0.0,0.0,0.0,0.0,0.0,0.0,0.0,0.0,0.0,0.0,0.0,0.0,0.0,0.0,0.0,0.0,0.0,0.0,0.0,0.0,0.0,0.0,0.0,0.0,0.0,0.0,0.0,0.0,0.0,0.0,0.0,0.0,0.0,0.0,0.0,0.0,0.0,0.0,0.0,0.0,0.0,0.0,0.0,-2.9129,-3.0147,-3.0269,-3.0896,-3.1029,-3.0329,-3.0208,-2.9442,-2.7802,-2.7604,0.0,0.0,0.0,0.0,0.0,0.0,0.0,0.0,0.0,0.0,0.0,0.0,0.0,0.0,0.0,0.0,0.0,0.0,0.0,0.0,0.0,0.0,0.0,0.0,0.0,0.0,0.0,0.0,0.0,0.0,0.0,0.0,0.0,0.0,0.0,0.0,0.0,0.0,0.0,0.0,0.0,0.0,0.0,0.0,0.0,0.0,0.0,0.0,0.0,0.0,0.0,0.0,0.0,0.0,0.0,0.0,0.0,0.0,0.0,0.0,0.0,0.0,0.0,0.0,0.0,0.0,0.0,0.0,0.0,0.0,0.0,0.0,0.0,0.0,0.0,0.0,0.0,0.0,0.0,0.0,0.0,0.0,0.0,0.0,0.0,0.0,0.0,0.0,0.0,0.0,0.0,0.0,0.0,0.0,0.0,0.0,0.0,0.0,0.0,0.0,0.0,0.0,-2.9566,-3.0524,-3.097,-3.1351,-3.1409,-3.1087,-3.0072,-2.9192,-2.8556,0.0,0.0,0.0,0.0,0.0,0.0,0.0,0.0,0.0,0.0,0.0,0.0,0.0,0.0,0.0,0.0,0.0,0.0,0.0,0.0,0.0,0.0,0.0,0.0,0.0,0.0,0.0,0.0,0.0,0.0,0.0,0.0,0.0,0.0,0.0,0.0,0.0,0.0,0.0,0.0,0.0,0.0,0.0,0.0,0.0,0.0,0.0,0.0,0.0,0.0,0.0,0.0,0.0,0.0,0.0,0.0,0.0,0.0,0.0,0.0,0.0,0.0,0.0,0.0,0.0,0.0,0.0,0.0,0.0,0.0,0.0,0.0,0.0,0.0,0.0,0.0,0.0,0.0,0.0,0.0,0.0,0.0,0.0,0.0,0.0,0.0,0.0,0.0,0.0,0.0,0.0,0.0,0.0,0.0,0.0,0.0,0.0,0.0,0.0,0.0,0.0,0.0,-2.8939,-2.995,-3.0896,-3.1409,-3.1482,-3.1482,-3.1482,-3.0208,-2.9317,-2.9002,0.0,0.0,0.0,0.0,0.0,0.0,0.0,0.0,0.0,0.0,0.0,0.0,0.0,0.0,0.0,0.0,0.0,0.0,0.0,0.0,0.0,0.0,0.0,0.0,0.0,0.0,0.0,0.0,0.0,0.0,0.0,0.0,0.0,0.0,0.0,0.0,0.0,0.0,0.0,0.0,0.0,0.0,0.0,0.0,0.0,0.0,0.0,0.0,0.0,0.0,0.0,0.0,0.0,0.0,0.0,0.0,0.0,0.0,0.0,0.0,0.0,0.0,0.0,0.0,0.0,0.0,0.0,0.0,0.0,0.0,0.0,0.0,0.0,0.0,0.0,0.0,0.0,0.0,0.0,0.0,0.0,0.0,0.0,0.0,0.0,0.0,0.0,0.0,0.0,0.0,0.0,0.0,0.0,0.0,0.0,0.0,0.0,0.0,0.0,0.0,0.0,0.0,-2.9002,-3.0464,-3.1482,-3.1482,-3.1482,-3.1482,-3.1482,-3.0777,-2.9889,0.0,0.0,0.0,0.0,0.0,0.0,0.0,0.0,0.0,0.0,0.0,0.0,0.0,0.0,0.0,0.0,0.0,0.0,0.0,0.0,0.0,0.0,0.0,0.0,0.0,0.0,0.0,0.0,0.0,0.0,0.0,0.0,0.0,0.0,0.0,0.0,0.0,0.0,0.0,0.0,0.0,0.0,0.0,0.0,0.0,0.0,0.0,0.0,0.0,0.0,0.0,0.0,0.0,0.0,0.0,0.0,0.0,0.0,0.0,0.0,0.0,0.0,0.0,0.0,0.0,0.0,0.0,0.0,0.0,0.0,0.0,0.0,0.0,0.0,0.0,0.0,0.0,0.0,0.0,0.0,0.0,0.0,0.0,0.0,0.0,0.0,0.0,0.0,0.0,0.0,0.0,0.0,0.0,0.0,0.0,0.0,0.0,0.0,0.0,0.0,0.0,0.0,0.0,-2.9827,-3.0837,-3.1482,-3.1482,-3.1482,-3.1278,-3.0703,-2.9889,-2.9002,-2.8117,0.0,0.0,0.0,0.0,0.0,0.0,0.0,0.0,0.0,0.0,0.0,0.0,0.0,0.0,0.0,0.0,0.0,0.0,0.0,0.0,0.0,0.0,0.0,0.0,0.0,0.0,0.0,0.0,0.0,0.0,0.0,0.0,0.0,0.0,0.0,0.0,0.0,0.0,0.0,0.0,0.0,0.0,0.0,0.0,0.0,0.0,0.0,0.0,0.0,0.0,0.0,0.0,0.0,0.0,0.0,0.0,0.0,0.0,0.0,0.0,0.0,0.0,0.0,0.0,0.0,0.0,0.0,0.0,0.0,0.0,0.0,0.0,0.0,0.0,0.0,0.0,0.0,0.0,0.0,0.0,0.0,0.0,0.0,0.0,0.0,0.0,0.0,0.0,0.0,0.0,0.0,0.0,0.0,0.0,0.0,0.0,0.0,0.0,0.0,0.0,0.0,0.0,-3.0208,-3.1029,-3.1482,-3.1482,-3.1219,-3.0837,-3.0329,-2.9192,-2.8247,-2.7736,0.0,0.0,0.0,0.0,0.0,0.0,0.0,0.0,0.0,0.0,0.0,0.0,0.0,0.0,0.0,0.0,0.0,0.0,0.0,0.0,0.0,0.0,0.0,0.0,0.0,0.0,0.0,0.0,0.0,0.0,0.0,0.0,0.0,0.0,0.0,0.0,0.0,0.0,0.0,0.0,0.0,0.0,0.0,0.0,0.0,0.0,0.0,0.0,0.0,0.0,0.0,0.0,0.0,0.0,0.0,0.0,0.0,0.0,0.0,0.0,0.0,0.0,0.0,0.0,0.0,0.0,0.0,0.0,0.0,0.0,0.0,0.0,0.0,0.0,0.0,0.0,0.0,0.0,0.0,0.0,0.0,0.0,0.0,0.0,0.0,0.0,0.0,0.0,0.0,0.0,0.0,0.0,0.0,0.0,0.0,0.0,0.0,0.0,0.0,0.0,0.0,0.0,-3.0269,-3.1029,-3.1482,-3.1482,-3.0777,-3.0269,-3.0208,-2.8684,-2.767,-2.7604,0.0,0.0,0.0,0.0,0.0,0.0,0.0,0.0,0.0,0.0,0.0,0.0,0.0,0.0,0.0,0.0,0.0,0.0,0.0,0.0,0.0,0.0,0.0,0.0,0.0,0.0,0.0,0.0,0.0,0.0,0.0,0.0,0.0,0.0,0.0,0.0,0.0,0.0,0.0,0.0,0.0,0.0,0.0,0.0,0.0,0.0,0.0,0.0,0.0,0.0,0.0,0.0,0.0,0.0,0.0,0.0,0.0,0.0,0.0,0.0,-3.334,-3.3239,0.0,0.0,0.0,0.0,0.0,0.0,0.0,0.0,0.0,0.0,0.0,0.0,0.0,0.0,0.0,0.0,0.0,0.0,0.0,0.0,0.0,0.0,0.0,0.0,0.0,0.0,0.0,0.0,0.0,0.0,0.0,0.0,0.0,0.0,0.0,0.0,0.0,0.0,0.0,0.0,-3.1029,-3.1409,-3.1482,-3.1482,-3.0777,-3.0011,-2.9317,-2.8298,-2.7417,-2.6782,-2.6589,0.0,0.0,0.0,0.0,0.0,0.0,0.0,0.0,0.0,0.0,0.0,0.0,0.0,0.0,0.0,0.0,0.0,0.0,0.0,0.0,0.0,0.0,0.0,0.0,0.0,0.0,0.0,0.0,0.0,0.0,0.0,0.0,0.0,0.0,0.0,0.0,0.0,0.0,0.0,0.0,0.0,0.0,0.0,0.0,0.0,0.0,0.0,0.0,0.0,0.0,0.0,0.0,0.0,0.0,0.0,0.0,0.0,0.0,0.0,-3.4156,-3.4137,0.0,0.0,0.0,0.0,0.0,0.0,0.0,0.0,0.0,0.0,0.0,0.0,0.0,0.0,0.0,0.0,0.0,0.0,0.0,0.0,0.0,0.0,0.0,0.0,0.0,0.0,0.0,0.0,0.0,0.0,0.0,0.0,0.0,0.0,0.0,0.0,0.0,0.0,0.0,0.0,-3.1278,-3.1161,-3.0896,-3.0896,-2.9827,-2.8876,-2.8427,-2.7604,-2.6973,-2.6521,-2.6533,0.0,0.0,0.0,0.0,0.0,0.0,0.0,0.0,0.0,0.0,0.0,0.0,0.0,0.0,0.0,0.0,0.0,0.0,0.0,0.0,0.0,0.0,0.0,0.0,0.0,0.0,0.0,0.0,0.0,0.0,0.0,0.0,0.0,0.0,0.0,0.0,0.0,0.0,0.0,0.0,0.0,0.0,0.0,0.0,0.0,0.0,0.0,0.0,0.0,0.0,0.0,0.0,0.0,-3.3937,-3.4235,-3.4736,-3.4186,-3.4544,-3.5549,-3.5021,-3.5112,-3.5594,-3.5514,0.0,0.0,0.0,0.0,0.0,0.0,0.0,0.0,0.0,0.0,0.0,0.0,0.0,0.0,0.0,0.0,0.0,0.0,0.0,0.0,0.0,0.0,-2.938,-2.9254,-2.9254,-2.9254,-2.9254,0.0,0.0,0.0,0.0,0.0,0.0,0.0,0.0,0.0,0.0,0.0,-3.0896,-3.0644,-3.0269,-3.0072,-2.862,-2.767,-2.767,-2.6973,-2.6533,-2.6533,-2.6533,-2.6533,0.0,0.0,0.0,0.0,0.0,0.0,0.0,0.0,0.0,0.0,0.0,0.0,0.0,0.0,0.0,0.0,0.0,0.0,0.0,0.0,0.0,0.0,0.0,0.0,0.0,0.0,0.0,0.0,0.0,0.0,0.0,0.0,-3.3601,-3.4382,0.0,0.0,0.0,0.0,0.0,0.0,0.0,0.0,0.0,0.0,0.0,0.0,0.0,-3.5577,-3.547,-3.547,-3.5407,-3.5316,-3.5316,-3.5362,-3.547,-3.5362,-3.5424,-3.5577,-3.5525,0.0,-3.5613,-3.5591,0.0,0.0,0.0,0.0,0.0,0.0,0.0,0.0,0.0,0.0,0.0,0.0,0.0,0.0,0.0,0.0,0.0,0.0,0.0,0.0,0.0,0.0,-3.097,-3.0269,-3.0133,-3.0133,-3.0133,-2.8876,-2.792,-2.8684,-2.8247,-2.767,0.0,0.0,0.0,0.0,0.0,0.0,-2.9317,-2.9889,-3.0011,-2.9254,-2.8298,-2.767,-2.767,-2.6973,-2.6533,-2.6533,-2.6533,-2.6533,-2.6533,-2.4696,0.0,0.0,0.0,0.0,0.0,0.0,0.0,0.0,0.0,0.0,0.0,0.0,0.0,0.0,0.0,0.0,0.0,0.0,0.0,0.0,0.0,0.0,0.0,0.0,0.0,0.0,0.0,0.0,0.0,-3.3738,-3.4382,-3.5098,-3.5144,-3.5253,0.0,0.0,0.0,0.0,0.0,0.0,0.0,0.0,0.0,-3.5622,-3.5622,-3.5622,-3.5622,-3.5622,-3.5622,-3.5622,-3.5622,-3.5622,-3.5622,-3.5622,-3.5622,-3.5622,-3.5622,-3.5609,-3.5585,-3.5215,-3.4791,-3.4392,0.0,0.0,0.0,0.0,-3.2766,-3.2422,-3.1706,-3.1482,-3.1482,-3.1482,0.0,0.0,0.0,0.0,0.0,0.0,0.0,-2.969,-3.0147,-3.0584,-3.0837,-3.097,-3.0269,-2.9827,-3.0777,-2.9628,-2.8684,-2.9566,-2.862,-2.767,-2.767,-2.704,0.0,0.0,0.0,-2.8427,-2.8939,-2.8939,-2.8684,-2.8298,-2.755,-2.704,-2.704,-2.6714,-2.6533,-2.6533,-2.6533,-2.6533,-2.6533,-2.5134,-2.4047,0.0,0.0,0.0,0.0,0.0,0.0,0.0,0.0,0.0,0.0,0.0,0.0,0.0,0.0,0.0,0.0,0.0,0.0,0.0,0.0,0.0,0.0,0.0,0.0,0.0,0.0,0.0,0.0,-3.4736,-3.5052,-3.5515,-3.5739,-3.581,0.0,0.0,0.0,0.0,0.0,0.0,-3.5854,-3.6182,-3.6139,-3.5622,-3.5622,-3.5622,-3.5622,-3.5622,-3.5622,-3.5622,-3.5622,-3.5622,-3.5622,-3.5622,-3.5622,-3.5622,-3.5622,-3.5515,-3.5304,-3.4972,-3.4409,-3.3761,-3.3805,-3.3577,-3.3185,-3.2691,-3.2407,-3.2198,-3.1646,-3.1482,-3.1482,-3.1482,-3.1482,-3.1467,-3.1278,0.0,0.0,0.0,0.0,-2.9766,-3.045,-3.0584,-3.0644,-3.0837,-3.0072,-2.9566,-3.0329,-2.9566,-2.9066,-3.0329,-2.9192,-2.8051,-2.8051,-2.7162,0.0,-2.7284,-2.7537,-2.7855,-2.8298,-2.7986,-2.7604,-2.7417,-2.685,-2.6533,-2.6533,-2.6533,-2.6533,-2.6533,-2.6533,-2.6383,-2.6094,-2.5146,-2.4108,-2.3147,0.0,0.0,0.0,0.0,0.0,0.0,0.0,0.0,0.0,0.0,0.0,0.0,0.0,0.0,0.0,0.0,0.0,0.0,0.0,0.0,0.0,0.0,0.0,0.0,0.0,0.0,0.0,0.0,0.0,-3.5577,-3.6054,0.0,0.0,0.0,0.0,-3.7058,-3.6684,-3.6416,-3.6374,-3.6392,-3.6139,-3.5622,-3.5622,-3.5622,-3.5622,-3.5622,-3.5622,-3.5622,-3.5622,-3.5622,-3.5622,-3.5622,-3.5622,-3.5622,-3.5622,-3.5253,-3.4688,-3.5304,-3.5167,-3.4532,-3.4564,-3.3737,-3.2557,-3.2527,-3.2123,-3.1526,-3.1482,-3.1482,-3.1482,-3.1482,-3.1482,-3.1351,-3.0584,-3.0896,0.0,0.0,-3.0777,-3.1409,-3.1409,-3.1409,-3.1029,-2.9504,-2.969,-2.9827,-2.8247,-2.7802,-2.8492,-3.097,-3.0072,-2.8939,-2.8939,0.0,-2.6533,-2.6521,-2.7229,-2.7417,-2.6714,-2.7229,-2.7417,-2.6658,-2.6521,-2.6533,-2.6533,-2.6533,-2.6533,-2.6533,-2.6533,-2.6094,-2.5087,-2.4108,-2.3073,-2.2103,-2.1155,0.0,0.0,0.0,0.0,0.0,0.0,0.0,0.0,0.0,0.0,0.0,0.0,0.0,0.0,0.0,0.0,0.0,0.0,0.0,0.0,0.0,0.0,0.0,0.0,0.0,0.0,0.0,0.0,-3.5622,-3.6054,0.0,-3.5941,-3.6768,-3.7041,-3.6249,-3.7248,-3.7451,-3.6457,-3.6724,-3.6684,-3.6139,-3.5783,-3.5622,-3.5622,-3.5622,-3.5622,-3.5622,-3.5622,-3.5622,-3.5622,-3.5622,-3.5622,-3.5622,-3.5622,-3.547,-3.5253,-3.5515,-3.4708,-3.3255,-3.2777,-3.23,-3.1884,-3.1884,-3.1734,-3.1482,-3.1482,-3.1482,-3.1482,-3.1482,-3.1482,-3.1467,-3.1161,-3.1278,-3.1409,-3.1161,-3.1278,-3.1482,-3.1482,-3.1482,-3.1219,-3.0072,-3.0072,-2.995,-2.8812,-2.8556,-2.8812,-2.969,-2.8556,-2.7537,-2.8051,-2.7229,-2.6533,-2.6533,-2.6714,-2.685,-2.6521,-2.6782,-2.685,-2.6521,-2.6533,-2.6533,-2.6533,-2.6533,-2.6533,-2.6533,-2.5873,-2.537,-2.5004,-2.4036,-2.2999,-2.2027,-2.1659,-2.1231,0.0,0.0,0.0,0.0,0.0,0.0,0.0,0.0,0.0,0.0,0.0,0.0,0.0,0.0,0.0,0.0,0.0,0.0,0.0,0.0,0.0,0.0,0.0,0.0,0.0,-3.5622,-3.5667,-3.5854,-3.6333,-3.6603,-3.6381,-3.7287,-3.756,-3.6689,-3.7773,-3.7964,-3.6981,-3.7306,-3.7347,-3.6797,-3.629,-3.6011,-3.6011,-3.5757,-3.5622,-3.5622,-3.5622,-3.5622,-3.5622,-3.5622,-3.5622,-3.5622,-3.5622,-3.5622,-3.5577,-3.5362,-3.4496,-3.3182,-3.2461,-3.2048,-3.1853,-3.1582,-3.1482,-3.1482,-3.1482,-3.1482,-3.1482,-3.1482,-3.1482,-3.1482,-3.1482,-3.1482,-3.1482,-3.1482,-3.1482,-3.1482,-3.1482,-3.1278,-3.0896,-3.0072,-2.9628,-2.9192,-2.8363,-2.8182,-2.8182,-2.8182,-2.7484,-2.7095,-2.7604,-2.704,-2.6533,-2.6533,-2.6533,-2.6533,-2.6533,-2.6533,-2.6533,-2.6533,-2.6533,-2.6533,-2.6533,-2.6533,-2.6533,-2.6533,-2.5594,-2.4862,-2.4492,-2.3514,-2.2553,-2.1517,-2.1517,-2.1231,-2.0566,0.0,0.0,0.0,0.0,0.0,0.0,0.0,0.0,0.0,0.0,0.0,0.0,0.0,0.0,0.0,0.0,0.0,0.0,0.0,0.0,0.0,0.0,0.0,-3.5622,-3.5622,-3.5766,-3.6291,-3.6843,-3.736,-3.7825,-3.7859,-3.8099,-3.8627,-3.8201,-3.7948,-3.7929,-3.818,-3.8099,-3.7559,-3.7075,-3.6806,-3.6806,-3.6045,-3.5656,-3.5656,-3.5639,-3.5622,-3.5622,-3.5622,-3.5622,-3.5622,-3.5622,-3.5622,-3.556,-3.4894,-3.4624,-3.4528,-3.3836,-3.3182,-3.2492,-3.1796,-3.1482,-3.1482,-3.1482,-3.1482,-3.1482,-3.1482,-3.1482,-3.1482,-3.1482,-3.1482,-3.1482,-3.1482,-3.1482,-3.1482,-3.1482,-3.0896,-3.0072,-2.9192,-2.8363,-2.7484,-2.6658,-2.6521,-2.6521,-2.6533,-2.7095,-2.767,-2.767,-2.704,-2.6533,-2.6533,-2.6533,0.0,-2.6533,-2.6533,-2.6533,-2.6533,-2.6533,-2.6533,-2.6533,-2.6533,-2.6533,-2.6533,-2.5511,-2.4492,-2.3514,-2.2478,-2.1517,-2.0644,-2.0566,-2.0566,-2.0566,0.0,0.0,0.0,0.0,0.0,0.0,0.0,0.0,0.0,0.0,0.0,0.0,0.0,0.0,0.0,0.0,0.0,0.0,0.0,0.0,0.0,-3.4704,-3.5622,-3.5622,-3.5622,-3.565,-3.5827,-3.6291,-3.6684,-3.6786,-3.7452,-3.7843,-3.7632,-3.8694,-3.9188,-3.8776,-3.902,-3.9093,-3.8971,-3.8071,-3.7601,-3.7601,-3.684,-3.6468,-3.6451,-3.5893,-3.5622,-3.5622,-3.5622,-3.5622,-3.5622,-3.5622,-3.5622,-3.5577,-3.5407,-3.5052,-3.4479,-3.3339,-3.2734,-3.2492,-3.1796,-3.1482,-3.1482,-3.1482,-3.1482,-3.1482,-3.1482,-3.1482,-3.1482,-3.1482,-3.1482,-3.1482,-3.1482,-3.1482,-3.1482,-3.1482,-3.0896,-3.0072,-2.9192,-2.8812,-2.8247,-2.6782,-2.6973,-2.7229,-2.6589,-2.6658,-2.685,-2.685,-2.6658,-2.6533,-2.6533,-2.6533,-2.6533,-2.6533,-2.6533,-2.6533,-2.6533,-2.6533,-2.6533,-2.6533,-2.6533,-2.6533,-2.6533,-2.4838,-2.3818,-2.3514,-2.1897,-2.0857,-2.0644,-2.0566,-2.0566,0.0,0.0,0.0,0.0,0.0,0.0,0.0,0.0,0.0,0.0,0.0,0.0,0.0,0.0,0.0,0.0,0.0,0.0,0.0,0.0,0.0,0.0,-3.4911,-3.5622,-3.5622,-3.5622,-3.5694,-3.5898,-3.6416,-3.6786,-3.702,-3.7773,-3.8244,-3.8329,-3.9312,-3.9914,-3.9922,-4.0182,-4.021,-3.9987,-3.9126,-3.8598,-3.8362,-3.7618,-3.7246,-3.7246,-3.6468,-3.6096,-3.6096,-3.5774,-3.5622,-3.5622,-3.5622,-3.5622,-3.5622,-3.5622,-3.5207,-3.4479,0.0,0.0,0.0,0.0,-3.1482,-3.1482,-3.1482,-3.1482,-3.1482,-3.1482,-3.1482,-3.1482,-3.1482,-3.1482,-3.1482,-3.1482,-3.1482,-3.1409,-3.1087,-3.0389,-2.9566,-2.8684,-2.8182,-2.767,-2.6714,-2.6837,-2.704,-2.6589,-2.6533,0.0,-2.6533,-2.6533,-2.6533,-2.6533,-2.6533,-2.6533,-2.6533,-2.6533,-2.6533,-2.6533,-2.6533,-2.6533,-2.6533,-2.6533,0.0,0.0,0.0,-2.3147,-2.2339,-2.1231,0.0,0.0,0.0,-2.0566,-2.0566,-2.0566,0.0,0.0,-2.0566,-2.0566,0.0,0.0,0.0,0.0,0.0,0.0,0.0,0.0,0.0,0.0,0.0,0.0,0.0,0.0,0.0,0.0,-3.5144,-3.5622,-3.5622,-3.5667,-3.5854,-3.6333,-3.6865,-3.7396,-3.7859,-3.8332,-3.8957,-3.9827,-3.9974,-4.0396,-4.1203,-4.1415,0.0,0.0,0.0,-3.9697,-3.9123,-3.8413,-3.801,-3.801,-3.728,-3.6903,-3.6785,-3.6073,-3.569,-3.5622,-3.5622,-3.5622,-3.5622,-3.5622,-3.5161,-3.4431,-3.3735,-3.3093,-3.2382,-3.1739,-3.1482,-3.1482,-3.1482,0.0,0.0,-3.1482,-3.1482,-3.1482,-3.1482,-3.1482,-3.1482,-3.1482,-3.1482,-3.1278,-3.0524,-2.9628,-2.8812,-2.792,-2.7095,-2.6533,-2.6533,-2.6533,-2.6533,-2.6533,-2.6533,-2.6533,-2.6533,-2.6533,-2.6533,-2.6533,-2.6533,-2.6533,-2.6533,-2.6533,-2.6533,-2.6533,-2.6533,0.0,-2.6533,-2.6533,-2.6533,-2.6533,-2.4612,-2.2638,-2.0712,-2.0566,-2.0566,-2.0566,-2.0566,-2.0566,-2.0566,-2.0566,-2.0566,-2.0566,-2.0566,-2.0566,0.0,0.0,0.0,0.0,0.0,0.0,0.0,0.0,0.0,0.0,0.0,0.0,0.0,0.0,0.0,-3.4479,-3.5144,-3.5622,-3.5622,-3.5985,-3.6291,-3.6374,-3.6865,-3.7396,-3.7859,-3.798,-3.8576,-3.9795,-4.0506,-4.1222,-4.2029,-4.2303,-4.2167,-4.1614,-4.103,-4.0423,-3.9868,-3.9143,-3.8807,-3.879,-3.806,0.0,-3.6797,-3.6644,-3.6214,-3.5622,-3.5622,-3.5622,-3.5622,-3.5622,-3.4911,-3.3735,-3.3039,-3.2367,-3.1697,-3.1524,-3.1482,-3.1482,-3.1482,-3.1482,-3.1482,-3.1482,-3.1482,-3.1482,-3.1482,-3.1482,0.0,-3.1482,-3.1482,-3.1278,-3.0524,-2.9628,-2.8812,-2.792,-2.7095,-2.6533,-2.6533,-2.6533,-2.6533,-2.6533,-2.6533,-2.6533,-2.6533,-2.6533,-2.6533,-2.6533,-2.6533,-2.6533,-2.6533,-2.6533,-2.6533,-2.6533,-2.6533,-2.6533,-2.6533,-2.6533,-2.6533,-2.6533,-2.4612,-2.2638,-2.0712,-2.0566,-2.0566,-2.0566,-2.0566,-2.0566,-2.0566,-2.0566,-2.0566,-2.0566,-2.0566,-2.0566,0.0,0.0,0.0,0.0,0.0,0.0,0.0,0.0,0.0,0.0,0.0,-3.1334,-3.281,0.0,-3.3937,-3.4958,-3.5362,-3.5622,-3.5622,-3.6291,-3.6684,-3.6416,-3.7097,-3.7649,-3.7859,-3.8132,-3.8761,-3.9832,-4.0634,-4.1442,-4.2255,-4.2796,-4.283,-4.2266,-4.1682,-4.1095,-4.0527,-3.9851,-3.9564,-3.9564,-3.8772,-3.8248,-3.7855,-3.7126,-3.6576,-3.6197,-3.574,-3.5622,-3.5577,-3.5253,-3.4496,-3.3531,-3.2841,-3.216,-3.1482,-3.1482,-3.1482,-3.1482,-3.1482,-3.1482,-3.1482,-3.1482,-3.1482,-3.1482,-3.1482,-3.1482,-3.1482,-3.1482,-3.1482,-3.1219,-2.995,-2.9317,-2.8684,-2.7417,-2.6782,-2.6533,-2.6533,-2.6533,-2.6533,-2.6533,-2.6533,-2.6533,-2.6533,-2.6533,-2.6533,-2.6533,-2.6533,-2.6533,-2.6533,-2.6533,-2.6533,-2.6533,-2.6533,-2.6533,-2.6533,-2.6025,-2.5511,-2.5063,-2.3588,-2.2113,-2.0644,-2.0566,-2.0566,-2.0566,-2.0566,-2.0566,-2.0566,-2.0566,-2.0566,-2.0566,-2.0566,-2.0566,0.0,0.0,0.0,0.0,0.0,0.0,0.0,-2.7352,-2.9066,-2.9192,-3.045,-3.1951,-3.3323,-3.3582,-3.4037,-3.5362,-3.5622,-3.5622,-3.5622,-3.6533,-3.7031,-3.6609,-3.7414,-3.8065,-3.8065,-3.8465,-3.9038,-3.9832,-4.0515,-4.1291,-4.2242,-4.2896,-4.3096,-4.2732,-4.2237,-4.1613,-4.0933,-4.0459,-4.0206,-4.007,-3.948,-3.916,-3.8942,-3.7618,-3.6939,-3.6757,-3.5921,-3.5622,-3.556,-3.4894,-3.4186,-3.3531,-3.2841,-3.216,-3.1482,-3.1482,-3.1482,-3.1482,-3.1482,-3.1482,-3.1482,-3.1482,-3.1482,-3.1482,-3.1482,-3.1482,-3.1467,-3.1278,-3.1278,-3.0896,-2.9192,-2.8748,-2.8363,-2.685,-2.6533,-2.6533,-2.6533,-2.6533,-2.6533,-2.6533,-2.6533,-2.6533,-2.6533,-2.6533,-2.6533,-2.6533,-2.6533,-2.6533,-2.6533,-2.6533,-2.6533,-2.6533,-2.6533,-2.6533,-2.6533,-2.5594,-2.4564,-2.3588,-2.2553,-2.1593,-2.0644,-2.0566,-2.0566,-2.0566,-2.0566,-2.0566,-2.0566,-2.0566,-2.0566,-2.0566,-2.0566,-2.0605,-1.8877,-1.9913,-2.1231,-2.2999,-2.3661,-2.4446,0.0,-2.8233,-2.9192,-3.0011,-3.0896,-3.1951,-3.3323,-3.3582,-3.4037,-3.5362,-3.5622,-3.5622,-3.5622,-3.654,-3.7171,-3.7131,-3.7988,-3.8627,-3.8627,-3.8658,-3.9032,-3.9829,-3.9989,-4.0717,-4.2205,-4.237,-4.2514,-4.2713,-4.2646,-4.2069,-4.0916,-4.0832,-4.0578,-4.007,-4.002,-3.9632,-3.8975,-3.8137,-3.741,-3.6757,-3.5921,-3.5622,-3.556,-3.4894,-3.4186,-3.3531,-3.2841,-3.216,-3.1482,-3.1482,-3.1482,-3.1482,-3.1482,-3.1482,-3.1482,-3.1482,-3.1482,-3.1482,-3.1482,-3.1482,-3.1351,-3.0644,-3.045,-3.0011,-2.8298,-2.7855,-2.7604,-2.6714,-2.6533,-2.6533,-2.6533,-2.6533,-2.6533,-2.6533,-2.6533,-2.6533,-2.6533,-2.6533,-2.6533,-2.6533,-2.6533,-2.6533,-2.6533,-2.6533,-2.6533,-2.6533,-2.6533,-2.6533,-2.6533,-2.5594,-2.4564,-2.3588,-2.2553,-2.1593,-2.0644,-2.0566,-2.0566,-2.0566,-2.0566,-2.0566,-2.0566,-2.0566,-2.0566,-2.0566,-2.0566,-2.0781,-1.855,-1.9728,-2.0864,-2.2242,-2.3526,-2.4696,-2.5894,-2.7245,-2.8492,-2.938,-3.0208,-3.1377,-3.3255,-3.3582,-3.4037,-3.5362,-3.5853,-3.6067,-3.6067,-3.6955,-3.7624,-3.7602,-3.8267,-3.8707,-3.8707,-3.8707,-3.8836,-3.9191,-3.9626,-4.0178,-4.0868,-4.1345,-4.1661,-4.177,-4.1588,-4.1252,-4.0742,-4.053,-4.0341,-4.007,-3.9649,-3.9278,-3.8975,-3.782,-3.6865,-3.6067,-3.574,-3.5367,-3.5011,-3.4692,-3.3942,-3.2986,-3.2694,-3.2139,-3.1482,-3.1482,-3.1482,-3.1482,-3.1482,-3.1482,-3.1482,-3.1482,-3.1482,-3.1482,-3.1482,-3.1482,-3.1409,-3.1087,-3.0644,-3.0011,-2.8812,-2.8051,-2.7484,-2.6714,-2.6533,-2.6533,-2.6533,-2.6533,-2.6533,-2.6533,-2.6533,-2.6533,-2.6533,-2.6533,-2.6533,-2.6533,-2.6533,-2.6533,-2.6533,-2.6533,-2.6533,-2.6533,-2.5955,-2.5664,-2.5664,-2.4181,-2.3073,-2.2627,-2.1745,-2.1011,-2.0644,-2.0566,-2.0566,-2.0566,-2.0566,-2.0566,-2.0566,-2.0566,-2.0566,-2.0566,-2.0566,-2.081,-1.7649,-1.907,-2.0227,-2.1314,-2.2903,-2.4337,-2.4862,-2.6227,-2.763,-2.8748,-2.969,-3.0999,-3.3203,-3.361,-3.405,-3.5379,-3.6051,-3.6399,-3.6406,-3.7264,-3.7879,-3.7905,-3.8361,-3.8707,-3.8707,-3.8707,-3.8707,-3.8707,-3.9246,-3.9663,-3.9878,-4.0441,-4.0888,-4.1071,-4.0836,-4.0616,-4.0292,-4.0077,-3.98,-3.9463,-3.8975,-3.8673,-3.8635,-3.735,-3.636,-3.5622,-3.5622,-3.5207,-3.4591,-3.4388,-3.363,-3.2579,-3.2392,-3.1972,-3.1482,-3.1482,-3.1482,-3.1482,-3.1482,-3.1482,-3.1482,-3.1482,-3.1482,-3.1482,-3.1482,-3.1351,-3.1087,-3.0896,-3.0208,-2.938,-2.8556,-2.7868,-2.7229,-2.6658,-2.6533,-2.6533,-2.6533,-2.6533,-2.6533,-2.6533,-2.6533,-2.6533,-2.6533,-2.6533,-2.6533,-2.6533,-2.6533,-2.6533,-2.6533,-2.6245,-2.6094,-2.6094,-2.5217,-2.4564,-2.4564,-2.2999,-2.2027,-2.2027,-2.1155,-2.0566,-2.0566,-2.0566,-2.0566,-2.0566,-2.0566,-2.0566,-2.0566,-2.0566,-2.0566,-2.0566,-2.0566,-2.081,-1.5779,-1.7407,-1.9256,-2.0207,-2.1303,-2.2627,-2.4564,-2.5718,-2.6832,-2.8657,-2.969,-3.0999,-3.3203,-3.3577,-3.4037,-3.5367,-3.6051,-3.6397,-3.6412,-3.7255,-3.7899,-3.7909,-3.8384,-3.8707,-3.8707,-3.8707,-3.8707,-3.8707,-3.8726,-3.9068,-3.986,-3.9915,-4.0277,-4.1089,-4.1089,-4.0599,-3.9529,-3.9514,-3.9009,-3.7953,-3.792,-3.793,-3.7905,-3.7143,-3.635,-3.5622,-3.5622,-3.5217,-3.4571,-3.3892,-3.3244,-3.2531,-3.1792,-3.1524,-3.1482,-3.1482,-3.1482,-3.1482,-3.1482,-3.1482,-3.1482,-3.1482,-3.1482,-3.1482,-3.1482,-3.097,-3.0147,-2.9317,-2.8427,-2.7604,-2.6782,-2.6589,-2.6521,-2.6533,-2.6533,-2.6533,-2.6533,-2.6533,-2.6533,-2.6533,-2.6533,-2.6533,-2.6533,-2.6533,-2.6533,-2.6533,-2.6533,-2.6533,-2.6533,-2.5664,-2.5087,-2.5087,-2.412,-2.3526,-2.3526,-2.2627,-2.2027,-2.2027,-2.1155,-2.0566,-2.0566,-2.0566,-2.0566,-2.0566,-2.0566,-2.0566,-2.0566,-2.0566,-2.0566,-2.0566,-2.0566,-2.081,-1.4192,-1.6064,-1.8284,-1.9974,-2.1227,-2.2553,-2.4564,-2.5193,-2.6133,-2.8529,-2.9204,-3.0273,-3.306,-3.3614,-3.4147,-3.5869,-3.6576,-3.7055,-3.7361,-3.8008,-3.842,-3.842,-3.8591,-3.8707,-3.8707,-3.8707,-3.8707,-3.8707,-3.8707,-3.8817,-3.9087,-3.9087,-3.9228,-3.9498,-3.9626,-3.9528,-3.9153,-3.9008,-3.8709,-3.8342,-3.7543,-3.6869,-3.6378,-3.6101,-3.5853,-3.5622,-3.5622,-3.52,-3.4543,-3.3868,-3.3212,-3.2527,-3.1787,-3.1482,-3.1482,-3.1482,-3.1482,-3.1482,-3.1482,-3.1482,-3.1482,-3.1482,-3.1482,-3.1482,-3.1482,-3.1278,-3.0896,-3.0072,-2.9254,-2.8363,-2.755,-2.6905,-2.6533,-2.6533,-2.6533,-2.6533,-2.6533,-2.6533,-2.6533,-2.6533,-2.6533,-2.6533,-2.6533,-2.6533,-2.6533,-2.6533,-2.6533,-2.6245,-2.5594,-2.5229,-2.4707,-2.4047,-2.3073,-2.2478,-2.2478,-2.1593,-2.1078,-2.1078,-2.0789,-2.0566,-2.0566,-2.0566,-2.0566,-2.0566,-2.0566,-2.0566,-2.0566,-2.0566,-2.0566,-2.0566,-2.0566,-2.0644,-1.2204,-1.4239,-1.6306,-1.7746,-1.9506,-2.1471,-2.3468,-2.4166,-2.5276,-2.8,-2.8787,-2.9882,-3.264,-3.3403,-3.4198,-3.6089,-3.6859,-3.7351,-3.784,-3.8345,-3.8744,-3.8817,-3.8762,-3.8744,-3.8817,-3.8762,-3.8707,-3.8707,-3.8707,-3.8707,-3.8707,-3.8707,-3.8707,-3.8707,-3.8817,-3.8799,-3.8634,-3.8436,-3.8174,-3.7785,-3.6825,-3.6084,-3.5622,-3.5622,-3.5622,-3.5622,-3.5622,-3.5099,-3.423,-3.3783,-3.3044,-3.2161,-3.1702,-3.1482,-3.1482,-3.1482,-3.1482,-3.1482,-3.1482,-3.1482,-3.1482,-3.1482,-3.1482,-3.1482,-3.1482,-3.1055,-3.0485,-2.9986,-2.9002,-2.7986,-2.7417,-2.6905,-2.6533,-2.6533,-2.6533,-2.6533,-2.6533,-2.6533,-2.6533,-2.6533,-2.6533,-2.6533,-2.6533,-2.6533,-2.6533,-2.6533,-2.6533,-2.6164,-2.5158,-2.4707,-2.4108,-2.3073,-2.2113,-2.1517,-2.1517,-2.0934,-2.0566,-2.0566,-2.0566,-2.0566,-2.0566,-2.0566,-2.0566,-2.0566,-2.0566,-2.0566,-2.0566,-2.0566,-2.0566,-2.0566,-2.0566,-2.0566,-1.001,-1.1981,-1.3716,-1.3915,-1.6437,-1.9402,-2.1356,-2.2585,-2.4131,-2.7037,-2.8318,-2.9617,-3.1855,-3.3062,-3.4234,-3.6144,-3.6895,-3.74,-3.7882,-3.8383,-3.8799,-3.9068,-3.8891,-3.8835,-3.9118,-3.8903,-3.8744,-3.8726,-3.8707,-3.8707,-3.8707,-3.8707,-3.8707,-3.8707,-3.8707,-3.8456,-3.7955,-3.79,-3.7381,-3.6361,-3.5853,-3.5622,-3.5622,-3.5622,-3.5622,-3.5622,-3.5622,-3.4841,-3.3656,-3.3615,-3.2812,-3.1569,-3.1482,-3.1482,-3.1482,-3.1482,-3.1482,-3.1482,-3.1482,-3.1482,-3.1482,-3.1482,-3.1482,-3.1482,-3.1482,-3.0352,-2.9057,-2.9018,-2.7841,-2.6564,-2.6521,-2.6533,-2.6533,-2.6533,-2.6533,-2.6533,-2.6533,-2.6533,-2.6533,-2.6533,-2.6533,-2.6533,-2.6533,-2.6533,-2.6452,-2.6427,-2.6427,-2.607,-2.5075,-2.412,-2.3073,-2.2038,-2.1155,-2.0566,-2.0566,-2.0566,-2.0566,-2.0566,-2.0566,-2.0566,-2.0566,-2.0566,-2.0566,-2.0566,-2.0566,-2.0566,-2.0566,-2.0566,-2.0566,-2.0566,-2.0566,-2.0566,-0.8689,-1.1056,-1.3489,-1.3698,-1.5584,-1.8043,-2.0245,-2.0964,-2.2201,-2.5869,-2.7314,-2.8806,-3.1767,-3.3298,-3.4736,-3.6684,-3.7395,-3.79,-3.842,-3.8634,-3.8799,-3.9068,-3.9043,-3.9116,-3.9441,-3.9424,-3.9265,-3.9013,-3.8799,-3.8707,-3.8707,-3.8707,-3.8707,-3.8707,-3.8707,-3.8634,-3.8493,-3.7741,-3.6845,-3.5819,-3.5673,-3.5622,-3.5622,-3.5622,-3.5622,-3.5622,-3.5622,-3.5133,-3.4313,-3.3802,-3.3079,-3.2279,-3.1717,-3.1482,-3.1482,-3.1482,-3.1482,-3.1482,-3.1482,-3.1482,-3.1482,-3.1482,-3.1482,-3.1482,-3.1482,-3.0776,-2.9827,-2.9163,-2.8197,-2.7288,-2.6637,-2.6533,-2.6533,-2.6533,-2.6533,-2.6533,-2.6533,-2.6533,-2.6533,-2.6533,-2.6533,-2.6533,-2.6533,-2.6533,-2.6214,-2.5505,-2.5387,-2.5057,-2.4002,-2.3661,-2.2861,-2.1155,-2.0712,-2.0566,-2.0566,-2.0566,-2.0566,-2.0566,-2.0566,-2.0566,-2.0566,-2.0566,-2.0566,-2.0566,-2.0566,-2.0566,-2.0566,-2.0566,-2.0566,-2.0566,-2.0566,-2.0566,-0.7423,-0.9546,-1.1752,-1.1981,-1.4289,-1.7072,-1.8806,-2.0187,-2.1934,-2.4973,-2.6756,-2.8532,-3.0925,-3.2969,-3.4803,-3.6414,-3.7482,-3.8297,-3.8799,-3.8995,-3.9209,-3.9498,-3.9416,-3.9447,-3.9802,-3.9693,-3.9519,-3.9331,-3.9036,-3.8817,-3.8707,-3.8707,-3.8707,-3.8707,-3.8707,-3.8707,-3.8707,-3.7701,-3.6891,-3.6282,-3.5836,-3.5622,-3.5622,-3.5622,-3.5622,-3.556,-3.5296,-3.479,-3.4106,-3.345,-3.274,-3.2101,-3.1687,-3.1482,-3.1482,-3.1482,-3.1482,-3.1482,-3.1482,-3.1482,-3.1482,-3.1482,-3.1482,-3.1437,-3.1055,-3.0366,-2.9551,-2.8664,-2.7795,-2.7064,-2.6595,-2.6533,-2.6533,-2.6533,-2.6533,-2.6533,-2.6533,-2.6533,-2.6533,-2.6533,-2.6533,-2.6533,-2.6533,-2.6533,-2.6308,-2.5741,-2.5289,-2.4676,-2.3621,-2.3099,-2.2264,-2.0779,-2.0566,-2.0566,-2.0566,-2.0566,-2.0566,-2.0566,-2.0566,-2.0566,-2.0566,-2.0566,-2.0566,-2.0566,-2.0566,-2.0566,-2.0566,-2.0566,-2.0566,-2.0566,-2.0566,-2.0566,-0.6426,-0.803,-0.9652,-0.9871,-1.2789,-1.6035,-1.7211,-1.9515,-2.1946,-2.4002,-2.6276,-2.837,-3.0009,-3.2431,-3.4648,-3.5941,-3.7381,-3.8548,-3.9079,-3.9415,-3.9721,-4.0047,-3.9844,-3.9781,-4.0123,-3.9877,-3.9704,-3.9665,-3.9416,-3.9076,-3.8762,-3.8726,-3.8707,-3.8707,-3.8707,-3.867,-3.8585,-3.7711,-3.7249,-3.7103,-3.6163,-3.5673,-3.5622,-3.5622,-3.5622,-3.556,-3.4987,-3.4334,-3.3674,-3.3006,-3.2294,-3.1614,-3.1554,-3.1482,-3.1482,-3.1482,-3.1482,-3.1482,-3.1482,-3.1482,-3.1482,-3.1482,-3.1482,-3.1334,-3.0513,-2.9667,-2.8828,-2.7936,-2.7116,-2.6533,-2.6533,-2.6533,-2.6533,-2.6533,-2.6533,-2.6533,-2.6533,-2.6533,-2.6533,-2.6533,-2.6533,-2.6533,-2.6533,-2.6533,-2.6427,-2.6108,-2.5368,-2.4366,-2.3246,-2.2431,-2.1627,-2.0682,-2.0566,-2.0566,-2.0566,-2.0566,-2.0566,-2.0566,-2.0566,-2.0566,-2.0566,-2.0566,-2.0566,-2.0566,-2.0566,-2.0566,-2.0566,-2.0566,-2.0566,-2.0566,-2.0566,-2.0566,-0.6342,-0.779,-0.9463,-0.9669,-1.1552,-1.3932,-1.6011,-1.7404,-1.9247,-2.2755,-2.5262,-2.7661,-3.0266,-3.2461,-3.4565,-3.6658,-3.7546,-3.835,-3.9376,-3.9564,-3.9717,-4.006,-4.0046,-4.0123,-4.0392,-4.0373,-4.0258,-4.0046,-3.9957,-3.9662,-3.9056,-3.8817,-3.8707,-3.8707,-3.8707,-3.8493,-3.8028,-3.7885,-3.7358,-3.6559,-3.6361,-3.6034,-3.5622,-3.5622,-3.5622,-3.556,-3.5493,-3.5054,-3.4359,-3.3702,-3.3023,-3.2324,-3.1732,-3.1482,-3.1482,-3.1482,-3.1482,-3.1482,-3.1482,-3.1482,-3.1482,-3.1482,-3.1482,-3.1334,-3.0513,-2.9699,-2.8853,-2.7915,-2.7097,-2.6533,-2.6533,-2.6533,-2.6533,-2.6533,-2.6533,-2.6533,-2.6533,-2.6533,-2.6533,-2.6533,-2.6533,-2.6533,-2.6533,-2.6533,-2.5952,-2.4276,-2.3839,-2.3089,-2.1334,-2.1636,-2.1627,-2.0682,-2.0566,-2.0566,-2.0566,-2.0566,-2.0566,-2.0566,-2.0566,-2.0566,-2.0566,-2.0566,-2.0566,-2.0566,-2.0566,-2.0566,-2.0566,-2.0566,-2.0566,-2.0566,-2.0566,-2.0566,-0.6338,-0.7386,-0.8702,-0.9293,-1.139,-1.3741,-1.58,-1.8033,-2.0499,-2.3491,-2.5896,-2.8196,-3.0499,-3.2458,-3.4235,-3.5711,-3.7187,-3.8393,-3.9087,-3.9685,-4.0142,-4.0296,-4.0315,-4.0354,-4.0489,-4.0489,-4.045,-4.0315,-4.0181,-3.9793,-3.9142,-3.8836,-3.8707,-3.8707,-3.8707,-3.8566,-3.8315,-3.8028,-3.754,-3.6799,-3.6534,-3.6101,-3.5622,-3.5622,-3.5622,-3.556,-3.5217,-3.47,-3.4043,-3.3339,-3.2678,-3.1998,-3.1614,-3.1482,-3.1482,-3.1482,-3.1482,-3.1482,-3.1482,-3.1482,-3.1482,-3.1482,-3.1482,-3.1289,-2.9987,-2.9338,-2.8736,-2.7408,-2.6797,-2.6533,-2.6533,-2.6533,-2.6533,-2.6533,-2.6533,-2.6533,-2.6533,-2.6533,-2.6533,-2.6533,-2.6533,-2.6533,-2.6533,-2.6533,-2.5977,-2.4498,-2.387,-2.3001,-2.1501,-2.1278,-2.108,-2.0624,-2.0566,-2.0566,-2.0566,-2.0566,-2.0566,-2.0566,-2.0566,-2.0566,-2.0566,-2.0566,-2.0566,-2.0566,-2.0566,-2.0566,-2.0566,-2.0566,-2.0566,-2.0566,-2.0566,-2.0566,-0.6338,-0.7061,-0.8064,-0.9055,-1.1199,-1.3616,-1.5892,-1.8815,-2.1793,-2.4452,-2.6741,-2.8871,-3.0697,-3.242,-3.3844,-3.4879,-3.6668,-3.8174,-3.8808,-3.9685,-4.0315,-4.0508,-4.0543,-4.0543,-4.0543,-4.0543,-4.0543,-4.0489,-4.0258,-3.9793,-3.9142,-3.8836,-3.8707,-3.8707,-3.8707,-3.8707,-3.8707,-3.8279,-3.7778,-3.7174,-3.6766,-3.6231,-3.5622,-3.5622,-3.5622,-3.556,-3.502,-3.4432,-3.3756,-3.3104,-3.2368,-3.1717,-3.1569,-3.1482,-3.1482,-3.1482,-3.1482,-3.1482,-3.1482,-3.1482,-3.1452,-3.1304,-3.126,-3.0995,-2.945,-2.885,-2.8386,-2.6917,-2.6533,-2.6533,-2.6533,-2.6533,-2.6533,-2.6533,-2.6533,-2.6533,-2.6533,-2.6533,-2.6533,-2.6533,-2.6321,-2.6189,-2.6189,-2.5977,-2.5517,-2.451,-2.3694,-2.2797,-2.1818,-2.1073,-2.0566,-2.0566,-2.0566,-2.0566,-2.0566,-2.0566,-2.0566,-2.0566,-2.0566,-2.0566,-2.0566,-2.0566,-2.0566,-2.0566,-2.0566,-2.0566,-2.0566,-2.0566,-2.0566,-2.0566,-2.0566,-2.0459,-0.6338,-0.7061,-0.8026,-0.9063,-1.0159,-1.1992,-1.5592,-1.7795,-2.0217,-2.4207,-2.6764,-2.8966,-3.1134,-3.2317,-3.3578,-3.5486,-3.6197,-3.7142,-3.8977,-3.9342,-3.9723,-4.0581,-4.0677,-4.0677,-4.0677,-4.0677,-4.0639,-4.0508,-4.0258,-3.9793,-3.9142,-3.8836,-3.8707,-3.8707,-3.8707,-3.8707,-3.8707,-3.8652,-3.8151,-3.7192,-3.7143,-3.6593,-3.5622,-3.5622,-3.5622,-3.5622,-3.5526,-3.5133,-3.4447,-3.3805,-3.3089,-3.2428,-3.1747,-3.1482,-3.1482,-3.1482,-3.1482,-3.1482,-3.1482,-3.1482,-3.1407,-3.0629,-3.0381,-3.022,-2.9291,-2.8455,-2.7636,-2.6772,-2.6533,-2.6533,-2.6533,-2.6533,-2.6533,-2.6533,-2.6533,-2.6533,-2.6533,-2.6533,-2.6533,-2.6533,-2.5741,-2.5152,-2.5152,-2.4381,-2.342,-2.2457,-2.2189,-2.1808,-2.0858,-2.0654,-2.0566,-2.0566,-2.0566,-2.0566,-2.0566,-2.0566,-2.0566,-2.0566,-2.0566,-2.0566,-2.0566,-2.0566,-2.0566,-2.0566,-2.0566,-2.0566,-2.0566,-2.0566,-2.0566,-2.0566,-2.0566,-2.0052,-0.7223,-0.7949,-0.8932,-0.9932,-1.1338,-1.3418,-1.7045,-1.9617,-2.2351,-2.6483,-2.8434,-3.009,-3.2366,-3.3087,-3.3808,-3.5228,-3.602,-3.6958,-3.8479,-3.9142,-3.98,-4.0658,-4.0762,-4.076,-4.076,-4.0711,-4.0639,-4.0508,-4.0258,-3.9749,-3.8961,-3.8943,-3.8854,-3.8707,-3.8707,-3.8475,-3.7973,-3.7973,-3.7223,-3.575,-3.5763,-3.5262,-3.4287,-3.4287,-3.4287,-3.4287,-3.4287,-3.3913,-3.3247,-3.2579,-3.1968,-3.1289,-3.0615,-3.0352,-3.0352,-3.0352,-3.0352,-3.0352,-3.0352,-3.0352,-3.0322,-2.9973,-2.9472,-2.8848,-2.8373,-2.8,-2.7516,-2.6759,-2.6533,-2.6533,-2.6533,-2.6533,-2.6533,-2.6533,-2.6533,-2.6533,-2.6533,-2.6533,-2.6533,-2.6533,-2.6189,-2.5709,-2.5137,-2.4682,-2.388,-2.2264,-2.2012,-2.17,-2.0751,-2.0566,-2.0566,-2.0566,-2.0566,-2.0566,-2.0566,-2.0566,-2.0566,-2.0566,-2.0566,-2.0566,-2.0566,-2.0566,-2.0566,-2.0566,-2.0566,-2.0566,-2.0566,-2.0566,-2.0566,-2.0557,-1.9936,-1.9425,-0.8264,-0.8971,-0.9953,-1.0953,-1.2941,-1.543,-1.8754,-2.1742,-2.4833,-2.8444,-2.9966,-3.1274,-3.3248,-3.3743,-3.4162,-3.5066,-3.5803,-3.6649,-3.7764,-3.8674,-3.9525,-4.038,-4.0691,-4.0859,-4.0859,-4.0771,-4.0562,-4.02,-3.9973,-3.9438,-3.8466,-3.8553,-3.8469,-3.8114,-3.8114,-3.7796,-3.715,-3.7161,-3.6435,-3.5005,-3.4853,-3.437,-3.3624,-3.3463,-3.3386,-3.3386,-3.3386,-3.3014,-3.237,-3.175,-3.1083,-3.0417,-2.9837,-2.9592,-2.9592,-2.9592,-2.9592,-2.9592,-2.9592,-2.9592,-2.9548,-2.9046,-2.8403,-2.7621,-2.704,-2.7049,-2.725,-2.6665,-2.6333,-2.6214,-2.6214,-2.6096,-2.5977,-2.5977,-2.5977,-2.5977,-2.5977,-2.5977,-2.5977,-2.5977,-2.5741,-2.5308,-2.45,-2.4083,-2.3345,-2.1818,-2.1602,-2.1376,-2.0664,-2.0566,-2.0566,-2.0566,-2.0566,-2.0566,-2.0566,-2.0566,-2.0566,-2.0566,-2.0566,-2.0566,-2.0566,-2.0566,-2.0566,-2.0566,-2.0566,-2.0566,-2.0566,-2.0256,-2.0139,-2.013,-1.9022,-1.831,-0.9299,-0.9939,-1.0911,-1.1896,-1.4525,-1.7633,-2.053,-2.3734,-2.6857,-2.9294,-3.0954,-3.2316,-3.3484,-3.4126,-3.468,-3.522,-3.5539,-3.6015,-3.6894,-3.7754,-3.8652,-3.9609,-4.0469,-4.0996,-4.0996,-4.083,-4.0335,-3.9477,-3.9342,-3.8789,-3.7571,-3.7526,-3.7262,-3.6748,-3.6723,-3.6583,-3.6315,-3.6297,-3.6038,-3.5477,-3.5013,-3.4562,-3.4081,-3.3601,-3.339,-3.339,-3.339,-3.3019,-3.2349,-3.1749,-3.1084,-3.0441,-2.9852,-2.9612,-2.9612,-2.9612,-2.9612,-2.9612,-2.9612,-2.9612,-2.9342,-2.773,-2.7229,-2.691,-2.5329,-2.5623,-2.6533,-2.6533,-2.6083,-2.5623,-2.5623,-2.5188,-2.4824,-2.4824,-2.4824,-2.4824,-2.4824,-2.4824,-2.4824,-2.4824,-2.4044,-2.3201,-2.28,-2.1934,-2.1083,-2.0664,-2.0644,-2.0644,-2.0566,-2.0566,-2.0566,-2.0566,-2.0566,-2.0566,-2.0566,-2.0566,-2.0566,-2.0566,-2.0566,-2.0566,-2.0566,-2.0566,-2.0566,-2.0566,-2.0566,-2.0566,-2.0566,-1.9531,-1.9031,-1.9022,-1.7847,-1.6725,-1.5897,-1.6863,-1.7862,-1.86,-2.021,-2.2188,-2.4389,-2.6438,-2.8711,-3.1476,-3.2425,-3.3146,-3.4477,-3.4854,-3.5131,-3.5628,-3.5779,-3.6133,-3.7012,-3.7402,-3.8125,-3.9473,-4.0449,-4.0762,-4.0176,-4.0054,-3.9599,-3.8589,-3.8488,-3.8036,-3.7007,-3.6944,-3.6961,-3.6977,-3.6802,-3.6398,-3.5772,-3.5524,-3.4916,-3.3917,-3.3447,-3.2979,-3.2508,-3.2105,-3.1913,-3.1913,-3.1913,-3.1788,-3.1523,-3.0909,-3.0337,-2.9693,-2.9057,-2.8617,-2.8253,-2.8253,-2.8253,-2.8253,-2.8253,-2.8253,-2.8047,-2.7045,-2.663,-2.6304,-2.5344,-2.5144,-2.5375,-2.5375,-2.5176,-2.5056,-2.5039,-2.4937,-2.4823,-2.4823,-2.4823,-2.4823,-2.4823,-2.4823,-2.4621,-2.4004,-2.3653,-2.3018,-2.1635,-2.1158,-2.0654,-1.983,-1.9724,-1.983,-2.0052,-2.0139,-2.0246,-2.0557,-2.0566,-2.0566,-2.0566,-2.0566,-2.0566,-2.0566,-2.0566,-2.0566,-2.0566,-2.0566,-2.0566,-2.0566,-2.0566,-2.0566,-2.0566,-2.0246,-1.932,-1.7796,-1.7483,-1.6353,-2.1019,-2.1531,-2.2497,-2.2885,-2.4567,-2.6446,-2.761,-2.9343,-3.1229,-3.309,-3.3688,-3.4148,-3.5135,-3.5324,-3.5468,-3.5836,-3.586,-3.6007,-3.6552,-3.695,-3.7667,-3.8959,-3.9652,-3.9805,-3.9258,-3.9219,-3.8807,-3.7831,-3.7718,-3.728,-3.6329,-3.6271,-3.6348,-3.6496,-3.6255,-3.5759,-3.5008,-3.4797,-3.4265,-3.3405,-3.2966,-3.2519,-3.2032,-3.163,-3.1331,-3.119,-3.119,-3.119,0.0,-3.0281,-2.9756,-2.9311,-2.8511,-2.7921,-2.7625,-2.7625,-2.7625,-2.7625,-2.7625,-2.7419,-2.706,-2.6329,-2.5591,-2.4957,-2.4507,-2.4557,-2.4772,-2.4772,-2.4645,-2.4526,-2.4484,-2.4322,-2.4185,-2.4185,-2.4185,-2.4185,-2.4185,-2.4185,-2.3901,-2.3053,-2.2936,-2.2408,-2.0751,-2.0493,-2.0192,-1.9403,-1.93,-1.9393,-1.9609,-1.9659,-1.9793,-2.0064,-2.008,-2.0111,-2.0107,-2.0381,-2.0566,-2.0566,-2.0566,-2.0566,-2.0566,-2.0566,-2.0566,-2.0566,-2.0175,-1.9972,-1.9972,-1.9136,-1.788,-1.6088,-1.6057,-1.5346,0.0,-2.4668,-2.5478,-2.5496,-2.7922,-3.0307,-3.0312,-3.2273,0.0,-3.418,-3.4684,-3.5208,-3.5469,-3.5567,-3.5661,-3.5845,-3.5762,-3.5682,-3.5699,-3.6441,-3.7284,-3.8108,-3.8312,-3.8377,-3.832,-3.8301,-3.7988,-3.7168,-3.6989,-3.6543,-3.565,-3.5611,-3.5545,-3.5416,-3.5166,-3.477,-3.4231,-3.4163,-3.3981,-3.3715,-3.3258,-3.2791,-3.2372,-3.1884,-3.1438,-3.1067,-3.105,-3.1033,-3.0965,-2.9794,-2.9297,-2.9149,-2.798,-2.7515,-2.7434,-2.7434,-2.7434,-2.7434,-2.7434,-2.703,-2.6293,-2.5502,-2.4243,-2.3053,-2.3053,-2.379,-2.4658,-2.4658,-2.4309,-2.3974,-2.3974,-2.3495,-2.3078,-2.3078,-2.3078,-2.3065,-2.304,-2.304,-2.276,-2.1862,-2.1753,-2.1327,-1.9975,-1.9776,-1.9677,-1.9223,-1.9213,-1.9213,-1.9223,-1.9282,-1.9266,-1.9298,-1.9321,-1.926,-1.9268,-2.0039,-2.0557,-2.0557,-2.0557,-2.0566,-2.0566,-2.0498,-2.0508,-2.0508,-1.9441,-1.8841,-1.887,-1.6846,-1.5242,-1.4232,-1.4212,-1.4179,-3.2302,0.0,-3.098,-3.1428,-3.2353,-3.3199,0.0,-3.4175,-3.4895,-3.5139,-3.53,-3.5448,-3.5564,-3.5593,-3.563,-3.5727,-3.5546,-3.5437,-3.5596,-3.6287,-3.6897,-3.7266,-3.7866,-3.8054,-3.7538,-3.748,-3.7129,-3.6269,-3.6179,-3.6024,-3.5692,-3.5631,-3.5282,-3.4601,-3.4466,-3.4457,-3.459,-3.3706,-3.314,-3.2875,-3.1846,-3.1291,-3.1178,-3.0394,-2.9984,-2.99,-2.9638,-2.9515,-2.9482,-2.8787,-2.8196,-2.773,-2.7031,-2.6468,-2.6082,-2.6082,-2.6082,-2.6082,-2.6082,-2.5973,-2.5617,-2.4386,-2.3306,-2.2468,-2.2468,-2.2955,-2.3482,-2.3482,-2.3384,-2.3286,-2.3286,-2.3175,-2.3078,-2.3078,-2.3078,-2.2942,-2.2333,-2.2164,-2.1753,-2.0222,-1.9921,-1.9588,-1.8642,-1.8466,-1.8388,-1.8291,-1.8291,-1.8388,-1.8741,-1.8745,-1.8924,-1.9254,-1.9302,-1.9284,-1.9272,-1.9781,-2.0042,-2.0042,-2.044,-2.0566,-2.0566,-1.9846,-1.937,-1.937,-1.8252,-1.7728,-1.7733,-1.7207,-1.6368,-1.53,-1.5303,-1.486,-3.4782,-3.4312,-3.3885,-3.4204,-3.452,-3.4781,-3.493,-3.5037,-3.5156,-3.533,-3.5346,-3.5304,-3.5278,-3.5329,-3.535,-3.5295,-3.5136,-3.5062,-3.5168,-3.5526,-3.5871,-3.6103,-3.6535,-3.6733,-3.6489,-3.6545,-3.6406,-3.5937,-3.5937,-3.5723,-3.5215,-3.5169,-3.47,-3.3722,-3.3667,-3.3667,-3.369,-3.2974,-3.2499,-3.2231,-3.1451,-3.0979,-3.0782,-3.0119,-2.971,-2.9471,-2.9144,-2.8989,-2.8955,-2.8387,-2.7965,-2.7611,-2.6777,-2.627,-2.5948,-2.5704,-2.5612,-2.5612,-2.5612,-2.5186,-2.4471,-2.307,-2.2304,-2.1914,-2.1942,-2.2152,-2.2455,-2.2955,-2.3078,-2.3078,-2.3078,-2.3078,-2.3078,-2.3078,-2.3078,-2.287,-2.2055,-2.1928,-2.136,-1.9639,-1.9309,-1.9026,-1.8183,-1.8008,-1.8008,-1.8008,-1.8008,-1.8095,-1.8291,-1.8291,-1.8388,-1.8662,-1.8662,-1.8662,-1.8662,-1.9092,-1.9428,-1.9572,-1.9478,-1.9391,-1.9391,-1.8369,-1.7672,-1.7332,-1.6664,-1.6217,-1.5834,-1.5834,-1.5536,-1.4958,-1.4958,-1.4663,-3.4645,-3.4745,-3.4841,-3.4941,-3.5191,-3.5369,-3.5305,-3.5154,-3.5055,-3.5103,-3.5078,-3.5001,-3.488,-3.4961,-3.4977,-3.4805,-3.4737,-3.4674,-3.4632,-3.468,-3.4788,-3.5002,-3.5144,-3.5282,-3.5526,-3.573,-3.5868,-3.5876,-3.582,-3.5449,-3.4648,-3.4473,-3.3926,-3.2891,-3.2829,-3.2615,-3.2204,-3.2117,-3.1906,-3.1617,-3.1256,-3.0877,-3.0522,-3.0107,-2.9674,-2.9246,-2.8903,-2.8698,-2.8612,-2.8031,-2.7714,-2.7554,-2.6477,-2.6067,-2.592,-2.5453,-2.5302,-2.5259,-2.5198,-2.4339,-2.3109,-2.1816,-2.1419,-2.1355,-2.1383,-2.146,-2.1675,-2.2623,-2.2874,-2.2857,-2.2857,-2.2857,-2.287,-2.2955,-2.287,-2.2565,-2.1862,-2.162,-2.1035,-1.94,-1.9114,-1.8849,-1.8115,-1.8008,-1.8008,-1.8008,-1.8008,-1.8008,-1.8008,-1.8008,-1.8008,-1.8008,-1.8008,-1.8008,-1.8008,-1.8288,-1.8585,-1.8846,-1.8295,-1.7756,-1.7453,-1.6623,-1.5774,-1.4976,-1.4984,-1.465,-1.3955,-1.4001,-1.4021,-1.4021,-1.4068,-1.4088,-3.3543,-3.3566,-3.3707,-3.4289,-3.4677,-3.4798,-3.4397,-3.4558,-3.4753,-3.4755,-3.4756,-3.4756,-3.4718,-3.4736,-3.4754,-3.4716,-3.4695,-3.4593,-3.4334,-3.4532,-3.4713,-3.4762,-3.4969,-3.5147,-3.5243,-3.5483,-3.5659,-3.5735,-3.5162,-3.4746,-3.4609,-3.3906,-3.3085,-3.2174,-3.2034,-3.1607,-3.0809,-3.1238,-3.1214,-3.0785,-3.0051,-2.9559,-2.926,-2.8865,-2.8479,-2.8117,-2.7742,-2.7368,-2.7029,-2.6522,-2.605,-2.5589,-2.4968,-2.4442,-2.4023,-2.3934,-2.3904,-2.3816,-2.3301,-2.2637,-2.1887,-2.1132,-2.0875,-2.0836,-2.0834,-2.1144,-2.1523,-2.1707,-2.1776,-2.1753,-2.1753,-2.1753,-2.1862,-2.2333,-2.1862,-2.126,-2.0889,-2.0191,-1.94,-1.8378,-1.8193,-1.8183,-1.8018,-1.8008,-1.8008,-1.8008,-1.8008,-1.8008,-1.8008,-1.8008,-1.8008,-1.8008,-1.8008,-1.8008,-1.8008,-1.8086,-1.7791,-1.7037,-1.757,-1.7128,-1.5366,-1.5104,-1.4584,-1.3505,-1.3518,-1.3466,-1.3347,-1.3594,-1.3707,-1.3714,-1.3968,-1.4088,-3.2775,-3.2402,-3.1983,-3.2379,-3.3227,-3.3926,-3.3715,-3.3697,-3.3739,-3.3739,-3.3739,-3.3688,-3.3533,-3.3857,-3.4139,-3.4189,-3.4208,-3.416,-3.4012,-3.4111,-3.4274,-3.44,-3.4538,-3.4751,-3.5119,-3.5282,-3.5265,-3.4961,-3.4711,-3.4145,-3.3242,-3.2812,-3.2207,-3.1328,-3.1246,-3.0987,-3.0506,-3.0737,-3.0674,-3.0273,-2.9681,-2.9333,-2.9182,-2.8659,-2.8214,-2.7872,-2.7489,-2.708,-2.6674,-2.6455,-2.6101,-2.5597,-2.5051,-2.4486,-2.4008,-2.3713,-2.3595,-2.3477,-2.2483,-2.1946,-2.1536,-2.0592,-2.0245,-2.0233,-2.0233,-2.0412,-2.0592,-2.0592,-2.1008,-2.1516,-2.1516,-2.1516,-2.1448,-2.133,-2.0943,-2.0404,-1.9382,-1.8905,-1.8368,-1.7474,-1.73,-1.7387,-1.7648,-1.7658,-1.7745,-1.7998,-1.8008,-1.8008,-1.8008,-1.8008,-1.8008,-1.8008,-1.7569,-1.7207,-1.7207,-1.6793,-1.6298,-1.5869,-1.5694,-1.4996,-1.3518,-1.345,-1.3307,-1.2953,-1.2959,-1.3046,-1.3213,-1.3347,-1.3407,-1.3414,-1.3714,-1.3848,-3.1649,-3.11,-3.043,-3.0523,-3.1638,-3.269,-3.2726,-3.2667,-3.2634,-3.278,-3.2798,-3.2742,-3.2533,-3.2967,-3.3395,-3.3486,-3.3504,-3.3504,-3.3504,-3.3504,-3.3597,-3.3931,-3.4012,-3.427,-3.4852,-3.507,-3.4899,-3.423,-3.4161,-3.3519,-3.2037,-3.1793,-3.1387,-3.0723,-3.0703,-3.0654,-3.0548,-3.0516,-3.0321,-3.0002,-2.9697,-2.949,-2.937,-2.8883,-2.8411,-2.8007,-2.7613,-2.7216,-2.6826,-2.6725,-2.6421,-2.5965,-2.5422,-2.4795,-2.4141,-2.3728,-2.3595,-2.3404,-2.2163,-2.168,-2.1509,-2.0233,-1.9798,-1.9798,-1.9798,-1.9798,-1.9798,-1.9798,-2.0425,-2.1082,-2.1082,-2.0965,-2.072,-2.0322,-1.9937,-1.9349,-1.8236,-1.7849,-1.7497,-1.6807,-1.6713,-1.6797,-1.7147,-1.7235,-1.7341,-1.7627,-1.7703,-1.7713,-1.7705,-1.7705,-1.7754,-1.7852,-1.6999,-1.639,-1.628,-1.5367,-1.4879,-1.4879,-1.3954,-1.3025,-1.2305,-1.2305,-1.2412,-1.2714,-1.2721,-1.2759,-1.2999,-1.3066,-1.3106,-1.3113,-1.3407,-1.354,-2.9597,-2.9553,-2.9508,-2.9524,-3.0179,-3.0929,-3.1028,-3.1401,-3.1865,-3.2431,-3.2533,-3.2533,-3.2517,-3.2533,-3.2565,-3.2583,-3.2583,-3.2583,-3.2583,-3.2583,-3.2777,-3.3225,-3.3478,-3.3813,-3.4232,-3.4794,-3.474,-3.3898,-3.3371,-3.2733,-3.1854,-3.1172,-3.0762,-3.0703,-3.0703,-3.0703,-3.0681,-3.0552,-3.0321,-3.0002,-2.9985,-2.9756,-2.9389,-2.9352,-2.8975,-2.8341,-2.7989,-2.764,-2.7233,-2.6843,-2.6421,-2.5965,-2.5422,-2.4572,-2.3668,-2.361,-2.3595,-2.3404,-2.2163,-2.168,-2.1509,-2.0233,-1.9798,-1.9798,-1.9798,-1.9798,-1.9798,-1.9798,-1.9875,-1.99,-1.99,-1.9379,-1.9025,-1.9544,-1.8501,-1.7504,-1.7943,-1.737,-1.6791,-1.6722,-1.6711,-1.6722,-1.6722,-1.6777,-1.6738,-1.6782,-1.6815,-1.677,-1.6797,-1.6763,-1.6982,-1.7393,-1.657,-1.5745,-1.5342,-1.4378,-1.3818,-1.3818,-1.2952,-1.2372,-1.2305,-1.2305,-1.2311,-1.2338,-1.2338,-1.2345,-1.2365,-1.2645,-1.2856,-1.2862,-1.3093,-1.324,-2.9316,-2.8857,-2.8352,-2.8732,-2.8809,-2.8989,-2.9778,-3.0103,-3.0294,-3.0533,-3.0886,-3.1308,-3.1951,-3.2057,-3.2161,-3.2451,-3.2484,-3.2484,-3.2484,-3.2484,-3.255,-3.2745,-3.313,-3.3469,-3.3781,-3.3807,-3.3524,-3.2843,-3.2267,-3.161,-3.0852,-3.0653,-3.0603,-3.0691,-3.0702,-3.0702,-3.0693,-3.0653,-3.0516,-3.0302,-3.011,-2.9846,-2.9567,-2.9455,-2.9035,-2.8388,-2.8278,-2.7871,-2.73,-2.7131,-2.6657,-2.5965,-2.5422,-2.4765,-2.4111,-2.4111,-2.3904,-2.3404,-2.2163,-2.168,-2.1509,-2.0233,-1.9798,-1.9798,-1.9798,-1.9798,-1.9798,-1.9798,-1.9798,-1.9798,-1.9798,-1.9608,-1.9337,-1.9095,-1.8227,-1.735,-1.7101,-1.6448,-1.5888,-1.5888,-1.5888,-1.5966,-1.628,-1.6317,-1.6416,-1.6634,-1.6691,-1.6694,-1.6719,-1.6256,-1.6047,-1.6206,-1.4887,-1.3739,-1.291,-1.2692,-1.2599,-1.2599,-1.2417,-1.2305,-1.2305,-1.2305,-1.2305,-1.2305,-1.2305,-1.2305,-1.2305,-1.2418,-1.2472,-1.2478,-1.2779,-1.2919,-2.8764,-2.8222,-2.771,-2.8091,-2.791,-2.781,-2.8622,-2.8996,-2.918,-2.9361,-2.9717,-3.026,-3.1172,-3.1325,-3.1476,-3.2021,-3.2092,-3.2092,-3.2092,-3.2092,-3.2162,-3.2264,-3.2565,-3.296,-3.3423,-3.308,-3.2612,-3.2125,-3.1519,-3.0891,-3.0171,-3.0314,-3.0474,-3.0624,-3.0687,-3.0703,-3.0699,-3.0696,-3.0642,-3.0567,-3.0288,-3.0017,-2.9801,-2.9583,-2.9204,-2.8695,-2.8489,-2.8108,-2.7644,-2.7413,-2.6792,-2.5949,-2.5404,-2.4869,-2.4378,-2.4219,-2.3801,-2.3169,-2.2076,-2.1578,-2.125,-2.0156,-1.9798,-1.9798,-1.9798,-1.9798,-1.9798,-1.9798,-1.9641,-1.9429,-1.942,-1.9295,-1.8929,-1.8164,-1.7433,-1.6759,-1.625,-1.5732,-1.541,-1.541,-1.541,-1.5498,-1.581,-1.59,-1.5875,-1.5933,-1.5894,-1.5804,-1.5554,-1.5025,-1.4672,-1.4466,-1.3489,-1.2504,-1.1491,-1.161,-1.173,-1.173,-1.2004,-1.2204,-1.2298,-1.2305,-1.2305,-1.2305,-1.2305,-1.2305,-1.2305,-1.2305,-1.2305,-1.2305,-1.2512,-1.2605,-2.776,-2.7625,-2.7625,-2.7625,-2.7625,-2.7625,-2.7625,-2.8042,-2.8638,-2.9271,-2.9406,-2.9585,-3.0166,-3.0309,-3.0477,-3.1095,-3.119,-3.119,-3.119,-3.119,-3.1351,-3.1752,-3.1789,-3.2144,-3.3105,-3.2693,-3.2226,-3.1827,-3.1298,-3.0686,-3.0022,-3.012,-3.0285,-3.0498,-3.0638,-3.0693,-3.0696,-3.07,-3.0696,-3.0693,-3.0561,-3.0337,-2.999,-2.9784,-2.9576,-2.9352,-2.8695,-2.8411,-2.8336,-2.76,-2.6792,-2.5967,-2.5414,-2.4896,-2.4341,-2.3815,-2.3213,-2.2599,-2.1932,-2.1299,-2.0669,-2.0028,-1.9786,-1.9786,-1.9786,-1.9798,-1.9798,-1.9798,-1.9291,-1.8733,-1.8689,-1.816,-1.7417,-1.6684,-1.597,-1.5396,-1.5438,-1.541,-1.541,-1.541,-1.541,-1.541,-1.541,-1.541,-1.5118,-1.4323,-1.4213,-1.3914,-1.307,-1.3009,-1.2771,-1.2213,-1.263,-1.2497,-1.1485,-1.1416,-1.1423,-1.1423,-1.1697,-1.1997,-1.2285,-1.2305,-1.2305,-1.2305,-1.2305,-1.2305,-1.2305,-1.2305,-1.2305,-1.2305,-1.2305,-1.2305,-2.776,-2.7625,-2.7625,-2.7625,-2.7625,-2.7625,-2.7625,-2.771,-2.8042,-2.8638,-2.8779,-2.8966,-2.954,-3.0021,-3.0351,-3.0518,-3.0918,-3.119,-3.119,-3.119,-3.1252,-3.1351,-3.164,-3.1707,-3.1458,-3.1345,-3.0993,-3.0305,-3.0009,-2.9795,-2.9589,-2.9744,-2.9985,-3.0285,-3.0327,-3.0457,-3.0693,-3.0693,-3.0703,-3.0696,-3.0665,-3.0477,-3.0148,-2.998,-2.9717,-2.94,-2.9181,-2.8847,-2.8336,-2.76,-2.6792,-2.5984,-2.5799,-2.5196,-2.4368,-2.4234,-2.3816,-2.326,-2.262,-2.1752,-2.0767,-2.0148,-1.9355,-1.8681,-1.8681,-1.8946,-1.9265,-1.9265,-1.9374,-1.923,-1.8199,-1.7745,-1.7531,-1.7324,-1.6716,-1.6156,-1.6177,-1.5758,-1.541,-1.541,-1.541,-1.541,-1.541,-1.541,-1.5294,-1.505,-1.4569,-1.3717,-1.232,-1.2143,-1.1872,-1.1171,-1.1205,-1.1139,-1.088,-1.1002,-1.1122,-1.1122,-1.1396,-1.169,-1.1984,-1.2191,-1.2305,-1.2305,-1.2305,-1.2305,-1.2305,-1.2305,-1.2305,-1.2305,-1.2305,-1.2305,-2.814,-2.776,-2.7625,-2.7625,-2.7625,-2.7625,-2.7625,-2.7625,-2.771,-2.8042,-2.814,-2.8319,-2.8904,-2.9316,-2.9673,-2.9892,-3.0251,-3.0477,-3.0477,-3.0699,-3.074,-3.0518,-3.1145,-3.1239,-3.0434,-3.0287,-3.003,-2.9456,-2.9032,-2.8911,-2.9151,-2.928,-2.9583,-3.0107,-3.0163,-3.0337,-3.0628,-3.0677,-3.0693,-3.0702,-3.0708,-3.0589,-3.0388,-3.0186,-2.9916,-2.9626,-2.9465,-2.9012,-2.8377,-2.777,-2.7114,-2.6472,-2.6158,-2.5294,-2.43,-2.4079,-2.3325,-2.2361,-2.1788,-2.096,-2.0074,-1.9455,-1.8777,-1.8181,-1.8188,-1.8246,-1.8335,-1.8336,-1.8169,-1.7786,-1.6883,-1.6427,-1.6293,-1.6623,-1.6358,-1.6036,-1.6036,-1.569,-1.541,-1.541,-1.541,-1.5294,-1.4991,-1.4932,-1.4688,-1.4076,-1.3295,-1.2451,-1.1469,-1.1351,-1.117,-1.0618,-1.0624,-1.0624,-1.0624,-1.0722,-1.0822,-1.0822,-1.1096,-1.1336,-1.1516,-1.1917,-1.2131,-1.2131,-1.2245,-1.2305,-1.2305,-1.2305,-1.2305,-1.2305,-1.2305,-1.2305,-2.8701,-2.8091,-2.7675,-2.761,-2.7625,-2.7625,-2.7625,-2.7625,-2.7625,-2.7625,-2.7625,-2.776,-2.8319,-2.8463,-2.8701,-2.9225,-2.9361,-2.9406,-2.9406,-2.9848,-3.0021,-2.9451,-3.0393,-3.0667,-2.9745,-2.9503,-2.929,-2.8965,-2.8287,-2.8148,-2.8699,-2.8745,-2.9105,-2.987,-3.0062,-3.0252,-3.0424,-3.0603,-3.0684,-3.0664,-3.0683,-3.0704,-3.0677,-3.0372,-3.0132,-2.9939,-2.9537,-2.8994,-2.8377,-2.8075,-2.762,-2.7063,-2.6238,-2.5171,-2.4029,-2.3522,-2.226,-2.0764,-2.0175,-1.9539,-1.8924,-1.8369,-1.8135,-1.8029,-1.8039,-1.7713,-1.7279,-1.7255,-1.6329,-1.538,-1.5236,-1.4684,-1.438,-1.5107,-1.5322,-1.5371,-1.54,-1.541,-1.541,-1.541,-1.541,-1.5177,-1.4451,-1.4273,-1.3657,-1.2012,-1.1163,-1.0681,-1.0624,-1.0624,-1.0624,-1.0624,-1.0624,-1.0624,-1.0624,-1.0624,-1.0624,-1.0624,-1.0808,-1.0955,-1.0955,-1.1516,-1.183,-1.1759,-1.1966,-1.2111,-1.2037,-1.199,-1.2003,-1.2003,-1.2003,-1.2003,-2.8779,-2.8431,-2.8189,-2.771,-2.7625,-2.7625,-2.7625,-2.7625,-2.7625,-2.7625,-2.7625,-2.7625,-2.776,-2.8189,-2.8559,-2.8685,-2.9088,-2.9406,-2.9406,-2.9496,-2.954,-2.9406,-2.9629,-2.943,-2.8566,-2.8652,-2.851,-2.7739,-2.7813,-2.7964,-2.8084,-2.8332,-2.8669,-2.9042,-2.9549,-2.9863,-2.9947,-3.0337,-3.0494,-3.0397,-3.0602,-3.0661,-3.0622,-3.049,-3.0201,-2.9748,-2.9265,-2.8847,-2.837,-2.8311,-2.7313,-2.5782,-2.5605,-2.4605,-2.3217,-2.2708,-2.2269,-2.184,-2.0958,-1.9989,-1.8976,-1.8443,-1.7631,-1.6872,-1.687,-1.7118,-1.7251,-1.6749,-1.6716,-1.6604,-1.5483,-1.5081,-1.4882,-1.4464,-1.4668,-1.501,-1.5342,-1.541,-1.541,-1.541,-1.541,-1.5352,-1.5167,-1.4628,-1.3657,-1.2012,-1.1648,-1.1288,-1.0681,-1.0624,-1.0624,-1.0624,-1.0624,-1.0624,-1.0624,-1.0624,-1.0624,-1.0624,-1.0678,-1.0719,-1.0719,-1.1209,-1.1171,-1.0469,-1.0724,-1.0489,-0.9761,-0.9878,-0.9976,-0.9976,-0.9976,-0.9976,-2.9569,-2.8966,-2.8383,-2.776,-2.7625,-2.7625,-2.7625,-2.7625,-2.7625,-2.7625,-2.7625,-2.7625,-2.7625,-2.786,-2.8091,-2.8091,-2.8304,-2.8543,-2.8543,-2.8779,-2.8873,-2.8575,-2.9042,-2.8846,-2.7438,-2.7951,-2.7871,-2.6775,-2.7066,-2.7409,-2.7589,-2.7776,-2.8165,-2.8773,-2.9101,-2.942,-2.9747,-3.003,-3.0186,-3.0259,-3.0431,-3.054,-3.0605,-3.0535,-3.0213,-2.9678,-2.9451,-2.9082,-2.8636,-2.7931,-2.7032,-2.6011,-2.5264,-2.3989,-2.2531,-2.2308,-2.171,-2.0941,-2.0215,-1.9373,-1.8547,-1.7986,-1.7238,-1.6522,-1.6522,-1.6536,-1.639,-1.5775,-1.5589,-1.5411,-1.4343,-1.4114,-1.4064,-1.3883,-1.416,-1.4531,-1.4746,-1.4961,-1.4993,-1.4639,-1.4683,-1.4569,-1.3828,-1.2992,-1.2205,-1.1351,-1.1226,-1.1045,-1.0618,-1.0624,-1.0624,-1.0624,-1.0624,-1.0624,-1.0624,-1.0238,-0.9977,-0.9977,-0.9582,-0.9326,-0.9326,-0.9646,-0.9787,-0.9917,-1.0172,-0.9856,-0.9103,-0.9153,-0.9265,-0.9296,-0.9296,-0.9296,-3.0534,-2.948,-2.8367,-2.786,-2.7675,-2.7625,-2.7625,-2.7625,-2.7625,-2.7625,-2.7625,-2.7625,-2.7625,-2.7625,-2.7625,-2.7625,-2.7625,-2.7625,-2.7625,-2.8042,-2.814,-2.766,-2.8496,-2.8369,-2.6545,-2.7269,-2.7254,-2.5967,-2.621,-2.6624,-2.7066,-2.7112,-2.759,-2.8494,-2.8704,-2.9015,-2.9476,-2.968,-2.9875,-3.0056,-3.0209,-3.0386,-3.0605,-3.0541,-3.0257,-2.9777,-2.9738,-2.9375,-2.875,-2.7526,-2.6763,-2.6269,-2.4997,-2.3511,-2.2118,-2.1987,-2.1085,-1.9839,-1.9155,-1.8535,-1.8027,-1.7463,-1.6951,-1.6522,-1.6522,-1.6095,-1.5454,-1.488,-1.4283,-1.3637,-1.3065,-1.2881,-1.2969,-1.332,-1.3549,-1.3787,-1.4048,-1.4424,-1.4521,-1.3902,-1.4001,-1.3717,-1.2074,-1.1226,-1.0744,-1.0624,-1.0624,-1.0624,-1.0624,-1.0624,-1.0561,-1.0364,-1.0364,-1.0301,-1.0168,-0.946,-0.9075,-0.9075,-0.842,-0.8027,-0.8027,-0.8027,-0.8375,-0.9175,-0.9423,-0.9222,-0.8486,-0.8558,-0.8611,-0.8713,-0.8751,-0.877,-3.097,-2.9691,-2.8463,-2.8415,-2.7993,-2.7625,-2.7625,-2.7625,-2.7625,-2.7625,-2.7625,-2.7625,-2.7625,-2.7625,-2.7625,-2.7625,-2.7625,-2.7625,-2.7625,-2.7675,-2.766,-2.7625,-2.776,-2.7461,-2.6516,-2.6554,-2.6262,-2.5371,-2.5373,-2.5635,-2.6139,-2.6455,-2.6867,-2.7465,-2.8363,-2.874,-2.8585,-2.9324,-2.9642,-2.9514,-2.9989,-3.0346,-3.0605,-3.0583,-3.0414,-3.0126,-2.9845,-2.9139,-2.8199,-2.8003,-2.6663,-2.469,-2.4496,-2.3534,-2.2182,-2.1437,-2.1006,-2.0616,-1.9346,-1.8535,-1.8027,-1.7463,-1.6951,-1.6522,-1.6522,-1.6095,-1.5454,-1.488,-1.4283,-1.3637,-1.3065,-1.2881,-1.2891,-1.2949,-1.2525,-1.248,-1.3806,-1.4126,-1.4272,-1.4596,-1.4417,-1.3717,-1.2074,-1.171,-1.1406,-1.0681,-1.0624,-1.0624,-1.0624,-1.0624,-1.0301,-0.953,-0.9466,-0.9139,-0.8415,-0.8221,-0.8156,-0.8156,-0.8091,-0.8027,-0.8027,-0.8027,-0.7712,-0.7086,-0.7283,-0.6923,-0.6062,-0.6335,-0.6406,-0.6432,-0.6652,-0.6718,-3.1206,-2.9992,-2.8919,-2.8606,-2.8042,-2.7625,-2.7625,-2.7625,-2.7458,-2.7086,-2.6982,-2.7086,-2.7509,-2.7255,-2.6982,-2.6982,-2.6654,-2.6375,-2.6375,-2.6707,-2.6982,-2.6982,-2.7357,-2.715,-2.6077,-2.6198,-2.5936,-2.4846,-2.5012,-2.5297,-2.554,-2.5983,-2.6404,-2.6819,-2.7802,-2.8254,-2.8129,-2.8911,-2.9415,-2.957,-2.9994,-3.0317,-3.0546,-3.0579,-3.0447,-3.0198,-3.0048,-2.9327,-2.8202,-2.7503,-2.6282,-2.4751,-2.3816,-2.2945,-2.2108,-2.1552,-2.1039,-2.0516,-1.9884,-1.8999,-1.8066,-1.7827,-1.7188,-1.6423,-1.6095,-1.582,-1.5398,-1.4457,-1.4003,-1.3637,-1.3065,-1.2881,-1.2774,-1.2393,-1.203,-1.1863,-1.2171,-1.2474,-1.2636,-1.2638,-1.2206,-1.1677,-1.0963,-1.0988,-1.0989,-1.0618,-1.0624,-1.0624,-1.0624,-1.0624,-1.0434,-1.0047,-0.9594,-0.9139,-0.8748,-0.7832,-0.7302,-0.7293,-0.6789,-0.6535,-0.6535,-0.6535,-0.6338,-0.6009,-0.6539,-0.6368,-0.5589,-0.5722,-0.5867,-0.603,-0.6098,-0.6176,-3.1485,-3.0303,-2.9271,-2.8826,-2.8174,-2.7625,-2.7625,-2.7625,-2.7408,-2.6669,-2.651,-2.6616,-2.6967,-2.6602,-2.6229,-2.6229,-2.5728,-2.5398,-2.5398,-2.5837,-2.6229,-2.6229,-2.6707,-2.6571,-2.542,-2.5694,-2.5438,-2.4291,-2.4592,-2.4855,-2.4989,-2.5503,-2.5983,-2.637,-2.7265,-2.7754,-2.7754,-2.8482,-2.9123,-2.9644,-2.9942,-3.0206,-3.0424,-3.054,-3.0478,-3.0285,-3.0056,-2.9295,-2.8123,-2.6949,-2.5838,-2.4772,-2.3424,-2.2643,-2.2207,-2.1774,-2.1134,-2.0449,-2.0348,-1.9317,-1.8106,-1.8106,-1.7394,-1.6423,-1.5964,-1.5588,-1.5186,-1.4272,-1.3826,-1.3467,-1.3017,-1.2774,-1.2461,-1.1931,-1.1516,-1.1216,-1.0864,-1.1154,-1.1333,-1.0844,-1.048,-1.026,-1.01,-1.0109,-1.0273,-1.0548,-1.0231,-1.004,-1.0238,-1.0098,-0.9824,-0.9633,-0.9041,-0.8527,-0.8355,-0.7116,-0.6392,-0.6384,-0.5745,-0.5428,-0.5428,-0.5428,-0.5428,-0.5428,-0.6009,-0.6074,-0.5532,-0.5569,-0.5701,-0.5918,-0.5993,-0.6091,-3.188,-3.0606,-2.9406,-2.9361,-2.8496,-2.7625,-2.7625,-2.7625,-2.7408,-2.6669,-2.651,-2.6283,-2.5618,-2.5508,-2.5453,-2.5453,-2.5453,-2.5398,-2.5398,-2.5453,-2.5453,-2.5453,-2.5508,-2.5238,-2.4597,-2.4566,-2.4334,-2.3684,-2.3681,-2.3921,-2.443,-2.4934,-2.5486,-2.5997,-2.6855,-2.7317,-2.7317,-2.8057,-2.8766,-2.9433,-2.9625,-2.9916,-3.0221,-3.0433,-3.0536,-3.0525,-2.9629,-2.8675,-2.7648,-2.6708,-2.5427,-2.4024,-2.3614,-2.3129,-2.2574,-2.1861,-2.1337,-2.0894,-2.0449,-1.9317,-1.8106,-1.8106,-1.7394,-1.6466,-1.6466,-1.5656,-1.4744,-1.4652,-1.3836,-1.2929,-1.2929,-1.2393,-1.1873,-1.1801,-1.083,-1.0064,-1.0661,-1.1154,-1.126,-1.0492,-1.0599,-1.0689,-1.0181,-0.9431,-0.9278,-1.0451,-0.9192,-0.8415,-0.9268,-0.8645,-0.7787,-0.7024,-0.6845,-0.6521,-0.5683,-0.5491,-0.5491,-0.5491,-0.5428,-0.5428,-0.5428,-0.5428,-0.5428,-0.5428,-0.5428,-0.5432,-0.5439,-0.5518,-0.5596,-0.562,-0.5898,-0.6034,-3.2366,-3.1316,-3.0203,-2.9553,-2.8764,-2.8091,-2.766,-2.7255,-2.6654,-2.596,-2.5398,-2.4838,-2.4047,-2.4337,-2.4681,-2.4681,-2.4266,-2.393,-2.393,-2.4394,-2.4681,-2.4681,-2.5119,-2.5023,-2.4007,-2.3946,-2.3674,-2.3067,-2.3009,-2.3275,-2.3879,-2.4389,-2.4934,-2.5449,-2.6319,-2.7092,-2.7678,-2.7936,-2.8384,-2.9027,-2.9338,-2.9712,-3.0073,-3.0229,-3.0382,-3.0492,-2.9687,-2.8778,-2.7815,-2.6783,-2.564,-2.4468,-2.3989,-2.3502,-2.2972,-2.2468,-2.174,-2.0959,-2.0797,-1.9591,-1.8106,-1.8106,-1.7394,-1.6423,-1.6051,-1.5332,-1.4606,-1.4236,-1.3515,-1.2774,-1.2344,-1.1972,-1.1566,-1.0728,-0.9821,-0.9211,-0.9465,-0.9657,-0.9684,-0.9379,-0.9233,-0.9123,-0.8895,-0.8466,-0.8269,-0.8669,-0.8297,-0.8125,-0.8447,-0.82,-0.7882,-0.7558,-0.7057,-0.6586,-0.6294,-0.5738,-0.5428,-0.5428,-0.5428,-0.5428,-0.5428,-0.5428,-0.5428,-0.5428,-0.5428,-0.5428,-0.5428,-0.5416,-0.5494,-0.5589,-0.5669,-0.583,-3.2616,-3.1738,-3.0734,-2.9903,-2.9104,-2.8383,-2.7993,-2.7393,-2.6654,-2.5892,-2.5175,-2.4452,-2.3649,-2.3518,-2.3505,-2.3505,-2.2786,-2.2237,-2.2237,-2.2967,-2.3505,-2.3505,-2.415,-2.4254,-2.3282,-2.3226,-2.3078,-2.2749,-2.2694,-2.2965,-2.3551,-2.4116,-2.4752,-2.5449,-2.6021,-2.6754,-2.7678,-2.7678,-2.8021,-2.8669,-2.9045,-2.9418,-2.9813,-3.0027,-3.0229,-3.0356,-2.9635,-2.8848,-2.794,-2.6912,-2.5877,-2.4847,-2.4309,-2.3775,-2.3252,-2.2855,-2.1984,-2.0991,-2.0991,-1.9733,-1.8106,-1.8106,-1.7394,-1.6423,-1.6008,-1.5332,-1.4617,-1.419,-1.3515,-1.2774,-1.2295,-1.1823,-1.1116,-0.9762,-0.9113,-0.8804,-0.8804,-0.8804,-0.8804,-0.8804,-0.8581,-0.8453,-0.8546,-0.7982,-0.7644,-0.7982,-0.7516,-0.7214,-0.7514,-0.7288,-0.7116,-0.7116,-0.6633,-0.6294,-0.6294,-0.5738,-0.5428,-0.5428,-0.5428,-0.5428,-0.5428,-0.5428,-0.5428,-0.5428,-0.5428,-0.5428,-0.5428,-0.5428,-0.5413,-0.5511,-0.5547,-0.5745,0.0,0.0,0.0,-3.0444,-2.9406,-2.8511,-2.8511,-2.7993,-2.7357,-2.6669,-2.5906,-2.5175,-2.4452,-2.3027,-2.1939,-2.1877,-2.1175,-2.0655,-2.0655,-2.1365,-2.1939,-2.1939,-2.2628,-2.2921,-2.2426,-2.2363,-2.2452,-2.2644,-2.2649,-2.292,-2.3551,-2.4116,-2.4855,-2.5924,-2.5961,-2.6402,-2.7255,-2.7255,-2.766,-2.8394,-2.8669,-2.8986,-2.9394,-2.9813,-3.006,-3.016,-2.9516,-2.881,-2.8027,-2.7094,-2.6072,-2.5052,-2.452,-2.3989,-2.3451,-2.2919,-2.2012,-2.1023,-2.1023,-1.9753,-1.8145,-1.8106,-1.7394,-1.6522,-1.6522,-1.5656,-1.4698,-1.4698,-1.3836,-1.2881,-1.2832,-1.1792,-1.0415,-0.9113,-0.8804,-0.8804,-0.8752,-0.8752,-0.8752,-0.8752,-0.8752,-0.8791,-0.9062,-0.7959,-0.7384,-0.8508,-0.679,-0.5675,-0.6534,-0.5924,-0.5428,-0.5428,-0.5428,-0.5428,-0.5428,-0.5428,-0.5428,-0.5428,-0.5428,-0.5428,-0.5428,-0.5428,-0.5428,-0.5428,-0.5428,-0.5428,-0.5428,-0.5428,-0.5428,-0.5428,-0.5564,-0.5741,-3.3178,0.0,0.0,0.0,0.0,0.0,-2.8606,-2.7615,-2.6774,-2.6563,-2.5906,-2.5175,-2.4452,-2.3408,-2.2494,-2.199,-2.169,-2.1553,-2.1553,-2.2249,-2.2763,-2.2763,-2.2944,-2.2757,-2.186,-2.1746,-2.1639,-2.1367,-2.1724,-2.2239,-2.292,-2.3891,-2.4552,-2.4816,-2.5221,-2.5709,-2.6368,-2.6606,-2.7151,-2.8047,-2.8358,-2.8819,-2.9412,-2.9661,-2.9874,-3.006,-3.0123,-2.9356,-2.8026,-2.7083,-2.6073,-2.5071,-2.4774,-2.4329,-2.3833,-2.3534,-2.2745,-2.1753,-2.1469,-2.0407,-1.9059,-1.8327,-1.7626,-1.6993,-1.6637,-1.5656,-1.4698,-1.4698,-1.3464,-1.1882,-1.0931,-1.002,-0.9263,-0.891,-0.8804,-0.8646,-0.8103,-0.7996,-0.7996,-0.7996,-0.7557,-0.7085,-0.6579,-0.5984,-0.5604,-0.5949,-0.5623,-0.5488,-0.5738,-0.555,-0.5428,-0.5428,-0.5428,-0.5428,-0.5428,-0.5428,-0.5428,-0.5428,-0.5428,-0.5428,-0.5428,-0.5428,-0.5428,-0.5428,-0.5428,-0.5428,-0.5428,-0.5428,-0.5428,-0.5428,-0.5564,-0.5682,-3.3382,-3.3014,-3.2565,-3.1591,0.0,0.0,-2.9027,-2.8094,-2.7261,-2.7034,-2.639,-2.5618,-2.4908,-2.3807,-2.2772,-2.199,-2.1877,-2.1753,-2.1428,-2.2063,-2.258,-2.258,-2.2884,-2.2698,-2.1594,-2.1493,-2.1288,-2.0838,-2.1113,-2.1724,-2.2649,-2.3333,-2.3933,-2.4389,-2.4697,-2.5128,-2.5652,-2.6073,-2.6656,-2.7339,-2.7741,-2.8306,-2.8975,-2.9221,-2.9532,-2.9893,-3.0164,-2.9439,-2.8023,-2.7464,-2.6454,-2.5236,-2.4917,-2.4514,-2.4063,-2.3642,-2.2912,-2.2068,-2.1665,-2.0539,-1.9178,-1.8593,-1.776,-1.6909,-1.6595,-1.5656,-1.4698,-1.4698,-1.3301,-1.1516,-1.0167,-0.951,-0.9159,-0.8857,-0.8804,-0.8699,-0.8262,-0.7937,-0.761,-0.7289,-0.6912,-0.647,-0.6009,-0.5628,-0.5374,-0.537,-0.5377,-0.5428,-0.5428,-0.5428,-0.5428,-0.5428,-0.5428,-0.5428,-0.5428,-0.5428,-0.5428,-0.5428,-0.5428,-0.5428,-0.5428,-0.5428,-0.5428,-0.5428,-0.5428,-0.5428,-0.5428,-0.5428,-0.5428,-0.5428,-0.5564,-0.5641,-3.3496,-3.3284,-3.3057,-3.2178,-3.1445,0.0,-2.9783,-2.9088,-2.8415,-2.781,-2.7188,-2.6496,-2.5673,-2.4359,-2.3119,-2.2286,-2.2187,-2.1803,-2.091,-2.1491,-2.2002,-2.2002,-2.2628,-2.2723,-2.1681,-2.1518,-2.1313,-2.083,-2.0785,-2.1321,-2.2498,-2.2649,-2.3157,-2.4184,-2.4266,-2.4592,-2.5105,-2.5577,-2.6038,-2.6505,-2.6982,-2.7613,-2.835,-2.8669,-2.9101,-2.9605,-2.9858,-2.9264,-2.8092,-2.7998,-2.6971,-2.5459,-2.5,-2.4637,-2.4273,-2.3545,-2.282,-2.2163,-2.1744,-2.044,-1.8927,-1.8754,-1.7733,-1.6552,-1.6423,-1.5599,-1.4652,-1.4365,-1.3014,-1.1366,-1.0064,-0.9666,-0.9562,-0.8962,-0.8804,-0.8752,-0.8593,-0.8049,-0.7343,-0.6529,-0.6426,-0.647,-0.6387,-0.6104,-0.5905,-0.5896,-0.5578,-0.5428,-0.5428,-0.5428,-0.5428,-0.5428,-0.5428,-0.5428,-0.5428,-0.5428,-0.5428,-0.5428,-0.5428,-0.5428,-0.5428,-0.5428,-0.5428,-0.5428,-0.5229,-0.5229,-0.5428,-0.5428,-0.5428,-0.5428,-0.5498,-0.5609,-3.4157,-3.3766,-3.3432,-3.3039,-3.1917,0.0,-3.066,-2.9897,-2.9042,-2.8463,-2.8222,-2.7765,-2.6496,-2.604,-2.5356,-2.4034,-2.3813,-2.3327,-2.1865,-2.2384,-2.2884,-2.2884,-2.3005,-2.2874,-2.2221,-2.1744,-2.1272,-2.0752,-2.077,-2.1126,-2.1852,-2.2406,-2.2785,-2.3039,-2.3493,-2.3991,-2.4552,-2.4657,-2.533,-2.6505,-2.6622,-2.712,-2.802,-2.8555,-2.8864,-2.8997,-2.9532,-2.936,-2.8662,-2.7909,-2.6747,-2.5382,-2.5144,-2.4898,-2.4629,-2.4063,-2.3498,-2.2838,-2.1864,-2.0815,-1.9743,-1.8593,-1.7733,-1.698,-1.6071,-1.5287,-1.4261,-1.2132,-1.1308,-1.0669,-0.9361,-0.9008,-0.8956,-0.8857,-0.8804,-0.848,-0.7289,-0.6912,-0.6421,-0.5171,-0.5328,-0.5542,-0.4999,-0.5049,-0.5128,-0.5147,-0.527,-0.5428,-0.5428,-0.5428,-0.5428,-0.5428,-0.5428,-0.5428,-0.5428,-0.5428,-0.5428,-0.5428,-0.5428,-0.5428,-0.5428,-0.5428,-0.5428,-0.5428,-0.3969,-0.3969,-0.5428,-0.5428,-0.5428,-0.5428,-0.5428,-0.5477,-3.436,-3.4043,-3.3792,-3.3325,-3.261,0.0,0.0,-3.0516,-2.9923,-2.9118,-2.8701,-2.8207,-2.7115,-2.6678,-2.6122,-2.5007,-2.4851,-2.4553,-2.3761,-2.3339,-2.3078,-2.3078,-2.3078,-2.2865,-2.2372,-2.1807,-2.1142,-2.03,-2.0271,-2.0584,-2.1197,-2.1866,-2.2346,-2.2694,-2.329,-2.3709,-2.3991,-2.4266,-2.4902,-2.5845,-2.611,-2.6706,-2.7619,-2.813,-2.8506,-2.8838,-2.9339,-2.9204,-2.8588,-2.7857,-2.6877,-2.5797,-2.5251,-2.4945,-2.4742,-2.4207,-2.3648,-2.3076,-2.2337,-2.1283,-2.0054,-1.9046,-1.8115,-1.7092,-1.594,-1.4744,-1.3348,-1.1349,-1.0568,-1.0064,-0.9061,-0.8804,-0.8699,-0.8321,-0.8262,-0.7937,-0.6858,-0.6312,-0.5819,-0.5113,-0.5003,-0.4893,-0.457,-0.4717,-0.4904,-0.4882,-0.5156,-0.5428,-0.5428,-0.5428,-0.5428,-0.5428,-0.5428,-0.5428,-0.5428,-0.5428,-0.5428,-0.5428,-0.5428,-0.4964,-0.4102,-0.4036,-0.4445,-0.5403,-0.3645,-0.3581,-0.5403,-0.5403,-0.4922,-0.4036,-0.4036,-0.4079,-3.4427,-3.4311,-3.4128,-3.3486,-3.3243,-3.2867,0.0,0.0,0.0,-3.0009,-2.9387,-2.8732,-2.8054,-2.7425,-2.6776,-2.5881,-2.5765,-2.5713,-2.5423,-2.4288,-2.3471,-2.3365,-2.3185,-2.2902,-2.2523,-2.1843,-2.1001,-2.0049,-1.9805,-2.0002,-2.056,-2.1197,-2.1771,-2.2314,-2.2905,-2.3319,-2.3421,-2.3849,-2.4415,-2.5051,-2.5577,-2.6264,-2.7066,-2.756,-2.8076,-2.8651,-2.9042,-2.8965,-2.855,-2.7998,-2.7267,-2.6448,-2.5453,-2.4999,-2.4796,-2.4255,-2.3712,-2.32,-2.2754,-2.146,-1.9955,-1.9435,-1.824,-1.6799,-1.5752,-1.4182,-1.2522,-1.1157,-1.0202,-0.9444,-0.8738,-0.848,-0.8209,-0.7616,-0.7509,-0.7289,-0.6529,-0.5923,-0.5487,-0.5324,-0.4864,-0.4507,-0.4507,-0.4714,-0.4891,-0.4919,-0.5206,-0.5299,-0.4897,-0.4897,-0.4897,-0.4897,-0.4897,-0.4897,-0.4897,-0.4897,-0.4897,-0.4897,-0.5239,-0.4712,-0.3246,-0.2567,-0.284,-0.4344,-0.2907,-0.2907,-0.4344,-0.5033,-0.4274,-0.2161,-0.2161,-0.2177,-3.4734,-3.4653,-3.4486,-3.3876,-3.3447,-3.3136,-3.2978,0.0,-3.2143,-3.1491,0.0,-3.0425,-2.9819,0.0,0.0,-2.721,-2.7075,-2.6732,-2.5406,-2.5146,-2.4894,-2.4234,-2.3531,-2.3053,-2.305,-2.1848,-2.0906,-2.0598,-1.9879,-1.9594,-1.9875,-2.0547,-2.0944,-2.0993,-2.1615,-2.2193,-2.2785,-2.2875,-2.342,-2.4511,-2.5012,-2.5598,-2.6175,-2.7002,-2.7619,-2.8002,-2.835,-2.8805,-2.9248,-2.8587,-2.797,-2.7306,-2.5897,-2.5232,-2.4992,-2.446,-2.3934,-2.3343,-2.2479,-2.0986,-1.942,-1.9009,-1.7464,-1.5676,-1.5005,-1.3867,-1.2522,-1.1157,-0.9828,-0.8685,-0.7984,-0.7343,-0.6804,-0.675,-0.675,-0.6529,-0.576,-0.5542,-0.5324,-0.4732,-0.4628,-0.4667,-0.45,-0.4679,-0.4807,-0.4898,-0.5209,-0.4852,-0.324,-0.3036,-0.3036,-0.3036,-0.3036,-0.3036,-0.3036,-0.3036,-0.3036,-0.3036,-0.454,-0.5302,-0.5103,-0.2025,-0.0404,-0.0607,-0.0404,-0.0404,-0.0607,-0.3862,-0.3657,-0.0337,-0.0337,-0.0279,-3.4999,-3.4832,-3.4591,-3.4141,-3.3805,-3.3494,-3.3243,-3.3045,-3.2759,-3.221,0.0,0.0,0.0,0.0,0.0,0.0,-2.8695,-2.8341,-2.7718,-2.7015,-2.6144,-2.5063,-2.4279,-2.3475,-2.2686,-2.207,-2.149,-2.074,-2.037,-2.0069,-1.9836,-2.0459,-2.0795,-2.0795,-2.139,-2.1993,-2.2694,-2.2694,-2.3289,-2.4389,-2.4632,-2.5028,-2.5577,-2.6421,-2.6948,-2.712,-2.7798,-2.8376,-2.8764,-2.8146,-2.771,-2.7331,-2.6325,-2.5597,-2.5069,-2.4851,-2.4361,-2.3658,-2.2852,-2.1709,-2.0362,-1.889,-1.6889,-1.5005,-1.4789,-1.3548,-1.1994,-1.1065,-1.0092,-0.9072,-0.7984,-0.745,-0.7015,-0.6145,-0.5982,-0.5764,-0.5058,-0.4893,-0.4871,-0.4632,-0.4646,-0.4748,-0.4806,-0.4921,-0.4587,-0.3509,-0.4489,-0.5135,-0.4392,-0.2427,-0.1146,-0.1146,-0.1146,-0.1146,-0.1146,-0.1146,-0.1146,-0.1146,-0.1822,-0.2296,-0.2296,-0.0809,-0.0,-0.0,-0.0,-0.0,-0.0,-0.1552,-0.1484,-0.0,-0.0,-0.0,-3.5016,-3.4793,-3.4529,-3.4379,-3.4117,-3.3858,-3.3661,-3.3533,-3.3364,-3.3033,-3.2474,0.0,0.0,0.0,-3.0628,-3.0426,0.0,-2.9778,-2.9567,-2.8622,-2.746,-2.6105,-2.4993,-2.3903,-2.291,-2.2464,-2.184,-2.0978,-2.0715,-2.0337,-1.9836,-2.0245,-2.056,-2.056,-2.0953,-2.1472,-2.2175,-2.236,-2.2921,-2.3918,-2.4266,-2.4576,-2.5012,-2.5793,-2.6268,-2.6538,-2.723,-2.7816,-2.8236,-2.796,-2.7695,-2.7422,-2.6863,-2.6191,-2.5503,-2.5213,-2.4612,-2.3879,-2.3279,-2.2114,-2.059,-1.8551,-1.6676,-1.5107,-1.4789,-1.348,-1.1877,-1.1057,-1.0056,-0.8981,-0.7984,-0.7396,-0.6848,-0.5756,-0.5378,-0.5109,-0.4625,-0.4553,-0.4558,-0.467,-0.4755,-0.488,-0.5044,-0.482,-0.3926,-0.1882,-0.2917,-0.3907,-0.3912,-0.1616,-0.0,-0.0,-0.0,-0.0,-0.0,-0.0,-0.0,-0.0,-0.0,-0.0,-0.0,-0.0,-0.0,-0.0,-0.0,-0.0,-0.0,-0.0,-0.0,-0.0,-0.0,-0.0,-3.4632,-3.4467,-3.4288,-3.4612,-3.4423,-3.4288,-3.4572,-3.4401,-3.4152,-3.4152,-3.3597,-3.3136,-3.3136,-3.2745,-3.2186,-3.1458,-3.1127,0.0,0.0,-2.9524,-2.8856,-2.751,-2.5535,-2.4279,-2.4266,-2.2822,-2.1789,-2.1487,-2.0685,-2.0101,-1.9809,-1.9798,-1.985,-1.985,-1.985,-2.0194,-2.0845,-2.1438,-2.21,-2.2785,-2.3876,-2.4389,-2.443,-2.4973,-2.5717,-2.6505,-2.6538,-2.7057,-2.7964,-2.8537,-2.8418,-2.7867,-2.7643,-2.7183,-2.6513,-2.5486,-2.4594,-2.3851,-2.3571,-2.1708,-1.9241,-1.7813,-1.6909,-1.6194,-1.5062,-1.3731,-1.2436,-1.114,-0.9325,-0.7777,-0.7723,-0.6632,-0.5542,-0.5487,-0.5003,-0.4515,-0.4519,-0.4579,-0.4684,-0.4691,-0.4921,-0.5061,-0.5081,-0.4105,-0.2584,-0.0399,-0.0134,-0.0201,-0.0202,-0.0067,-0.0,-0.0,-0.0,-0.0,-0.0,-0.0,-0.0,-0.0,-0.0,-0.0,-0.0,-0.0,-0.0,-0.0,-0.0,-0.0,-0.0,-0.0,-0.0,-0.0,-0.0,-0.0,-3.4674,-3.4464,-3.4288,-3.4632,-3.4464,-3.4288,-3.4614,-3.4593,-3.4529,-3.4529,-3.4357,-3.42,-3.42,-3.382,-3.3359,-3.2938,-3.2527,-3.2117,0.0,-3.0934,-2.9959,-2.8652,-2.6909,-2.5342,-2.4408,-2.3813,-2.3094,-2.2083,-2.1455,-2.0866,-2.0413,-2.0012,-1.9798,-1.9798,-1.9798,-2.0105,-2.0795,-2.139,-2.2053,-2.2694,-2.3493,-2.3879,-2.3879,-2.443,-2.5035,-2.5644,-2.5644,-2.6353,-2.753,-2.7635,-2.7659,-2.768,-2.8051,-2.7497,-2.6401,-2.5607,-2.5039,-2.4441,-2.2718,-2.0754,-1.8823,-1.7666,-1.6403,-1.5152,-1.4286,-1.3127,-1.1818,-1.0509,-0.9651,-0.8876,-0.7931,-0.6961,-0.6091,-0.5597,-0.5003,-0.4546,-0.4592,-0.4653,-0.4752,-0.4955,-0.5011,-0.5111,-0.5284,-0.497,-0.4452,-0.3687,-0.154,-0.0,-0.0,-0.0,-0.0,-0.0,-0.0,-0.0,-0.0,-0.0,-0.0,-0.0,-0.0,-0.0,-0.0,-0.0,-0.0,-0.0,-0.0,-0.0,-0.0,-0.0,-0.0,-0.0,-0.0,-0.0,-3.4508,-3.4288,-3.4165,-3.4591,-3.4464,-3.4315,-3.4735,-3.4754,-3.4694,-3.4694,-3.4694,-3.4632,-3.4416,-3.4323,-3.4157,-3.3857,-3.3442,-3.2997,0.0,-3.1629,-3.0563,-2.9529,-2.7878,-2.6347,-2.5175,-2.4624,-2.3869,-2.2783,-2.1964,-2.1255,-2.0756,-2.0112,-1.9798,-1.9798,-1.9798,-2.0003,-2.0446,-2.1064,-2.1582,-2.2035,-2.2875,-2.329,-2.329,-2.3864,-2.4389,-2.491,-2.491,-2.564,-2.6855,-2.6865,-2.7139,-2.7598,-2.8091,-2.7799,-2.6988,-2.6169,-2.5415,-2.4515,-2.2382,-2.0573,-1.9046,-1.814,-1.6566,-1.4915,-1.4239,-1.2994,-1.1539,-1.0458,-0.9599,-0.8817,-0.7931,-0.6961,-0.6091,-0.5597,-0.5049,-0.4572,-0.467,-0.4775,-0.4911,-0.5044,-0.4666,-0.4268,-0.4414,-0.4979,-0.5396,-0.5396,-0.3424,-0.1476,-0.0134,-0.0,-0.0,-0.0,-0.0,-0.0,-0.0,-0.0,-0.0,-0.0,-0.0,-0.0,-0.0,-0.0,-0.0,-0.0,-0.0,-0.0,-0.0,-0.0,-0.0,-0.0,-0.0,-0.0]},{"header":{"parameterUnit":"m.s-1","parameterCategory":1,"la1":30.6,"la2":29.2853,"lo1":-89.7004,"lo2":-87.6739,"dy":0.0162,"dx":0.0183,"nx":112,"ny":82,"refTime":"2024-05-11T12:00:00:Z","depth":0,"parameterNumber":3,"parameterNumberName":"V-component_of_WINDS"},"data":[0.0,0.0,0.0,0.0,0.0,0.0,0.0,0.0,0.0,0.0,0.0,0.0,0.0,0.0,0.0,0.0,0.0,0.0,0.0,0.0,0.0,0.0,0.0,0.0,0.0,0.0,0.0,0.0,0.0,0.0,0.0,0.0,0.0,0.0,0.0,0.0,0.0,0.0,0.0,0.0,0.0,0.0,0.0,0.0,0.0,0.0,0.0,0.0,0.0,0.0,0.0,0.0,0.0,0.0,0.0,0.0,0.0,0.0,0.0,0.0,0.0,0.0,0.0,0.0,0.0,0.0,0.0,0.0,0.0,0.0,0.0,0.0,0.0,0.0,0.0,0.0,0.0,0.0,0.0,0.0,0.0,0.0,0.0,0.0,0.0,0.0,0.0,0.0,0.0,0.0,-3.3574,-3.2376,-3.1595,-3.0896,-3.0329,-3.0896,-3.161,-3.2382,0.0,0.0,0.0,0.0,0.0,0.0,0.0,0.0,0.0,0.0,0.0,0.0,0.0,0.0,0.0,0.0,0.0,0.0,0.0,0.0,0.0,0.0,0.0,0.0,0.0,0.0,0.0,0.0,0.0,0.0,0.0,0.0,0.0,0.0,0.0,0.0,0.0,0.0,0.0,0.0,0.0,0.0,0.0,0.0,0.0,0.0,0.0,0.0,0.0,0.0,0.0,0.0,0.0,0.0,0.0,0.0,0.0,0.0,0.0,0.0,0.0,0.0,0.0,0.0,0.0,0.0,0.0,0.0,0.0,0.0,0.0,0.0,0.0,0.0,0.0,0.0,0.0,0.0,0.0,0.0,0.0,0.0,0.0,0.0,0.0,0.0,0.0,0.0,0.0,0.0,0.0,0.0,0.0,0.0,0.0,0.0,0.0,0.0,0.0,0.0,0.0,0.0,0.0,0.0,-3.229,-3.0793,-2.9875,-2.9628,-3.0269,-3.0389,-3.0822,-3.164,0.0,0.0,0.0,0.0,0.0,0.0,0.0,0.0,0.0,0.0,0.0,0.0,0.0,0.0,0.0,0.0,0.0,0.0,0.0,0.0,0.0,0.0,0.0,0.0,0.0,0.0,0.0,0.0,0.0,0.0,0.0,0.0,0.0,0.0,0.0,0.0,0.0,0.0,0.0,0.0,0.0,0.0,0.0,0.0,0.0,0.0,0.0,0.0,0.0,0.0,0.0,0.0,0.0,0.0,0.0,0.0,0.0,0.0,0.0,0.0,0.0,0.0,0.0,0.0,0.0,0.0,0.0,0.0,0.0,0.0,0.0,0.0,0.0,0.0,0.0,0.0,0.0,0.0,0.0,0.0,0.0,0.0,0.0,0.0,0.0,0.0,0.0,0.0,0.0,0.0,0.0,0.0,0.0,0.0,0.0,0.0,0.0,0.0,0.0,0.0,0.0,0.0,0.0,-3.1519,-3.0704,-2.9052,-2.8939,-2.9002,-2.8876,-2.9766,-3.045,-3.0837,-3.221,0.0,0.0,0.0,0.0,0.0,0.0,0.0,0.0,0.0,0.0,0.0,0.0,0.0,0.0,0.0,0.0,0.0,0.0,0.0,0.0,0.0,0.0,0.0,0.0,0.0,0.0,0.0,0.0,0.0,0.0,0.0,0.0,0.0,0.0,0.0,0.0,0.0,0.0,0.0,0.0,0.0,0.0,0.0,0.0,0.0,0.0,0.0,0.0,0.0,0.0,0.0,0.0,0.0,0.0,0.0,0.0,0.0,0.0,0.0,0.0,0.0,0.0,0.0,0.0,0.0,0.0,0.0,0.0,0.0,0.0,0.0,0.0,0.0,0.0,0.0,0.0,0.0,0.0,0.0,0.0,0.0,0.0,0.0,0.0,0.0,0.0,0.0,0.0,0.0,0.0,0.0,0.0,0.0,0.0,0.0,0.0,0.0,0.0,0.0,0.0,0.0,0.0,-2.995,-2.9192,-2.7868,-2.8117,-2.8247,-2.7736,-2.8939,-2.9889,-3.0269,-3.1435,0.0,0.0,0.0,0.0,0.0,0.0,0.0,0.0,0.0,0.0,0.0,0.0,0.0,0.0,0.0,0.0,0.0,0.0,0.0,0.0,0.0,0.0,0.0,0.0,0.0,0.0,0.0,0.0,0.0,0.0,0.0,0.0,0.0,0.0,0.0,0.0,0.0,0.0,0.0,0.0,0.0,0.0,0.0,0.0,0.0,0.0,0.0,0.0,0.0,0.0,0.0,0.0,0.0,0.0,0.0,0.0,0.0,0.0,0.0,0.0,0.0,0.0,0.0,0.0,0.0,0.0,0.0,0.0,0.0,0.0,0.0,0.0,0.0,0.0,0.0,0.0,0.0,0.0,0.0,0.0,0.0,0.0,0.0,0.0,0.0,0.0,0.0,0.0,0.0,0.0,0.0,0.0,0.0,0.0,0.0,0.0,0.0,0.0,0.0,0.0,0.0,0.0,-2.8876,-2.7868,-2.7736,-2.7095,-2.6973,-2.767,-2.7802,-2.8556,-3.0208,-3.0389,0.0,0.0,0.0,0.0,0.0,0.0,0.0,0.0,0.0,0.0,0.0,0.0,0.0,0.0,0.0,0.0,0.0,0.0,0.0,0.0,0.0,0.0,0.0,0.0,0.0,0.0,0.0,0.0,0.0,0.0,0.0,0.0,0.0,0.0,0.0,0.0,0.0,0.0,0.0,0.0,0.0,0.0,0.0,0.0,0.0,0.0,0.0,0.0,0.0,0.0,0.0,0.0,0.0,0.0,0.0,0.0,0.0,0.0,0.0,0.0,0.0,0.0,0.0,0.0,0.0,0.0,0.0,0.0,0.0,0.0,0.0,0.0,0.0,0.0,0.0,0.0,0.0,0.0,0.0,0.0,0.0,0.0,0.0,0.0,0.0,0.0,0.0,0.0,0.0,0.0,0.0,0.0,0.0,0.0,0.0,0.0,0.0,0.0,0.0,0.0,0.0,0.0,-2.8427,-2.7484,-2.704,-2.6658,-2.6589,-2.6905,-2.792,-2.8812,-2.9442,0.0,0.0,0.0,0.0,0.0,0.0,0.0,0.0,0.0,0.0,0.0,0.0,0.0,0.0,0.0,0.0,0.0,0.0,0.0,0.0,0.0,0.0,0.0,0.0,0.0,0.0,0.0,0.0,0.0,0.0,0.0,0.0,0.0,0.0,0.0,0.0,0.0,0.0,0.0,0.0,0.0,0.0,0.0,0.0,0.0,0.0,0.0,0.0,0.0,0.0,0.0,0.0,0.0,0.0,0.0,0.0,0.0,0.0,0.0,0.0,0.0,0.0,0.0,0.0,0.0,0.0,0.0,0.0,0.0,0.0,0.0,0.0,0.0,0.0,0.0,0.0,0.0,0.0,0.0,0.0,0.0,0.0,0.0,0.0,0.0,0.0,0.0,0.0,0.0,0.0,0.0,0.0,0.0,0.0,0.0,0.0,0.0,0.0,0.0,0.0,0.0,0.0,-2.9066,-2.8051,-2.7095,-2.6589,-2.6533,-2.6533,-2.6533,-2.7802,-2.8684,-2.9002,0.0,0.0,0.0,0.0,0.0,0.0,0.0,0.0,0.0,0.0,0.0,0.0,0.0,0.0,0.0,0.0,0.0,0.0,0.0,0.0,0.0,0.0,0.0,0.0,0.0,0.0,0.0,0.0,0.0,0.0,0.0,0.0,0.0,0.0,0.0,0.0,0.0,0.0,0.0,0.0,0.0,0.0,0.0,0.0,0.0,0.0,0.0,0.0,0.0,0.0,0.0,0.0,0.0,0.0,0.0,0.0,0.0,0.0,0.0,0.0,0.0,0.0,0.0,0.0,0.0,0.0,0.0,0.0,0.0,0.0,0.0,0.0,0.0,0.0,0.0,0.0,0.0,0.0,0.0,0.0,0.0,0.0,0.0,0.0,0.0,0.0,0.0,0.0,0.0,0.0,0.0,0.0,0.0,0.0,0.0,0.0,0.0,0.0,0.0,0.0,0.0,0.0,-2.9002,-2.755,-2.6533,-2.6533,-2.6533,-2.6533,-2.6533,-2.7229,-2.8117,0.0,0.0,0.0,0.0,0.0,0.0,0.0,0.0,0.0,0.0,0.0,0.0,0.0,0.0,0.0,0.0,0.0,0.0,0.0,0.0,0.0,0.0,0.0,0.0,0.0,0.0,0.0,0.0,0.0,0.0,0.0,0.0,0.0,0.0,0.0,0.0,0.0,0.0,0.0,0.0,0.0,0.0,0.0,0.0,0.0,0.0,0.0,0.0,0.0,0.0,0.0,0.0,0.0,0.0,0.0,0.0,0.0,0.0,0.0,0.0,0.0,0.0,0.0,0.0,0.0,0.0,0.0,0.0,0.0,0.0,0.0,0.0,0.0,0.0,0.0,0.0,0.0,0.0,0.0,0.0,0.0,0.0,0.0,0.0,0.0,0.0,0.0,0.0,0.0,0.0,0.0,0.0,0.0,0.0,0.0,0.0,0.0,0.0,0.0,0.0,0.0,0.0,0.0,-2.8182,-2.7162,-2.6533,-2.6533,-2.6533,-2.6714,-2.7284,-2.8117,-2.9002,-2.9889,0.0,0.0,0.0,0.0,0.0,0.0,0.0,0.0,0.0,0.0,0.0,0.0,0.0,0.0,0.0,0.0,0.0,0.0,0.0,0.0,0.0,0.0,0.0,0.0,0.0,0.0,0.0,0.0,0.0,0.0,0.0,0.0,0.0,0.0,0.0,0.0,0.0,0.0,0.0,0.0,0.0,0.0,0.0,0.0,0.0,0.0,0.0,0.0,0.0,0.0,0.0,0.0,0.0,0.0,0.0,0.0,0.0,0.0,0.0,0.0,0.0,0.0,0.0,0.0,0.0,0.0,0.0,0.0,0.0,0.0,0.0,0.0,0.0,0.0,0.0,0.0,0.0,0.0,0.0,0.0,0.0,0.0,0.0,0.0,0.0,0.0,0.0,0.0,0.0,0.0,0.0,0.0,0.0,0.0,0.0,0.0,0.0,0.0,0.0,0.0,0.0,0.0,-2.7802,-2.6973,-2.6533,-2.6533,-2.6782,-2.7162,-2.767,-2.8812,-2.9766,-3.0269,0.0,0.0,0.0,0.0,0.0,0.0,0.0,0.0,0.0,0.0,0.0,0.0,0.0,0.0,0.0,0.0,0.0,0.0,0.0,0.0,0.0,0.0,0.0,0.0,0.0,0.0,0.0,0.0,0.0,0.0,0.0,0.0,0.0,0.0,0.0,0.0,0.0,0.0,0.0,0.0,0.0,0.0,0.0,0.0,0.0,0.0,0.0,0.0,0.0,0.0,0.0,0.0,0.0,0.0,0.0,0.0,0.0,0.0,0.0,0.0,0.0,0.0,0.0,0.0,0.0,0.0,0.0,0.0,0.0,0.0,0.0,0.0,0.0,0.0,0.0,0.0,0.0,0.0,0.0,0.0,0.0,0.0,0.0,0.0,0.0,0.0,0.0,0.0,0.0,0.0,0.0,0.0,0.0,0.0,0.0,0.0,0.0,0.0,0.0,0.0,0.0,0.0,-2.7736,-2.6973,-2.6533,-2.6533,-2.7229,-2.7736,-2.7802,-2.9317,-3.0329,-3.0389,0.0,0.0,0.0,0.0,0.0,0.0,0.0,0.0,0.0,0.0,0.0,0.0,0.0,0.0,0.0,0.0,0.0,0.0,0.0,0.0,0.0,0.0,0.0,0.0,0.0,0.0,0.0,0.0,0.0,0.0,0.0,0.0,0.0,0.0,0.0,0.0,0.0,0.0,0.0,0.0,0.0,0.0,0.0,0.0,0.0,0.0,0.0,0.0,0.0,0.0,0.0,0.0,0.0,0.0,0.0,0.0,0.0,0.0,0.0,0.0,-2.4223,-2.5853,0.0,0.0,0.0,0.0,0.0,0.0,0.0,0.0,0.0,0.0,0.0,0.0,0.0,0.0,0.0,0.0,0.0,0.0,0.0,0.0,0.0,0.0,0.0,0.0,0.0,0.0,0.0,0.0,0.0,0.0,0.0,0.0,0.0,0.0,0.0,0.0,0.0,0.0,0.0,0.0,-2.6973,-2.6589,-2.6533,-2.6533,-2.7229,-2.7986,-2.8684,-2.969,-3.0584,-3.1219,-3.1409,0.0,0.0,0.0,0.0,0.0,0.0,0.0,0.0,0.0,0.0,0.0,0.0,0.0,0.0,0.0,0.0,0.0,0.0,0.0,0.0,0.0,0.0,0.0,0.0,0.0,0.0,0.0,0.0,0.0,0.0,0.0,0.0,0.0,0.0,0.0,0.0,0.0,0.0,0.0,0.0,0.0,0.0,0.0,0.0,0.0,0.0,0.0,0.0,0.0,0.0,0.0,0.0,0.0,0.0,0.0,0.0,0.0,0.0,0.0,-2.3475,-2.4688,0.0,0.0,0.0,0.0,0.0,0.0,0.0,0.0,0.0,0.0,0.0,0.0,0.0,0.0,0.0,0.0,0.0,0.0,0.0,0.0,0.0,0.0,0.0,0.0,0.0,0.0,0.0,0.0,0.0,0.0,0.0,0.0,0.0,0.0,0.0,0.0,0.0,0.0,0.0,0.0,-2.6714,-2.685,-2.7095,-2.7095,-2.8182,-2.9129,-2.9566,-3.0389,-3.1029,-3.1467,-3.1482,0.0,0.0,0.0,0.0,0.0,0.0,0.0,0.0,0.0,0.0,0.0,0.0,0.0,0.0,0.0,0.0,0.0,0.0,0.0,0.0,0.0,0.0,0.0,0.0,0.0,0.0,0.0,0.0,0.0,0.0,0.0,0.0,0.0,0.0,0.0,0.0,0.0,0.0,0.0,0.0,0.0,0.0,0.0,0.0,0.0,0.0,0.0,0.0,0.0,0.0,0.0,0.0,0.0,-2.2999,-2.2553,-2.1811,-2.2627,-2.2113,-2.0731,-2.2743,-2.3351,-2.3115,-2.5684,0.0,0.0,0.0,0.0,0.0,0.0,0.0,0.0,0.0,0.0,0.0,0.0,0.0,0.0,0.0,0.0,0.0,0.0,0.0,0.0,0.0,0.0,-2.862,-2.8748,-2.8748,-2.8748,-2.8748,0.0,0.0,0.0,0.0,0.0,0.0,0.0,0.0,0.0,0.0,0.0,-2.7095,-2.7351,-2.7736,-2.792,-2.938,-3.0329,-3.0329,-3.1029,-3.1482,-3.1482,-3.1482,-3.1482,0.0,0.0,0.0,0.0,0.0,0.0,0.0,0.0,0.0,0.0,0.0,0.0,0.0,0.0,0.0,0.0,0.0,0.0,0.0,0.0,0.0,0.0,0.0,0.0,0.0,0.0,0.0,0.0,0.0,0.0,0.0,0.0,-2.3419,-2.2328,0.0,0.0,0.0,0.0,0.0,0.0,0.0,0.0,0.0,0.0,0.0,0.0,0.0,-2.0644,-2.0789,-2.0789,-2.0857,-2.1011,-2.1011,-2.0934,-2.0789,-2.0934,-2.0867,-2.0644,-2.0926,0.0,-2.2907,-2.3335,0.0,0.0,0.0,0.0,0.0,0.0,0.0,0.0,0.0,0.0,0.0,0.0,0.0,0.0,0.0,0.0,0.0,0.0,0.0,0.0,0.0,0.0,-2.704,-2.7736,-2.7855,-2.7855,-2.7855,-2.9129,-3.0072,-2.9317,-2.9766,-3.0329,0.0,0.0,0.0,0.0,0.0,0.0,-2.8684,-2.8117,-2.7986,-2.8748,-2.969,-3.0329,-3.0329,-3.1029,-3.1482,-3.1482,-3.1482,-3.1482,-3.1482,-3.2772,0.0,0.0,0.0,0.0,0.0,0.0,0.0,0.0,0.0,0.0,0.0,0.0,0.0,0.0,0.0,0.0,0.0,0.0,0.0,0.0,0.0,0.0,0.0,0.0,0.0,0.0,0.0,0.0,0.0,-2.3187,-2.2328,-2.1298,-2.1221,-2.1078,0.0,0.0,0.0,0.0,0.0,0.0,0.0,0.0,0.0,-2.0566,-2.0566,-2.0566,-2.0566,-2.0566,-2.0566,-2.0566,-2.0566,-2.0566,-2.0566,-2.0566,-2.0566,-2.0566,-2.0566,-2.0976,-2.17,-2.3088,-2.4816,-2.6629,0.0,0.0,0.0,0.0,-2.7494,-2.7205,-2.6722,-2.6533,-2.6533,-2.6533,0.0,0.0,0.0,0.0,0.0,0.0,0.0,-2.8298,-2.7868,-2.7417,-2.7162,-2.704,-2.7736,-2.8182,-2.7229,-2.8363,-2.9317,-2.8427,-2.938,-3.0329,-3.0329,-3.097,0.0,0.0,0.0,-2.9566,-2.9066,-2.9066,-2.9317,-2.969,-3.0464,-3.097,-3.097,-3.1278,-3.1482,-3.1482,-3.1482,-3.1482,-3.1482,-3.2461,-3.3251,0.0,0.0,0.0,0.0,0.0,0.0,0.0,0.0,0.0,0.0,0.0,0.0,0.0,0.0,0.0,0.0,0.0,0.0,0.0,0.0,0.0,0.0,0.0,0.0,0.0,0.0,0.0,0.0,-2.1811,-2.1375,-2.0712,-2.0323,-2.0157,0.0,0.0,0.0,0.0,0.0,0.0,-2.0079,-1.9441,-1.952,-2.0566,-2.0566,-2.0566,-2.0566,-2.0566,-2.0566,-2.0566,-2.0566,-2.0566,-2.0566,-2.0566,-2.0566,-2.0566,-2.0566,-2.0712,-2.1108,-2.2711,-2.4206,-2.5557,-2.665,-2.7434,-2.7846,-2.7431,-2.7193,-2.7017,-2.6672,-2.6533,-2.6533,-2.6533,-2.6533,-2.6521,-2.6714,0.0,0.0,0.0,0.0,-2.8247,-2.7537,-2.7417,-2.7351,-2.7162,-2.792,-2.8427,-2.767,-2.8427,-2.8939,-2.767,-2.8812,-2.995,-2.995,-3.0837,0.0,-3.0703,-3.045,-3.0133,-2.969,-3.0011,-3.0389,-3.0584,-3.1161,-3.1482,-3.1482,-3.1482,-3.1482,-3.1482,-3.1482,-3.1582,-3.1796,-3.2477,-3.3182,-3.3836,0.0,0.0,0.0,0.0,0.0,0.0,0.0,0.0,0.0,0.0,0.0,0.0,0.0,0.0,0.0,0.0,0.0,0.0,0.0,0.0,0.0,0.0,0.0,0.0,0.0,0.0,0.0,0.0,0.0,-2.0644,-1.9678,0.0,0.0,0.0,0.0,-1.7577,-1.839,-1.8957,-1.9036,-1.9045,-1.952,-2.0566,-2.0566,-2.0566,-2.0566,-2.0566,-2.0566,-2.0566,-2.0566,-2.0566,-2.0566,-2.0566,-2.0566,-2.0566,-2.0566,-2.1078,-2.1886,-2.1108,-2.2189,-2.4405,-2.4427,-2.5654,-2.7318,-2.7293,-2.6954,-2.6571,-2.6533,-2.6533,-2.6533,-2.6533,-2.6533,-2.6658,-2.7417,-2.7095,0.0,0.0,-2.7229,-2.6589,-2.6589,-2.6589,-2.6973,-2.8492,-2.8298,-2.8182,-2.9766,-3.0208,-2.9504,-2.704,-2.792,-2.9066,-2.9066,0.0,-3.1482,-3.1467,-3.0777,-3.0584,-3.1278,-3.0777,-3.0584,-3.1351,-3.1467,-3.1482,-3.1482,-3.1482,-3.1482,-3.1482,-3.1482,-3.1796,-3.2547,-3.3182,-3.3887,-3.4528,-3.5207,0.0,0.0,0.0,0.0,0.0,0.0,0.0,0.0,0.0,0.0,0.0,0.0,0.0,0.0,0.0,0.0,0.0,0.0,0.0,0.0,0.0,0.0,0.0,0.0,0.0,0.0,0.0,0.0,-2.0566,-1.9678,0.0,-1.9923,-1.8132,-1.7568,-1.9274,-1.7172,-1.6772,-1.8877,-1.831,-1.839,-1.952,-2.0245,-2.0566,-2.0566,-2.0566,-2.0566,-2.0566,-2.0566,-2.0566,-2.0566,-2.0566,-2.0566,-2.0566,-2.0566,-2.0789,-2.1078,-2.0712,-2.2218,-2.4833,-2.5493,-2.6156,-2.6753,-2.6753,-2.6628,-2.6533,-2.6533,-2.6533,-2.6533,-2.6533,-2.6533,-2.6521,-2.685,-2.6714,-2.6589,-2.685,-2.6714,-2.6533,-2.6533,-2.6533,-2.6782,-2.792,-2.792,-2.8051,-2.9192,-2.9442,-2.9192,-2.8298,-2.9442,-3.045,-2.995,-3.0777,-3.1482,-3.1482,-3.1278,-3.1161,-3.1467,-3.1219,-3.1161,-3.1467,-3.1482,-3.1482,-3.1482,-3.1482,-3.1482,-3.1482,-3.1951,-3.2327,-3.2586,-3.3235,-3.3937,-3.4576,-3.483,-3.5161,0.0,0.0,0.0,0.0,0.0,0.0,0.0,0.0,0.0,0.0,0.0,0.0,0.0,0.0,0.0,0.0,0.0,0.0,0.0,0.0,0.0,0.0,0.0,0.0,0.0,-2.0566,-2.0489,-2.0079,-1.9116,-1.855,-1.8939,-1.6993,-1.6429,-1.8292,-1.6034,-1.5628,-1.7738,-1.7694,-1.8014,-1.9155,-2.022,-2.0791,-2.0791,-2.0644,-2.0566,-2.0566,-2.0566,-2.0566,-2.0566,-2.0566,-2.0566,-2.0566,-2.0566,-2.0566,-2.0644,-2.0934,-2.2188,-2.4108,-2.5134,-2.5721,-2.6025,-2.6383,-2.6533,-2.6533,-2.6533,-2.6533,-2.6533,-2.6533,-2.6533,-2.6533,-2.6533,-2.6533,-2.6533,-2.6533,-2.6533,-2.6533,-2.6533,-2.6714,-2.7095,-2.792,-2.8363,-2.8812,-2.9628,-2.9827,-2.9827,-2.9827,-3.0524,-3.0896,-3.0389,-3.097,-3.1482,-3.1482,-3.1482,-3.1482,-3.1482,-3.1482,-3.1482,-3.1482,-3.1482,-3.1482,-3.1482,-3.1482,-3.1482,-3.1482,-3.2176,-3.2695,-3.2949,-3.3582,-3.4235,-3.4941,-3.4941,-3.5161,-3.5622,0.0,0.0,0.0,0.0,0.0,0.0,0.0,0.0,0.0,0.0,0.0,0.0,0.0,0.0,0.0,0.0,0.0,0.0,0.0,0.0,0.0,0.0,0.0,-2.0566,-2.0566,-2.0235,-1.9195,-1.8069,-1.6927,-1.5861,-1.5779,-1.5296,-1.425,-1.5144,-1.5718,-1.5711,-1.7199,-1.8479,-1.9552,-2.0657,-2.125,-2.125,-2.081,-2.0586,-2.0586,-2.0576,-2.0566,-2.0566,-2.0566,-2.0566,-2.0566,-2.0566,-2.0566,-2.0634,-2.1593,-2.1952,-2.2103,-2.3147,-2.4108,-2.5158,-2.6094,-2.6533,-2.6533,-2.6533,-2.6533,-2.6533,-2.6533,-2.6533,-2.6533,-2.6533,-2.6533,-2.6533,-2.6533,-2.6533,-2.6533,-2.6533,-2.7095,-2.792,-2.8812,-2.9628,-3.0524,-3.1351,-3.1467,-3.1467,-3.1482,-3.0896,-3.0329,-3.0329,-3.097,-3.1482,-3.1482,-3.1482,0.0,-3.1482,-3.1482,-3.1482,-3.1482,-3.1482,-3.1482,-3.1482,-3.1482,-3.1482,-3.1482,-3.2216,-3.2949,-3.3582,-3.4284,-3.4941,-3.5577,-3.5622,-3.5622,-3.5622,0.0,0.0,0.0,0.0,0.0,0.0,0.0,0.0,0.0,0.0,0.0,0.0,0.0,0.0,0.0,0.0,0.0,0.0,0.0,0.0,0.0,-2.1897,-2.0566,-2.0566,-2.0566,-2.0479,-2.0167,-1.9195,-1.839,-1.8141,-1.6675,-1.5869,-1.6363,-1.5437,-1.5141,-1.5963,-1.7475,-1.8437,-1.8693,-2.0671,-2.1709,-2.1709,-2.1269,-2.1055,-2.1045,-2.0723,-2.0566,-2.0566,-2.0566,-2.0566,-2.0566,-2.0566,-2.0566,-2.0644,-2.0857,-2.1375,-2.2178,-2.3891,-2.4779,-2.5158,-2.6094,-2.6533,-2.6533,-2.6533,-2.6533,-2.6533,-2.6533,-2.6533,-2.6533,-2.6533,-2.6533,-2.6533,-2.6533,-2.6533,-2.6533,-2.6533,-2.7095,-2.792,-2.8812,-2.9192,-2.9766,-3.1219,-3.1029,-3.0777,-3.1409,-3.1351,-3.1161,-3.1161,-3.1351,-3.1482,-3.1482,-3.1482,-3.1482,-3.1482,-3.1482,-3.1482,-3.1482,-3.1482,-3.1482,-3.1482,-3.1482,-3.1482,-3.1482,-3.2664,-3.3391,-3.3582,-3.4704,-3.5407,-3.5577,-3.5622,-3.5622,0.0,0.0,0.0,0.0,0.0,0.0,0.0,0.0,0.0,0.0,0.0,0.0,0.0,0.0,0.0,0.0,0.0,0.0,0.0,0.0,0.0,0.0,-2.1603,-2.0566,-2.0566,-2.0566,-2.0401,-2.0001,-1.8957,-1.8141,-1.7658,-1.6034,-1.5354,-1.6073,-1.5091,-1.4824,-1.5625,-1.7056,-1.8113,-1.8646,-2.0476,-2.1616,-2.2148,-2.1719,-2.1504,-2.1504,-2.1055,-2.084,-2.084,-2.0654,-2.0566,-2.0566,-2.0566,-2.0566,-2.0566,-2.0566,-2.1155,-2.2178,0.0,0.0,0.0,0.0,-2.6533,-2.6533,-2.6533,-2.6533,-2.6533,-2.6533,-2.6533,-2.6533,-2.6533,-2.6533,-2.6533,-2.6533,-2.6533,-2.6589,-2.6905,-2.7604,-2.8427,-2.9317,-2.9827,-3.0329,-3.1278,-3.1146,-3.097,-3.1409,-3.1482,0.0,-3.1482,-3.1482,-3.1482,-3.1482,-3.1482,-3.1482,-3.1482,-3.1482,-3.1482,-3.1482,-3.1482,-3.1482,-3.1482,-3.1482,0.0,0.0,0.0,-3.3836,-3.4399,-3.5161,0.0,0.0,0.0,-3.5622,-3.5622,-3.5622,0.0,0.0,-3.5622,-3.5622,0.0,0.0,0.0,0.0,0.0,0.0,0.0,0.0,0.0,0.0,0.0,0.0,0.0,0.0,0.0,0.0,-2.1221,-2.0566,-2.0566,-2.0489,-2.0079,-1.9116,-1.798,-1.6846,-1.5779,-1.481,-1.4372,-1.4496,-1.4549,-1.4703,-1.4997,-1.6523,0.0,0.0,0.0,-2.1441,-2.2588,-2.2178,-2.2056,-2.2056,-2.1523,-2.1199,-2.1131,-2.0722,-2.0605,-2.0566,-2.0566,-2.0566,-2.0566,-2.0566,-2.1231,-2.2253,-2.3294,-2.4264,-2.53,-2.6164,-2.6533,-2.6533,-2.6533,0.0,0.0,-2.6533,-2.6533,-2.6533,-2.6533,-2.6533,-2.6533,-2.6533,-2.6533,-2.6714,-2.7484,-2.8363,-2.9192,-3.0072,-3.0896,-3.1482,-3.1482,-3.1482,-3.1482,-3.1482,-3.1482,-3.1482,-3.1482,-3.1482,-3.1482,-3.1482,-3.1482,-3.1482,-3.1482,-3.1482,-3.1482,-3.1482,-3.1482,0.0,-3.1482,-3.1482,-3.1482,-3.1482,-3.281,-3.4202,-3.5515,-3.5622,-3.5622,-3.5622,-3.5622,-3.5622,-3.5622,-3.5622,-3.5622,-3.5622,-3.5622,-3.5622,0.0,0.0,0.0,0.0,0.0,0.0,0.0,0.0,0.0,0.0,0.0,0.0,0.0,0.0,0.0,-2.2178,-2.1221,-2.0566,-2.0566,-1.9844,-1.9195,-1.9036,-1.798,-1.6846,-1.5779,-1.5538,-1.5098,-1.4583,-1.4743,-1.5003,-1.5297,-1.7091,-1.8226,-1.8419,-2.1132,-2.2754,-2.3018,-2.2942,-2.2859,-2.2849,-2.2085,0.0,-2.0713,-2.0627,-2.0593,-2.0566,-2.0566,-2.0566,-2.0566,-2.0566,-2.1603,-2.3294,-2.4337,-2.5288,-2.6245,-2.6452,-2.6533,-2.6533,-2.6533,-2.6533,-2.6533,-2.6533,-2.6533,-2.6533,-2.6533,-2.6533,0.0,-2.6533,-2.6533,-2.6714,-2.7484,-2.8363,-2.9192,-3.0072,-3.0896,-3.1482,-3.1482,-3.1482,-3.1482,-3.1482,-3.1482,-3.1482,-3.1482,-3.1482,-3.1482,-3.1482,-3.1482,-3.1482,-3.1482,-3.1482,-3.1482,-3.1482,-3.1482,-3.1482,-3.1482,-3.1482,-3.1482,-3.1482,-3.281,-3.4202,-3.5515,-3.5622,-3.5622,-3.5622,-3.5622,-3.5622,-3.5622,-3.5622,-3.5622,-3.5622,-3.5622,-3.5622,0.0,0.0,0.0,0.0,0.0,0.0,0.0,0.0,0.0,0.0,0.0,-2.6526,-2.4612,0.0,-2.2999,-2.1527,-2.0934,-2.0566,-2.0566,-1.9195,-1.839,-1.8957,-1.7496,-1.6273,-1.5779,-1.5213,-1.4782,-1.4596,-1.479,-1.5084,-1.5589,-1.6535,-1.7088,-1.7077,-1.977,-2.1851,-2.3046,-2.3124,-2.3073,-2.3073,-2.2725,-2.2306,-2.1855,-2.1005,-2.0589,-2.0584,-2.0635,-2.0566,-2.0644,-2.1078,-2.2188,-2.3588,-2.4636,-2.5581,-2.6533,-2.6533,-2.6533,-2.6533,-2.6533,-2.6533,-2.6533,-2.6533,-2.6533,-2.6533,-2.6533,-2.6533,-2.6533,-2.6533,-2.6533,-2.6782,-2.8051,-2.8684,-2.9317,-3.0584,-3.1219,-3.1482,-3.1482,-3.1482,-3.1482,-3.1482,-3.1482,-3.1482,-3.1482,-3.1482,-3.1482,-3.1482,-3.1482,-3.1482,-3.1482,-3.1482,-3.1482,-3.1482,-3.1482,-3.1482,-3.1482,-3.1853,-3.2216,-3.2516,-3.3531,-3.4544,-3.5577,-3.5622,-3.5622,-3.5622,-3.5622,-3.5622,-3.5622,-3.5622,-3.5622,-3.5622,-3.5622,-3.5622,0.0,0.0,0.0,0.0,0.0,0.0,0.0,-3.0511,-2.8939,-2.8812,-2.7537,-2.5873,-2.3879,-2.3514,-2.285,-2.0934,-2.0566,-2.0566,-2.0566,-1.8816,-1.7861,-1.8754,-1.6854,-1.5379,-1.5379,-1.4573,-1.4208,-1.4596,-1.4546,-1.4927,-1.5793,-1.5825,-1.5792,-1.5765,-1.7712,-2.0184,-2.3041,-2.3124,-2.3096,-2.3135,-2.314,-2.3067,-2.3053,-2.1719,-2.0899,-2.0585,-2.0635,-2.0566,-2.0634,-2.1593,-2.2627,-2.3588,-2.4636,-2.5581,-2.6533,-2.6533,-2.6533,-2.6533,-2.6533,-2.6533,-2.6533,-2.6533,-2.6533,-2.6533,-2.6533,-2.6533,-2.6521,-2.6714,-2.6714,-2.7095,-2.8812,-2.9254,-2.9628,-3.1161,-3.1482,-3.1482,-3.1482,-3.1482,-3.1482,-3.1482,-3.1482,-3.1482,-3.1482,-3.1482,-3.1482,-3.1482,-3.1482,-3.1482,-3.1482,-3.1482,-3.1482,-3.1482,-3.1482,-3.1482,-3.1482,-3.2176,-3.2895,-3.3531,-3.4235,-3.4894,-3.5577,-3.5622,-3.5622,-3.5622,-3.5622,-3.5622,-3.5622,-3.5622,-3.5622,-3.5622,-3.5622,-3.569,-3.6457,-3.5924,-3.5161,-3.3937,-3.3479,-3.2886,0.0,-2.9752,-2.8812,-2.7986,-2.7095,-2.5873,-2.3879,-2.3514,-2.285,-2.0934,-2.0566,-2.0566,-2.0566,-1.9225,-1.8331,-1.8412,-1.6027,-1.425,-1.425,-1.4166,-1.411,-1.4202,-1.4161,-1.4619,-1.578,-1.5841,-1.579,-1.5758,-1.6051,-1.8402,-2.3032,-2.3102,-2.3075,-2.3135,-2.3105,-2.3113,-2.3073,-2.2915,-2.2036,-2.0585,-2.0635,-2.0566,-2.0634,-2.1593,-2.2627,-2.3588,-2.4636,-2.5581,-2.6533,-2.6533,-2.6533,-2.6533,-2.6533,-2.6533,-2.6533,-2.6533,-2.6533,-2.6533,-2.6533,-2.6533,-2.6658,-2.7351,-2.7537,-2.7986,-2.969,-3.0133,-3.0389,-3.1278,-3.1482,-3.1482,-3.1482,-3.1482,-3.1482,-3.1482,-3.1482,-3.1482,-3.1482,-3.1482,-3.1482,-3.1482,-3.1482,-3.1482,-3.1482,-3.1482,-3.1482,-3.1482,-3.1482,-3.1482,-3.1482,-3.2176,-3.2895,-3.3531,-3.4235,-3.4894,-3.5577,-3.5622,-3.5622,-3.5622,-3.5622,-3.5622,-3.5622,-3.5622,-3.5622,-3.5622,-3.5622,-3.5994,-3.6603,-3.5959,-3.5244,-3.4414,-3.3598,-3.2772,-3.1834,-3.0659,-2.9504,-2.862,-2.7802,-2.6445,-2.394,-2.3514,-2.285,-2.0934,-2.0596,-2.0614,-2.0614,-2.0065,-1.917,-1.7935,-1.5558,-1.4088,-1.4088,-1.4088,-1.4135,-1.4071,-1.413,-1.4327,-1.4774,-1.5458,-1.5784,-1.5825,-1.5756,-1.6772,-1.8782,-2.1664,-2.3057,-2.3135,-2.3122,-2.3137,-2.3073,-2.3063,-2.2151,-2.0614,-2.0635,-2.1041,-2.1665,-2.1363,-2.2466,-2.4409,-2.4637,-2.5451,-2.6533,-2.6533,-2.6533,-2.6533,-2.6533,-2.6533,-2.6533,-2.6533,-2.6533,-2.6533,-2.6533,-2.6533,-2.6589,-2.6905,-2.7351,-2.7986,-2.9192,-2.995,-3.0524,-3.1278,-3.1482,-3.1482,-3.1482,-3.1482,-3.1482,-3.1482,-3.1482,-3.1482,-3.1482,-3.1482,-3.1482,-3.1482,-3.1482,-3.1482,-3.1482,-3.1482,-3.1482,-3.1482,-3.191,-3.212,-3.212,-3.313,-3.3887,-3.4186,-3.48,-3.5316,-3.5577,-3.5622,-3.5622,-3.5622,-3.5622,-3.5622,-3.5622,-3.5622,-3.5622,-3.5622,-3.5622,-3.6045,-3.7002,-3.6246,-3.5569,-3.4951,-3.3955,-3.3039,-3.2695,-3.1534,-3.0286,-2.9254,-2.8298,-2.6828,-2.4013,-2.3644,-2.3075,-2.0944,-2.0605,-2.0385,-1.9767,-2.0233,-2.0035,-1.8385,-1.5792,-1.4088,-1.4088,-1.4088,-1.4088,-1.4088,-1.4091,-1.4143,-1.4122,-1.492,-1.5287,-1.5356,-1.537,-1.6102,-1.7834,-2.131,-2.3095,-2.313,-2.3073,-2.2894,-2.2418,-2.2442,-2.1739,-2.0566,-2.0566,-2.1155,-2.1931,-2.1593,-2.2791,-2.4886,-2.4968,-2.566,-2.6533,-2.6533,-2.6533,-2.6533,-2.6533,-2.6533,-2.6533,-2.6533,-2.6533,-2.6533,-2.6533,-2.6658,-2.6905,-2.7095,-2.7802,-2.862,-2.9442,-3.0147,-3.0777,-3.1351,-3.1482,-3.1482,-3.1482,-3.1482,-3.1482,-3.1482,-3.1482,-3.1482,-3.1482,-3.1482,-3.1482,-3.1482,-3.1482,-3.1482,-3.1482,-3.1697,-3.1796,-3.1796,-3.2422,-3.2895,-3.2895,-3.3937,-3.4576,-3.4576,-3.5207,-3.5622,-3.5622,-3.5622,-3.5622,-3.5622,-3.5622,-3.5622,-3.5622,-3.5622,-3.5622,-3.5622,-3.5622,-3.6045,-3.7859,-3.7117,-3.6215,-3.5535,-3.4935,-3.4186,-3.2895,-3.1901,-3.0866,-2.9289,-2.8298,-2.6828,-2.4013,-2.4061,-2.3613,-2.1041,-2.0605,-1.9865,-1.7661,-1.9291,-2.0577,-2.0476,-1.669,-1.4088,-1.4088,-1.4088,-1.4088,-1.4088,-1.4095,-1.4123,-1.4115,-1.4135,-1.4164,-1.4148,-1.4148,-1.6921,-2.2822,-2.3044,-2.3093,-2.3144,-2.3124,-2.2231,-2.0688,-2.0695,-2.0671,-2.0566,-2.0566,-2.0641,-2.0772,-2.2646,-2.3822,-2.4625,-2.5975,-2.6452,-2.6533,-2.6533,-2.6533,-2.6533,-2.6533,-2.6533,-2.6533,-2.6533,-2.6533,-2.6533,-2.6533,-2.704,-2.7868,-2.8684,-2.9566,-3.0389,-3.1219,-3.1409,-3.1467,-3.1482,-3.1482,-3.1482,-3.1482,-3.1482,-3.1482,-3.1482,-3.1482,-3.1482,-3.1482,-3.1482,-3.1482,-3.1482,-3.1482,-3.1482,-3.1482,-3.212,-3.2547,-3.2547,-3.3198,-3.3598,-3.3598,-3.4186,-3.4576,-3.4576,-3.5207,-3.5622,-3.5622,-3.5622,-3.5622,-3.5622,-3.5622,-3.5622,-3.5622,-3.5622,-3.5622,-3.5622,-3.5622,-3.6045,-3.746,-3.7165,-3.6671,-3.5667,-3.4981,-3.4235,-3.2895,-3.2391,-3.1562,-2.9414,-2.9077,-2.8106,-2.48,-2.3977,-2.3141,-2.0918,-2.0589,-2.0329,-1.9553,-1.7622,-1.6308,-1.6308,-1.5007,-1.4088,-1.4088,-1.4088,-1.4088,-1.4088,-1.4088,-1.4128,-1.413,-1.413,-1.4084,-1.4084,-1.413,-1.5074,-1.7126,-1.9983,-2.1457,-2.1473,-2.1457,-2.1179,-2.0582,-2.0634,-2.0596,-2.0566,-2.0566,-2.0631,-2.0858,-2.4158,-2.56,-2.5873,-2.632,-2.6533,-2.6533,-2.6533,-2.6533,-2.6533,-2.6533,-2.6533,-2.6533,-2.6533,-2.6533,-2.6533,-2.6533,-2.6714,-2.7095,-2.792,-2.8748,-2.9628,-3.0464,-3.1087,-3.1482,-3.1482,-3.1482,-3.1482,-3.1482,-3.1482,-3.1482,-3.1482,-3.1482,-3.1482,-3.1482,-3.1482,-3.1482,-3.1482,-3.1482,-3.1697,-3.2176,-3.2437,-3.2788,-3.3251,-3.3887,-3.4284,-3.4284,-3.4894,-3.5253,-3.5253,-3.547,-3.5622,-3.5622,-3.5622,-3.5622,-3.5622,-3.5622,-3.5622,-3.5622,-3.5622,-3.5622,-3.5622,-3.5622,-3.5757,-3.7559,-3.7338,-3.7059,-3.6587,-3.5925,-3.5038,-3.3829,-3.3261,-3.2351,-3.0291,-2.968,-2.8606,-2.5731,-2.483,-2.3724,-2.1046,-1.929,-1.8318,-1.8252,-1.5883,-1.4102,-1.4128,-1.4108,-1.4102,-1.4128,-1.4108,-1.4088,-1.4088,-1.4088,-1.4088,-1.4088,-1.4088,-1.4088,-1.4088,-1.4128,-1.4122,-1.4062,-1.6912,-1.9033,-2.0623,-2.0623,-2.0624,-2.0566,-2.0566,-2.0566,-2.0566,-2.0566,-2.0572,-2.0771,-2.3327,-2.5241,-2.6511,-2.6483,-2.6533,-2.6533,-2.6533,-2.6533,-2.6533,-2.6533,-2.6533,-2.6533,-2.6533,-2.6533,-2.6533,-2.6533,-2.6523,-2.6734,-2.7841,-2.9002,-3.0011,-3.0584,-3.1087,-3.1482,-3.1482,-3.1482,-3.1482,-3.1482,-3.1482,-3.1482,-3.1482,-3.1482,-3.1482,-3.1482,-3.1482,-3.1482,-3.1482,-3.1482,-3.1739,-3.2492,-3.2788,-3.3182,-3.3887,-3.4544,-3.4941,-3.4941,-3.5362,-3.5622,-3.5622,-3.5622,-3.5622,-3.5622,-3.5622,-3.5622,-3.5622,-3.5622,-3.5622,-3.5622,-3.5622,-3.5622,-3.5622,-3.5622,-3.5622,-3.8021,-3.7713,-3.7429,-3.823,-3.7578,-3.649,-3.5542,-3.4448,-3.3214,-3.1797,-3.0235,-2.86,-2.6848,-2.6299,-2.4987,-2.1184,-1.6911,-1.4076,-1.4069,-1.4065,-1.4122,-1.4123,-1.3867,-1.3848,-1.4045,-1.4064,-1.4102,-1.4095,-1.4088,-1.4088,-1.4088,-1.4088,-1.4088,-1.4088,-1.4088,-1.4092,-1.4096,-1.4076,-1.6254,-2.0572,-2.0596,-2.0566,-2.0566,-2.0566,-2.0566,-2.0566,-2.0566,-2.0625,-2.0624,-2.0802,-2.3082,-2.649,-2.6533,-2.6533,-2.6533,-2.6533,-2.6533,-2.6533,-2.6533,-2.6533,-2.6533,-2.6533,-2.6533,-2.6533,-2.6533,-2.6501,-2.686,-2.8515,-3.0119,-3.1379,-3.1467,-3.1482,-3.1482,-3.1482,-3.1482,-3.1482,-3.1482,-3.1482,-3.1482,-3.1482,-3.1482,-3.1482,-3.1482,-3.1482,-3.1524,-3.1495,-3.1495,-3.1766,-3.2532,-3.3198,-3.3887,-3.4592,-3.5207,-3.5622,-3.5622,-3.5622,-3.5622,-3.5622,-3.5622,-3.5622,-3.5622,-3.5622,-3.5622,-3.5622,-3.5622,-3.5622,-3.5622,-3.5622,-3.5622,-3.5622,-3.5622,-3.5622,-3.6901,-3.7933,-3.8899,-3.8681,-3.7855,-3.679,-3.5783,-3.4547,-3.3226,-3.1804,-3.1145,-2.996,-2.7012,-2.4082,-2.1811,-2.0755,-1.6944,-1.4076,-1.4079,-1.4062,-1.4122,-1.4123,-1.1011,-1.0298,-1.3774,-1.4058,-1.4097,-1.4103,-1.4122,-1.4088,-1.4088,-1.4088,-1.4088,-1.4088,-1.4088,-1.4062,-1.4105,-1.4111,-1.6308,-2.0576,-2.0596,-2.0566,-2.0566,-2.0566,-2.0566,-2.0566,-2.0566,-2.0592,-2.0822,-2.3779,-2.5613,-2.6491,-2.6496,-2.6533,-2.6533,-2.6533,-2.6533,-2.6533,-2.6533,-2.6533,-2.6533,-2.6533,-2.6533,-2.6533,-2.6533,-2.6518,-2.6857,-2.8534,-2.9327,-2.9911,-3.1188,-3.1482,-3.1482,-3.1482,-3.1482,-3.1482,-3.1482,-3.1482,-3.1482,-3.1482,-3.1482,-3.1482,-3.1482,-3.1482,-3.1519,-3.1496,-3.149,-3.1927,-3.3187,-3.3479,-3.4053,-3.5207,-3.5515,-3.5622,-3.5622,-3.5622,-3.5622,-3.5622,-3.5622,-3.5622,-3.5622,-3.5622,-3.5622,-3.5622,-3.5622,-3.5622,-3.5622,-3.5622,-3.5622,-3.5622,-3.5622,-3.5622,-3.608,-3.6911,-3.7846,-3.8,-3.7966,-3.768,-3.7108,-3.5681,-3.4264,-3.3443,-3.2314,-3.0463,-2.7121,-2.33,-1.9992,-1.8056,-1.5718,-1.4129,-1.4122,-1.4097,-1.4078,-1.4084,-0.9919,-0.8115,-1.0758,-1.1008,-1.1052,-1.1,-1.2966,-1.4128,-1.4088,-1.4088,-1.4088,-1.4088,-1.4088,-1.4088,-1.4088,-1.6003,-1.8193,-2.0632,-2.0586,-2.0566,-2.0566,-2.0566,-2.0566,-2.0634,-2.0584,-2.0596,-2.09,-2.4865,-2.6513,-2.6462,-2.6471,-2.6533,-2.6533,-2.6533,-2.6533,-2.6533,-2.6533,-2.6533,-2.6533,-2.6533,-2.6533,-2.6496,-2.6523,-2.6514,-2.6842,-2.8539,-2.9547,-3.0323,-3.1276,-3.1482,-3.1482,-3.1482,-3.1482,-3.1482,-3.1482,-3.1482,-3.1482,-3.1482,-3.1482,-3.1482,-3.1482,-3.1482,-3.1492,-3.1505,-3.2514,-3.3347,-3.3578,-3.3609,-3.4121,-3.5453,-3.5622,-3.5622,-3.5622,-3.5622,-3.5622,-3.5622,-3.5622,-3.5622,-3.5622,-3.5622,-3.5622,-3.5622,-3.5622,-3.5622,-3.5622,-3.5622,-3.5622,-3.5622,-3.5622,-3.5622,-3.5537,-3.5489,-3.5711,-3.6521,-3.7405,-3.8006,-3.7767,-3.6319,-3.4951,-3.4599,-3.2304,-2.9378,-2.5972,-2.2603,-1.891,-1.4795,-1.4069,-1.384,-1.3266,-1.3188,-1.3194,-1.3205,-0.9566,-0.7104,-0.7075,-0.7121,-0.709,-0.7083,-1.0838,-1.3455,-1.4108,-1.4095,-1.4088,-1.4088,-1.4088,-1.4075,-1.4139,-1.7887,-2.0014,-2.0566,-2.0564,-2.0596,-2.0566,-2.0566,-2.0566,-2.0634,-2.0609,-2.0937,-2.166,-2.5098,-2.6503,-2.6527,-2.6477,-2.6533,-2.6533,-2.6533,-2.6533,-2.6533,-2.6533,-2.6533,-2.6533,-2.6533,-2.6533,-2.6526,-2.6524,-2.683,-2.7476,-2.8928,-3.0381,-3.1482,-3.1482,-3.1482,-3.1482,-3.1482,-3.1482,-3.1482,-3.1482,-3.1482,-3.1482,-3.1482,-3.1482,-3.1482,-3.1482,-3.1482,-3.1495,-3.1531,-3.3512,-3.4798,-3.3982,-3.373,-3.4112,-3.5464,-3.5622,-3.5622,-3.5622,-3.5622,-3.5622,-3.5622,-3.5622,-3.5622,-3.5622,-3.5622,-3.5622,-3.5622,-3.5622,-3.5622,-3.5622,-3.5622,-3.5622,-3.5622,-3.5622,-3.5622,-3.5512,-3.5503,-3.5317,-3.4572,-3.4525,-3.4268,-3.2827,-3.2221,-3.1408,-2.9388,-2.6621,-2.352,-2.0128,-1.8931,-1.7517,-1.4532,-1.4131,-1.2739,-0.882,-0.8319,-0.8352,-0.8333,-0.7603,-0.7075,-0.7122,-0.7119,-0.7099,-0.7061,-0.7857,-0.9981,-1.3926,-1.4128,-1.4088,-1.4088,-1.4088,-1.4105,-1.4124,-1.4828,-1.7025,-2.0579,-2.0572,-2.0595,-2.0566,-2.0566,-2.0566,-2.0634,-2.0595,-2.2439,-2.5541,-2.6212,-2.6504,-2.6528,-2.6509,-2.6533,-2.6533,-2.6533,-2.6533,-2.6533,-2.6533,-2.6533,-2.6533,-2.6533,-2.6533,-2.6526,-2.6524,-2.843,-3.0671,-3.1003,-3.1309,-3.1482,-3.1482,-3.1482,-3.1482,-3.1482,-3.1482,-3.1482,-3.1482,-3.1482,-3.1482,-3.1482,-3.1482,-3.1482,-3.1482,-3.1482,-3.1483,-3.1495,-3.1925,-3.2974,-3.4985,-3.4292,-3.4112,-3.5464,-3.5622,-3.5622,-3.5622,-3.5622,-3.5622,-3.5622,-3.5622,-3.5622,-3.5622,-3.5622,-3.5622,-3.5622,-3.5622,-3.5622,-3.5622,-3.5622,-3.5622,-3.5622,-3.5622,-3.5622,-3.5493,-3.5509,-3.523,-3.4088,-3.3796,-3.3587,-3.2756,-3.1873,-3.0535,-2.812,-2.5227,-2.2029,-1.8598,-1.636,-1.462,-1.3352,-1.1636,-0.9661,-0.7421,-0.7087,-0.7078,-0.7105,-0.7109,-0.7115,-0.7139,-0.7139,-0.7132,-0.7109,-0.7085,-0.9187,-1.3861,-1.4135,-1.4088,-1.4088,-1.4088,-1.4132,-1.4135,-1.4124,-1.5167,-1.7257,-1.9528,-2.0634,-2.0566,-2.0566,-2.0566,-2.0634,-2.0641,-2.1683,-2.3397,-2.3453,-2.4625,-2.6494,-2.6527,-2.6533,-2.6533,-2.6533,-2.6533,-2.6533,-2.6533,-2.6533,-2.6533,-2.6533,-2.6533,-2.6488,-2.6531,-2.883,-3.1498,-3.153,-3.1514,-3.1482,-3.1482,-3.1482,-3.1482,-3.1482,-3.1482,-3.1482,-3.1482,-3.1482,-3.1482,-3.1482,-3.1482,-3.1482,-3.1482,-3.1482,-3.1513,-3.1497,-3.2704,-3.4101,-3.5432,-3.5065,-3.491,-3.5543,-3.5622,-3.5622,-3.5622,-3.5622,-3.5622,-3.5622,-3.5622,-3.5622,-3.5622,-3.5622,-3.5622,-3.5622,-3.5622,-3.5622,-3.5622,-3.5622,-3.5622,-3.5622,-3.5622,-3.5622,-3.5493,-3.5496,-3.5281,-3.4394,-3.3963,-3.3701,-3.3318,-3.1782,-2.9722,-2.7157,-2.4184,-2.1169,-1.8536,-1.486,-1.2318,-1.2266,-0.9312,-0.6989,-0.7105,-0.7087,-0.7109,-0.7143,-0.7058,-0.7058,-0.7058,-0.7058,-0.7058,-0.7139,-0.7099,-0.9187,-1.3861,-1.4135,-1.4088,-1.4088,-1.4088,-1.4088,-1.4088,-1.4122,-1.4125,-1.4177,-1.8531,-2.0603,-2.0566,-2.0566,-2.0566,-2.0634,-2.0629,-2.0587,-2.0686,-2.1498,-2.3733,-2.6496,-2.649,-2.6533,-2.6533,-2.6533,-2.6533,-2.6533,-2.6533,-2.6533,-2.6508,-2.6501,-2.6463,-2.6473,-2.6517,-2.885,-3.1526,-3.1515,-3.1482,-3.1482,-3.1482,-3.1482,-3.1482,-3.1482,-3.1482,-3.1482,-3.1482,-3.1482,-3.1482,-3.1482,-3.1507,-3.1489,-3.1489,-3.1513,-3.1511,-3.1512,-3.3838,-3.5613,-3.5604,-3.5597,-3.5622,-3.5622,-3.5622,-3.5622,-3.5622,-3.5622,-3.5622,-3.5622,-3.5622,-3.5622,-3.5622,-3.5622,-3.5622,-3.5622,-3.5622,-3.5622,-3.5622,-3.5622,-3.5622,-3.5622,-3.5622,-3.5616,-3.5493,-3.5496,-3.547,-3.5361,-3.4573,-3.3401,-3.1792,-2.9616,-2.7074,-2.4102,-2.0816,-1.8365,-1.8066,-1.4898,-1.2304,-1.2305,-0.8941,-0.6549,-0.7048,-0.7114,-0.7094,-0.7064,-0.7081,-0.7081,-0.7081,-0.7081,-0.7074,-0.7143,-0.7099,-0.9187,-1.3861,-1.4135,-1.4088,-1.4088,-1.4088,-1.4088,-1.4088,-1.4068,-1.4074,-1.4184,-1.8519,-2.0598,-2.0566,-2.0566,-2.0566,-2.0566,-2.0615,-2.0592,-2.0903,-2.4448,-2.6202,-2.6494,-2.6521,-2.6533,-2.6533,-2.6533,-2.6533,-2.6533,-2.6533,-2.6533,-2.6471,-2.6509,-2.6526,-2.6503,-2.6489,-2.883,-3.1513,-3.1485,-3.1482,-3.1482,-3.1482,-3.1482,-3.1482,-3.1482,-3.1482,-3.1482,-3.1482,-3.1482,-3.1482,-3.1482,-3.1505,-3.1479,-3.1479,-3.1489,-3.1507,-3.1483,-3.3843,-3.5588,-3.5588,-3.5594,-3.5622,-3.5622,-3.5622,-3.5622,-3.5622,-3.5622,-3.5622,-3.5622,-3.5622,-3.5622,-3.5622,-3.5622,-3.5622,-3.5622,-3.5622,-3.5622,-3.5622,-3.5622,-3.5622,-3.5622,-3.5622,-3.5623,-3.5503,-3.5488,-3.5495,-3.5512,-3.4637,-3.3633,-3.2919,-3.0064,-2.6756,-2.3741,-2.0375,-1.7991,-1.8033,-1.4905,-1.1476,-0.911,-0.7328,-0.6351,-0.6612,-0.6902,-0.7107,-0.7078,-0.4554,-0.285,-0.285,-0.545,-0.7074,-0.7143,-0.7099,-0.7906,-0.9804,-1.2559,-1.4142,-1.4088,-1.4088,-1.4099,-1.4103,-1.4103,-1.4102,-1.4173,-1.8518,-2.0564,-2.0601,-2.0601,-2.0601,-2.0601,-2.0601,-2.0579,-2.0876,-2.4886,-2.6469,-2.6488,-2.6496,-2.6501,-2.6501,-2.6501,-2.6501,-2.6501,-2.6501,-2.6501,-2.6475,-2.6518,-2.7846,-2.9485,-2.951,-3.0424,-3.1514,-3.147,-3.1482,-3.1482,-3.1482,-3.1482,-3.1482,-3.1482,-3.1482,-3.1482,-3.1482,-3.1482,-3.1482,-3.1482,-3.1489,-3.2033,-3.3662,-3.3972,-3.3946,-3.3958,-3.4886,-3.5585,-3.5583,-3.5622,-3.5622,-3.5622,-3.5622,-3.5622,-3.5622,-3.5622,-3.5622,-3.5622,-3.5622,-3.5622,-3.5622,-3.5622,-3.5622,-3.5622,-3.5622,-3.5622,-3.5622,-3.5622,-3.5622,-3.5605,-3.5598,-3.5591,-3.5095,-3.5001,-3.4999,-3.5006,-3.4383,-3.3663,-3.3148,-2.9517,-2.5051,-2.0761,-1.7041,-1.4501,-1.4543,-1.2365,-0.9394,-0.5947,-0.4873,-0.4419,-0.447,-0.4749,-0.5028,-0.4958,-0.2044,0.0,0.0,-0.4285,-0.7061,-0.7088,-0.7138,-0.7132,-0.7129,-1.006,-1.2499,-1.4061,-1.4061,-1.4131,-1.4075,-1.3709,-1.3532,-1.3613,-1.7854,-1.9844,-1.9806,-1.981,-1.9862,-1.9862,-1.9862,-1.9837,-2.0031,-2.2856,-2.4614,-2.5523,-2.5483,-2.5498,-2.5498,-2.5498,-2.5498,-2.5498,-2.5498,-2.5498,-2.546,-2.5472,-2.7072,-2.9362,-3.097,-3.1531,-3.1486,-3.1498,-3.1522,-3.1519,-3.1519,-3.1516,-3.1513,-3.1513,-3.1513,-3.1513,-3.1513,-3.1513,-3.1513,-3.1513,-3.1505,-3.2103,-3.4032,-3.5041,-3.5607,-3.5604,-3.5599,-3.5576,-3.5611,-3.5622,-3.5622,-3.5622,-3.5622,-3.5622,-3.5622,-3.5622,-3.5622,-3.5622,-3.5622,-3.5622,-3.5622,-3.5622,-3.5622,-3.5622,-3.5622,-3.5622,-3.5622,-3.562,-3.5596,-3.5579,-3.5587,-3.5936,-3.4107,-3.3824,-3.3831,-3.3828,-3.3809,-3.3339,-3.1614,-2.7063,-2.1078,-1.3894,-0.9243,-0.6428,-0.6357,-0.6325,-0.5648,-0.3469,-0.1396,-0.0079,-0.008,-0.0082,-0.0084,-0.0086,0.0,0.0,0.0,-0.4291,-0.7112,-0.7139,-0.7114,-0.7102,-0.7133,-0.6617,-0.8774,-1.3922,-1.4097,-1.4135,-1.4122,-1.2942,-1.2321,-1.2389,-1.6234,-1.7992,-1.8026,-1.8055,-1.8035,-1.8035,-1.8035,-1.8021,-1.8024,-1.8054,-2.009,-2.3148,-2.3114,-2.3135,-2.3135,-2.3135,-2.3135,-2.3135,-2.3135,-2.3135,-2.3131,-2.3165,-2.3153,-2.423,-2.9788,-3.15,-3.1482,-3.1482,-3.1501,-3.15,-3.15,-3.1525,-3.1489,-3.1489,-3.1489,-3.1489,-3.1489,-3.1489,-3.1489,-3.1489,-3.1477,-3.1498,-3.1526,-3.3776,-3.5614,-3.5611,-3.5577,-3.5577,-3.5622,-3.5622,-3.5622,-3.5622,-3.5622,-3.5622,-3.5622,-3.5622,-3.5622,-3.5622,-3.5622,-3.5622,-3.5622,-3.5622,-3.5622,-3.5622,-3.5622,-3.5622,-3.5622,-3.56,-3.5604,-3.5587,-3.5601,-3.6701,-3.3899,-3.3822,-3.2059,-2.4795,-2.102,-1.8951,-1.8295,-1.6843,-1.455,-1.0992,-0.9221,-0.75,-0.4616,-0.2973,-0.1764,-0.1089,-0.039,0.0,0.0,0.0,0.0,0.0,0.0,0.0,0.0,-0.1399,-0.3639,-0.6891,-0.6787,-0.6536,-0.6525,-0.6431,-0.7101,-0.8707,-1.1427,-1.2889,-1.2843,-1.2492,-1.2279,-1.2345,-1.3514,-1.5466,-1.8019,-1.798,-1.7963,-1.7963,-1.7963,-1.7985,-1.8017,-1.8026,-1.9985,-2.3095,-2.3113,-2.307,-2.3084,-2.3084,-2.3084,-2.3084,-2.3084,-2.3084,-2.312,-2.3098,-2.4509,-2.6535,-2.8272,-3.0098,-3.1475,-3.1475,-3.1509,-3.108,-2.9317,-2.8813,-2.8808,-2.8808,-2.8808,-2.8808,-2.8808,-2.8808,-2.8827,-2.8862,-2.8822,-2.8808,-2.8842,-3.258,-3.5594,-3.5591,-3.5583,-3.5591,-3.5623,-3.5596,-3.5603,-3.5605,-3.5622,-3.5622,-3.5622,-3.5622,-3.5622,-3.5622,-3.5622,-3.5622,-3.5622,-3.5622,-3.5622,-3.5622,-3.5622,-3.5622,-3.5622,-3.5603,-3.6335,-3.7733,-3.7707,-3.8062,-2.5273,-2.5659,-2.402,-1.7402,-1.397,-1.2052,-1.1225,-1.0463,-0.9548,-0.8404,-0.7314,-0.5868,-0.3538,-0.1388,0.0155,0.0547,0.1174,0.1415,0.0877,0.129,0.1892,0.2554,0.1125,0.0,0.0,0.0,-0.127,-0.4227,-0.5553,-0.6322,-0.6324,-0.6314,-0.6327,-0.6271,-0.8704,-1.0762,-1.2311,-1.2322,-1.2302,-1.2324,-1.2326,-1.4308,-1.8031,-1.7987,-1.7998,-1.8008,-1.8008,-1.8008,0.0,-1.8015,-1.9231,-2.1296,-2.2577,-2.3119,-2.3078,-2.3078,-2.3078,-2.3078,-2.3078,-2.311,-2.3111,-2.309,-2.5148,-2.7596,-2.7579,-2.8753,-3.0051,-3.0051,-3.003,-2.9621,-2.8042,-2.7612,-2.7577,-2.7577,-2.7577,-2.7577,-2.7577,-2.7577,-2.7617,-2.7595,-2.8323,-2.894,-2.8958,-3.1708,-3.394,-3.3948,-3.3939,-3.3931,-3.3964,-3.4925,-3.5163,-3.4061,-3.4955,-3.5365,-3.4827,-3.5301,-3.5622,-3.5622,-3.5622,-3.5622,-3.5622,-3.5622,-3.5622,-3.5622,-3.6024,-3.6405,-3.6783,-3.599,-3.6457,-3.8132,-3.8526,-3.871,0.0,-1.1569,-1.1678,-1.1686,-1.1494,-1.0956,-0.934,-0.7377,0.0,-0.5796,-0.3722,-0.2153,-0.2636,-0.1164,0.0467,0.1565,0.3129,0.375,0.2418,0.3429,0.4991,0.6805,0.3099,0.0335,0.0,0.0,0.0,0.0,-0.3643,-0.587,-0.5886,-0.6119,-0.6268,-0.6325,-0.628,-0.8107,-1.187,-1.2182,-1.2284,-1.2271,-1.227,-1.4173,-1.7577,-1.7856,-1.7968,-1.8027,-1.8017,-1.8007,-1.7968,-1.7991,-1.813,-1.8659,-2.1861,-2.3088,-2.3122,-2.3122,-2.3122,-2.3122,-2.3122,-2.3086,-2.316,-2.3369,-2.5325,-2.7595,-2.7595,-2.761,-2.7627,-2.7627,-2.7598,-2.7579,-2.7579,-2.7631,-2.7625,-2.7625,-2.7625,-2.761,-2.758,-2.758,-2.761,-2.7607,-2.9533,-3.1177,-3.1205,-3.1193,-3.1186,-3.1216,-3.1199,-3.1199,-3.1216,-3.3567,-3.4227,-3.1491,-3.3634,-3.4746,-3.3372,-3.4709,-3.5605,-3.5605,-3.5605,-3.5622,-3.5622,-3.5684,-3.5701,-3.5701,-3.6757,-3.779,-3.869,-3.6753,-3.6348,-3.732,-3.8266,-3.8695,-0.2542,0.0,-0.7581,-0.7473,-0.5923,-0.4592,0.0,-0.4045,-0.244,-0.1611,-0.0924,-0.0309,0.0388,0.0932,0.1556,0.2577,0.3736,0.4351,0.382,0.4938,0.6009,0.6404,0.549,0.358,0.0328,0.0,0.0,0.0,-0.0947,-0.1494,-0.148,-0.4533,-0.63,-0.6335,-0.631,-0.6776,-0.7668,-1.0789,-1.2308,-1.2291,-1.2304,-1.2802,-1.3719,-1.6675,-1.8016,-1.7966,-1.7985,-1.7999,-1.7978,-1.7988,-1.956,-2.1959,-2.2783,-2.311,-2.3075,-2.3075,-2.3075,-2.3075,-2.3075,-2.308,-2.3474,-2.581,-2.7047,-2.7622,-2.7622,-2.76,-2.7616,-2.7616,-2.7622,-2.7629,-2.7629,-2.7619,-2.7625,-2.7625,-2.7625,-2.7585,-2.758,-2.7616,-2.7593,-2.758,-2.9534,-3.1196,-3.118,-3.1194,-3.1217,-3.1207,-3.1207,-3.1217,-3.1189,-3.1823,-3.1967,-3.1266,-3.1809,-3.2093,-3.1759,-3.409,-3.5606,-3.5606,-3.5582,-3.5622,-3.5622,-3.6362,-3.6817,-3.6817,-3.784,-3.8454,-3.8688,-3.8198,-3.8097,-3.835,-3.8601,-3.8711,0.289,-0.0524,-0.401,-0.3973,-0.249,-0.1291,-0.2213,-0.1224,0.0153,0.1234,0.1775,0.2469,0.3475,0.4103,0.4575,0.5118,0.6116,0.6736,0.6597,0.6906,0.6973,0.6366,0.6278,0.5408,0.3112,0.1117,0.0,0.0,0.0,0.0,0.0,-0.2151,-0.4261,-0.625,-0.6012,-0.6012,-0.632,-1.0318,-1.207,-1.1493,-1.1525,-1.1506,-1.1586,-1.3647,-1.5384,-1.6844,-1.6826,-1.6821,-1.6801,-1.6805,-1.8685,-2.1572,-2.1587,-2.1559,-2.1581,-2.1568,-2.1587,-2.1587,-2.1587,-2.1606,-2.2034,-2.4848,-2.5771,-2.6001,-2.7218,-2.7601,-2.7606,-2.76,-2.7625,-2.7625,-2.7625,-2.7625,-2.7625,-2.7625,-2.7625,-2.762,-2.7603,-2.8448,-2.9264,-2.9253,-3.0309,-3.12,-3.1179,-3.119,-3.119,-3.119,-3.119,-3.1185,-3.1207,-3.1207,-3.1217,-3.1213,-3.1213,-3.1213,-3.1213,-3.3068,-3.4338,-3.4593,-3.4959,-3.5164,-3.5164,-3.5665,-3.6233,-3.6958,-3.7649,-3.8204,-3.8703,-3.8703,-3.8697,-3.8715,-3.8715,-3.8702,0.7127,0.3882,0.0456,0.0,0.0537,0.1235,0.1387,0.2073,0.2913,0.3844,0.4696,0.5622,0.6543,0.7431,0.7995,0.7956,0.8742,0.9372,0.9523,0.8888,0.8031,0.7042,0.6513,0.63,0.6264,0.3047,0.0861,0.047,0.0156,0.0,0.0,0.0,-0.163,-0.5209,-0.5347,-0.5678,-0.6187,-0.9513,-1.1064,-1.0579,-1.061,-1.0632,-1.0584,-1.0587,-1.2367,-1.5387,-1.5368,-1.542,-1.5374,-1.5378,-1.69,-1.9115,-1.9149,-1.9377,-1.98,-1.9797,-1.9768,-1.9824,-1.9775,-2.0064,-2.0716,-2.289,-2.358,-2.4031,-2.6288,-2.6979,-2.7006,-2.6961,-2.726,-2.7605,-2.7605,-2.7605,-2.762,-2.76,-2.762,-2.7618,-2.7607,-2.9486,-3.1186,-3.1198,-3.1191,-3.1215,-3.1219,-3.119,-3.119,-3.119,-3.119,-3.119,-3.119,-3.119,-3.119,-3.119,-3.119,-3.119,-3.119,-3.1998,-3.2683,-3.3141,-3.4048,-3.4662,-3.4815,-3.4657,-3.5223,-3.6606,-3.6855,-3.743,-3.834,-3.8469,-3.8524,-3.8524,-3.8652,-3.8707,1.1223,1.0583,0.9427,0.6821,0.6349,0.6764,0.7547,0.7899,0.8183,0.8344,0.8505,0.8666,0.8817,0.8983,0.9069,0.9059,0.9216,0.9593,1.0415,0.9739,0.9301,0.964,0.7672,0.6276,0.6294,0.5699,0.4616,0.2734,0.0998,0.0,0.0,0.0,-0.0289,-0.0913,-0.3862,-0.5431,-0.5571,-0.6143,-0.7855,-1.06,-1.0568,-1.0613,-1.0578,-1.0577,-1.2383,-1.5425,-1.5378,-1.5405,-1.537,-1.539,-1.5652,-1.6067,-1.606,-1.7596,-1.9803,-1.9818,-1.9793,-1.9808,-1.9813,-2.1202,-2.3065,-2.347,-2.3595,-2.3655,-2.4072,-2.4217,-2.4221,-2.4214,-2.5836,-2.7593,-2.7593,-2.7593,-2.7607,-2.758,-2.7607,-2.7582,-2.7595,-2.9516,-3.1198,-3.12,-3.1196,-3.1179,-3.1207,-3.119,-3.119,-3.119,-3.119,-3.119,-3.119,-3.119,-3.119,-3.119,-3.119,-3.119,-3.119,-3.1326,-3.1606,-3.2041,-3.3394,-3.4541,-3.5339,-3.5367,-3.5648,-3.6362,-3.6399,-3.6501,-3.667,-3.7349,-3.7661,-3.7679,-3.8377,-3.8707,1.3912,1.4426,1.4829,1.3494,1.1604,1.0211,1.063,1.1193,1.1617,1.1617,1.1617,1.1765,1.2371,1.1575,1.0846,1.0944,1.095,1.1099,1.1545,1.1248,1.0807,1.0599,0.9497,0.8103,0.643,0.63,0.5822,0.468,0.3648,0.2238,0.0145,0.0,0.0,0.0,-0.1638,-0.3394,-0.5379,-0.542,-0.6171,-0.7829,-0.9716,-1.0604,-1.0621,-1.0573,-1.1399,-1.2923,-1.4616,-1.5399,-1.54,-1.5428,-1.5375,-1.5533,-1.7137,-1.862,-1.979,-1.9809,-1.9798,-1.9787,-1.9804,-2.1472,-2.3605,-2.3584,-2.36,-2.3585,-2.3585,-2.3585,-2.3584,-2.3584,-2.4489,-2.5416,-2.5416,-2.5416,-2.5448,-2.542,-2.6566,-2.7955,-2.9284,-3.0402,-3.1183,-3.1202,-3.121,-3.1206,-3.1193,-3.121,-3.1206,-3.1173,-3.119,-3.119,-3.119,-3.119,-3.119,-3.119,-3.1372,-3.1528,-3.1528,-3.175,-3.1986,-3.2179,-3.3088,-3.388,-3.4539,-3.4586,-3.4892,-3.5587,-3.5605,-3.5844,-3.6303,-3.667,-3.6835,-3.6853,-3.7679,-3.8046,1.6651,1.7417,1.8374,1.8522,1.5947,1.3457,1.3472,1.3866,1.419,1.3999,1.4007,1.4237,1.5084,1.3909,1.2903,1.2938,1.2945,1.2945,1.2945,1.2945,1.2645,1.1601,1.1298,1.0151,0.7567,0.6896,0.6547,0.619,0.5793,0.4264,0.1469,0.0486,0.0,0.0,0.0,-0.1338,-0.409,-0.497,-0.5415,-0.5425,-0.8096,-0.9796,-1.0617,-1.0584,-1.0622,-1.0751,-1.3994,-1.5398,-1.541,-1.543,-1.5408,-1.5679,-1.864,-1.9812,-1.9812,-1.9822,-1.9798,-1.9813,-1.9781,-2.1492,-2.3576,-2.3585,-2.3595,-2.3595,-2.3595,-2.3595,-2.3595,-2.3595,-2.36,-2.362,-2.362,-2.3593,-2.3627,-2.3585,-2.5518,-2.7891,-2.9759,-3.0152,-3.0154,-3.0165,-3.015,-3.0148,-3.0153,-3.0462,-3.0649,-3.0531,-3.0509,-3.0526,-3.0666,-3.0666,-3.0751,-3.092,-3.1308,-3.1653,-3.1951,-3.24,-3.2648,-3.2648,-3.3075,-3.3494,-3.3807,-3.3807,-3.41,-3.4697,-3.4715,-3.5055,-3.5716,-3.5899,-3.6009,-3.6028,-3.6835,-3.7202,2.0246,2.0311,2.0375,2.0386,1.8858,1.7321,1.7465,1.6784,1.5974,1.5209,1.5084,1.5084,1.5163,1.5084,1.5013,1.5021,1.5021,1.5021,1.5021,1.5021,1.4593,1.3593,1.2684,1.1643,1.0548,0.8756,0.7622,0.736,0.5659,0.4819,0.5259,0.1907,0.0,0.0,0.0,-0.0134,-0.0402,-0.3751,-0.5415,-0.5425,-0.5625,-0.7488,-1.0624,-1.0611,-1.0618,-1.0808,-1.4031,-1.54,-1.5407,-1.542,-1.5408,-1.5679,-1.864,-1.9809,-1.9772,-1.9811,-1.9798,-1.9813,-1.9781,-2.1492,-2.3576,-2.3585,-2.3595,-2.3595,-2.3595,-2.3595,-2.3595,-2.3595,-2.3581,-2.3611,-2.3611,-2.3613,-2.3599,-2.3603,-2.5233,-2.6825,-2.6981,-2.7005,-2.7002,-2.7022,-2.7005,-2.7022,-2.7022,-2.8199,-2.8991,-2.8491,-2.8404,-2.8612,-2.9093,-2.918,-2.9414,-3.0125,-3.0518,-3.1237,-3.2347,-3.2872,-3.3154,-3.3154,-3.3522,-3.3762,-3.3807,-3.3807,-3.3825,-3.3899,-3.3899,-3.3917,-3.3972,-3.4743,-3.5082,-3.51,-3.5973,-3.6376,2.0719,2.1353,2.2051,2.1553,2.1221,2.0773,1.9803,1.927,1.893,1.8619,1.8103,1.7444,1.628,1.607,1.586,1.5305,1.5234,1.5234,1.5234,1.5234,1.5092,1.4665,1.3723,1.2764,1.1797,1.0336,0.9061,0.8265,0.6859,0.5859,0.544,0.356,0.1939,0.0871,0.0268,-0.0268,-0.0804,-0.2345,-0.3882,-0.5411,-0.5377,-0.6685,-0.904,-1.0142,-1.0568,-1.0684,-1.1858,-1.3518,-1.5367,-1.5428,-1.5391,-1.5679,-1.864,-1.9787,-1.9788,-1.9788,-1.9793,-1.9813,-1.9781,-2.1492,-2.3576,-2.3585,-2.3595,-2.3595,-2.3595,-2.3595,-2.3595,-2.3595,-2.3595,-2.3595,-2.3595,-2.3576,-2.3773,-2.4441,-2.5672,-2.6716,-2.6714,-2.6709,-2.6705,-2.6705,-2.6705,-2.6704,-2.6697,-2.77,-2.8433,-2.8238,-2.8477,-2.8769,-2.8958,-2.9175,-2.9402,-2.9693,-3.0354,-3.1041,-3.1753,-3.2429,-3.2821,-3.2821,-3.3433,-3.3807,-3.3807,-3.3807,-3.3807,-3.3807,-3.3807,-3.3807,-3.3807,-3.4119,-3.4266,-3.4284,-3.511,-3.5495,2.1479,2.2249,2.2944,2.2445,2.2702,2.2823,2.1667,2.1164,2.091,2.0655,2.0139,1.9278,1.7726,1.7453,1.7179,1.6228,1.6088,1.6088,1.6088,1.6088,1.5948,1.5649,1.5013,1.4076,1.283,1.1552,1.0361,0.9136,0.8005,0.6848,0.5796,0.4869,0.3742,0.2209,0.1005,0.0134,-0.0469,-0.1273,-0.2479,-0.4092,-0.4662,-0.5767,-0.7223,-0.9186,-1.027,-1.0586,-1.0581,-1.1859,-1.3934,-1.4962,-1.5391,-1.5592,-1.7623,-1.8402,-1.8537,-1.9438,-1.9795,-1.9788,-1.9791,-2.1484,-2.3601,-2.3599,-2.3595,-2.3595,-2.3595,-2.3595,-2.3595,-2.3595,-2.3827,-2.4101,-2.3982,-2.4258,-2.4668,-2.5116,-2.5724,-2.6307,-2.6647,-2.6707,-2.6691,-2.6691,-2.6691,-2.6708,-2.6706,-2.7265,-2.7776,-2.7877,-2.8236,-2.851,-2.8647,-2.8862,-2.9109,-2.9495,-3.0297,-3.0948,-3.1359,-3.1898,-3.2228,-3.2228,-3.2981,-3.3532,-3.3788,-3.3807,-3.3807,-3.3807,-3.3807,-3.3807,-3.3807,-3.3807,-3.3807,-3.3807,-3.4376,-3.4633,2.2884,2.3078,2.3078,2.3078,2.3078,2.3078,2.3078,2.2506,2.1678,2.0782,2.059,2.0333,1.9497,1.9309,1.9044,1.8134,1.8008,1.8008,1.8008,1.8008,1.7647,1.6706,1.6636,1.5852,1.3882,1.255,1.1333,1.0188,0.8901,0.7793,0.6793,0.5855,0.4932,0.4015,0.2277,0.134,0.1273,-0.0402,-0.1273,-0.134,-0.3145,-0.4466,-0.5491,-0.7772,-0.9467,-1.0611,-1.0586,-1.0622,-1.0877,-1.4063,-1.5391,-1.5372,-1.5421,-1.5406,-1.5807,-1.869,-1.9826,-1.9819,-1.9834,-2.1486,-2.3568,-2.3554,-2.358,-2.358,-2.358,-2.3595,-2.3595,-2.3595,-2.4361,-2.5086,-2.4801,-2.5695,-2.6439,-2.5448,-2.5188,-2.5497,-2.6472,-2.6691,-2.6691,-2.6691,-2.6691,-2.6691,-2.6691,-2.6691,-2.6858,-2.7224,-2.7303,-2.7457,-2.7869,-2.7897,-2.835,-2.9485,-3.0305,-3.093,-3.1341,-3.1366,-3.1384,-3.1384,-3.2137,-3.2963,-3.3752,-3.3807,-3.3807,-3.3807,-3.3807,-3.3807,-3.3807,-3.3807,-3.3807,-3.3807,-3.3807,-3.3807,2.2884,2.3078,2.3078,2.3078,2.3078,2.3078,2.3078,2.2944,2.2506,2.1678,2.1491,2.1239,2.0398,1.9683,1.9243,1.8977,1.8395,1.8008,1.8008,1.8008,1.7862,1.7647,1.7001,1.6243,1.5343,1.3629,1.2287,1.1633,0.9968,0.8826,0.8554,0.7692,0.651,0.4932,0.4397,0.3201,0.134,0.0804,-0.0067,-0.1273,-0.1876,-0.3203,-0.5384,-0.6715,-0.8172,-0.9695,-1.0334,-1.0571,-1.0877,-1.4063,-1.5391,-1.5382,-1.5425,-1.6677,-1.8614,-1.945,-1.9808,-2.0042,-2.1844,-2.1752,-2.0858,-2.0864,-2.1496,-2.2263,-2.2263,-2.2881,-2.358,-2.358,-2.3819,-2.4284,-2.5163,-2.5699,-2.5869,-2.5325,-2.5497,-2.5855,-2.6142,-2.6487,-2.6691,-2.6691,-2.6691,-2.6691,-2.6691,-2.6691,-2.6758,-2.6873,-2.7115,-2.7512,-2.8166,-2.8264,-2.8484,-2.9101,-2.9381,-2.9594,-2.969,-3.0228,-3.0558,-3.0558,-3.1311,-3.2118,-3.2926,-3.3495,-3.3807,-3.3807,-3.3807,-3.3807,-3.3807,-3.3807,-3.3807,-3.3807,-3.3807,-3.3807,2.2384,2.2884,2.3078,2.3078,2.3078,2.3078,2.3078,2.3078,2.2944,2.2506,2.2384,2.2125,2.129,2.0719,2.0204,1.9879,1.9365,1.9044,1.9044,1.8721,1.8654,1.8977,1.7891,1.6961,1.6438,1.4936,1.3606,1.2732,1.1509,1.0451,0.9824,0.9302,0.7996,0.592,0.5522,0.4331,0.241,0.1675,0.0804,-0.0268,-0.0938,-0.2139,-0.3799,-0.5391,-0.6907,-0.8355,-0.993,-1.0631,-1.0822,-1.4073,-1.5419,-1.5515,-1.6665,-1.7711,-1.8478,-1.8477,-1.8804,-1.9438,-2.1411,-2.1052,-1.9727,-1.9711,-2.0491,-2.1382,-2.1015,-2.1939,-2.305,-2.2949,-2.3255,-2.3818,-2.468,-2.5056,-2.533,-2.5721,-2.6052,-2.6297,-2.6297,-2.6505,-2.6691,-2.6691,-2.6691,-2.6758,-2.6906,-2.6939,-2.7051,-2.733,-2.7718,-2.8129,-2.8565,-2.8633,-2.8725,-2.8975,-2.8994,-2.8994,-2.8994,-2.9457,-2.9732,-2.9732,-3.0485,-3.1146,-3.1641,-3.2742,-3.333,-3.333,-3.3642,-3.3807,-3.3807,-3.3807,-3.3807,-3.3807,-3.3807,-3.3807,2.1628,2.2445,2.3017,2.3065,2.3078,2.3078,2.3078,2.3078,2.3078,2.3078,2.3078,2.2884,2.2125,2.1939,2.1628,2.0846,2.0655,2.059,2.059,1.9944,1.9683,2.0526,1.9177,1.7974,1.7347,1.627,1.5005,1.3584,1.319,1.2312,1.0801,1.0676,0.9527,0.7102,0.6048,0.513,0.4276,0.2476,0.1541,0.154,-0.0201,-0.1072,-0.1272,-0.3931,-0.5789,-0.6981,-0.9526,-1.0624,-1.0822,-1.3769,-1.5153,-1.5625,-1.8202,-1.7954,-1.6208,-1.6394,-1.7158,-1.8209,-1.9314,-1.971,-1.9683,-1.9698,-2.0229,-2.074,-1.9947,-2.0831,-2.2117,-2.1888,-2.2683,-2.357,-2.3687,-2.4079,-2.4782,-2.6167,-2.6539,-2.6623,-2.6674,-2.6691,-2.6691,-2.6691,-2.6691,-2.6825,-2.7178,-2.7272,-2.7542,-2.8298,-2.8707,-2.8952,-2.8994,-2.8994,-2.8994,-2.8994,-2.8994,-2.8994,-2.8994,-2.8994,-2.8994,-2.8994,-2.9696,-3.0099,-3.0099,-3.1641,-3.2504,-3.2529,-3.3327,-3.3732,-3.3758,-3.3858,-3.3895,-3.3895,-3.3895,-3.3895,2.1491,2.2013,2.2322,2.2944,2.3078,2.3078,2.3078,2.3078,2.3078,2.3078,2.3078,2.3078,2.2884,2.2322,2.1815,2.1616,2.1037,2.059,2.059,2.0462,2.0398,2.059,2.0268,1.9479,1.7937,1.7046,1.5804,1.4134,1.3415,1.2818,1.2504,1.1881,1.0933,0.9717,0.8195,0.6963,0.6025,0.4331,0.3407,0.3396,0.1604,0.0401,-0.0401,-0.307,-0.5529,-0.7832,-0.9792,-1.0571,-1.0678,-1.1367,-1.3101,-1.5339,-1.4634,-1.4063,-1.3882,-1.5753,-1.6629,-1.7063,-1.8461,-1.8886,-1.8976,-1.9521,-1.9841,-1.993,-1.9753,-2.0311,-2.1114,-2.1341,-2.1983,-2.2749,-2.3503,-2.3786,-2.4049,-2.4801,-2.5406,-2.5998,-2.6573,-2.6691,-2.6691,-2.6691,-2.6691,-2.6725,-2.6808,-2.7083,-2.7542,-2.8298,-2.8471,-2.8658,-2.8952,-2.8994,-2.8994,-2.8994,-2.8994,-2.8994,-2.8994,-2.8994,-2.8994,-2.8994,-2.914,-2.925,-2.925,-3.0797,-3.1765,-3.1982,-3.2762,-3.3268,-3.3489,-3.4167,-3.4505,-3.4505,-3.4505,-3.4505,2.0322,2.1239,2.2075,2.2884,2.3078,2.3078,2.3078,2.3078,2.3078,2.3078,2.3078,2.3078,2.3078,2.2763,2.2445,2.2445,2.2113,2.1803,2.1803,2.1491,2.1365,2.1729,2.1101,2.0198,1.9213,1.8065,1.683,1.5381,1.4619,1.3965,1.3606,1.3174,1.2174,1.0544,0.9666,0.8575,0.7279,0.5905,0.5051,0.459,0.3266,0.1667,-0.0067,-0.2806,-0.5463,-0.8091,-0.9215,-1.0085,-1.0635,-1.1002,-1.2035,-1.3396,-1.3012,-1.3366,-1.4216,-1.5404,-1.6138,-1.6657,-1.765,-1.8145,-1.8466,-1.912,-1.9485,-1.969,-1.969,-2.0059,-2.0605,-2.103,-2.1555,-2.2112,-2.2843,-2.3031,-2.3176,-2.3806,-2.4526,-2.5169,-2.5541,-2.5913,-2.6232,-2.6409,-2.6764,-2.7115,-2.7435,-2.7862,-2.8237,-2.8633,-2.8682,-2.8773,-2.8975,-2.8994,-2.8994,-2.8994,-2.8994,-2.8994,-2.8994,-2.9112,-2.9181,-2.9181,-2.9272,-2.9355,-2.9355,-3.0134,-3.0807,-3.1216,-3.2017,-3.2748,-3.3391,-3.3863,-3.4278,-3.4694,-3.4694,-3.4694,1.8803,2.0451,2.2063,2.2763,2.3017,2.3078,2.3078,2.3078,2.3078,2.3078,2.3078,2.3078,2.3078,2.3078,2.3078,2.3078,2.3078,2.3078,2.3078,2.2506,2.2384,2.3005,2.1865,2.0896,2.0461,1.9182,1.7954,1.6782,1.614,1.5449,1.4619,1.4492,1.3382,1.1224,1.0732,0.992,0.8661,0.7469,0.6555,0.5978,0.4785,0.2725,-0.0067,-0.227,-0.486,-0.7562,-0.8317,-0.9262,-1.0322,-1.1121,-1.1429,-1.149,-1.2327,-1.3574,-1.4919,-1.5112,-1.5602,-1.6281,-1.7021,-1.7666,-1.8185,-1.8727,-1.9244,-1.969,-1.969,-1.9965,-2.0416,-2.0862,-2.1275,-2.1718,-2.218,-2.231,-2.2462,-2.3071,-2.3706,-2.4245,-2.4455,-2.4983,-2.5535,-2.601,-2.6753,-2.7512,-2.8272,-2.8682,-2.8929,-2.8994,-2.8994,-2.8994,-2.8994,-2.8994,-2.9017,-2.9067,-2.9067,-2.9089,-2.9115,-2.9332,-2.9454,-2.9454,-2.9607,-2.9696,-2.9696,-2.9696,-2.9945,-3.0485,-3.1308,-3.2161,-3.3109,-3.3393,-3.3904,-3.4624,-3.4775,-3.4851,1.7881,1.9933,2.1939,2.2002,2.2567,2.3078,2.3078,2.3078,2.3078,2.3078,2.3078,2.3078,2.3078,2.3078,2.3078,2.3078,2.3078,2.3078,2.3078,2.3017,2.3005,2.3078,2.2884,2.2138,2.0531,2.0192,1.9344,1.7601,1.7357,1.6968,1.6255,1.5505,1.474,1.3768,1.1603,1.0746,1.126,0.8965,0.8151,0.8742,0.6306,0.3323,0.0,-0.04,-0.2394,-0.572,-0.7372,-0.8493,-0.9094,-0.9916,-1.0908,-1.1976,-1.175,-1.2317,-1.3329,-1.4392,-1.4846,-1.5186,-1.6744,-1.7666,-1.8185,-1.8727,-1.9244,-1.969,-1.969,-1.9965,-2.0416,-2.0862,-2.1275,-2.1718,-2.218,-2.231,-2.2327,-2.2429,-2.2713,-2.3227,-2.4279,-2.4591,-2.4845,-2.5537,-2.6553,-2.7512,-2.8272,-2.8446,-2.859,-2.8952,-2.8994,-2.8994,-2.8994,-2.8994,-2.9089,-2.933,-2.9351,-2.9434,-2.9588,-2.9643,-2.9661,-2.9661,-2.9678,-2.9696,-2.9696,-2.9696,-2.982,-3.0095,-3.0931,-3.1554,-3.193,-3.3369,-3.415,-3.4285,-3.5038,-3.5383,1.7387,1.9477,2.1302,2.1753,2.2506,2.3078,2.3078,2.3078,2.3245,2.3649,2.3767,2.3649,2.3185,2.3484,2.3767,2.3767,2.4105,2.4381,2.4381,2.4047,2.3767,2.3767,2.3365,2.258,2.1117,2.0653,1.9811,1.8302,1.7841,1.7468,1.7146,1.6394,1.5631,1.4866,1.289,1.2066,1.2451,1.0451,0.9134,0.8549,0.6375,0.4193,0.2203,0.0667,-0.1929,-0.5325,-0.6113,-0.7108,-0.8287,-0.9269,-0.9957,-1.057,-1.136,-1.2136,-1.2957,-1.3862,-1.4595,-1.532,-1.6102,-1.7107,-1.8145,-1.838,-1.9006,-1.9747,-1.9965,-2.0158,-2.0434,-2.1134,-2.146,-2.1718,-2.218,-2.231,-2.2349,-2.2473,-2.2625,-2.2911,-2.3632,-2.4091,-2.4667,-2.5627,-2.6783,-2.7677,-2.8009,-2.8439,-2.8815,-2.8975,-2.8994,-2.8994,-2.8994,-2.8994,-2.9062,-2.9178,-2.931,-2.9434,-2.9532,-2.9748,-2.9842,-2.9804,-3.0003,-3.0099,-3.0099,-3.0099,-3.0142,-3.0209,-3.0438,-3.0953,-3.1698,-3.2449,-3.3276,-3.4199,-3.4584,-3.5026,1.6917,1.9027,2.0782,2.1428,2.231,2.3078,2.3078,2.3078,2.3305,2.4118,2.4292,2.4176,2.3754,2.4163,2.4567,2.4567,2.5063,2.5398,2.5398,2.4951,2.4567,2.4567,2.4047,2.3199,2.1903,2.1275,2.0416,1.9064,1.8447,1.8058,1.7907,1.7202,1.6394,1.5611,1.4118,1.3312,1.3312,1.1725,1.0028,0.8291,0.6706,0.5394,0.4276,0.2002,-0.0798,-0.3987,-0.4626,-0.5694,-0.7012,-0.8047,-0.8708,-0.92,-1.0675,-1.1787,-1.2628,-1.3474,-1.4457,-1.541,-1.5543,-1.6718,-1.8106,-1.8106,-1.8817,-1.9747,-2.007,-2.0314,-2.0616,-2.1259,-2.1598,-2.1869,-2.2209,-2.2349,-2.248,-2.2678,-2.2848,-2.2996,-2.3165,-2.3784,-2.4584,-2.5548,-2.6604,-2.7442,-2.775,-2.8349,-2.8809,-2.898,-2.9093,-2.916,-2.9112,-2.9119,-2.9151,-2.9214,-2.9342,-2.9495,-2.9626,-2.9927,-3.007,-3.0032,-3.026,-3.0398,-3.0398,-3.0398,-3.0398,-3.0398,-3.0209,-3.0535,-3.1371,-3.1583,-3.2333,-3.3564,-3.3987,-3.4545,1.6419,1.8572,2.059,2.0655,2.1865,2.3078,2.3078,2.3078,2.3305,2.4118,2.4292,2.4509,2.5175,2.5287,2.5342,2.5342,2.5342,2.5398,2.5398,2.5342,2.5342,2.5342,2.5287,2.4586,2.2737,2.2511,2.1719,1.9874,1.9695,1.9371,1.8661,1.795,1.7191,1.6482,1.4963,1.4145,1.4145,1.2565,1.0899,0.921,0.8285,0.6907,0.5193,0.4209,0.2336,-0.04,-0.2853,-0.4222,-0.4937,-0.5677,-0.7052,-0.8803,-0.9541,-1.0663,-1.2003,-1.3331,-1.419,-1.4835,-1.541,-1.6718,-1.8106,-1.8106,-1.8817,-1.9711,-1.9711,-2.0311,-2.0959,-2.1023,-2.1615,-2.2282,-2.2282,-2.2473,-2.2686,-2.279,-2.3224,-2.3566,-2.3259,-2.3784,-2.4424,-2.4869,-2.5587,-2.6457,-2.7596,-2.7985,-2.8344,-2.8911,-2.9377,-2.9588,-2.9394,-2.942,-2.9578,-2.9829,-2.965,-2.9723,-3.0292,-3.0367,-3.0367,-3.0367,-3.0398,-3.0398,-3.0398,-3.0398,-3.0398,-3.0398,-3.0398,-3.0417,-3.0456,-3.1295,-3.1737,-3.1872,-3.3449,-3.4218,1.5438,1.7269,1.9149,2.0311,2.1479,2.2445,2.3005,2.3484,2.4105,2.4851,2.5398,2.5946,2.6707,2.6443,2.6122,2.6122,2.6481,2.6811,2.6811,2.639,2.6122,2.6122,2.5673,2.4805,2.3387,2.3226,2.2466,2.0588,2.0446,2.0144,1.9423,1.8715,1.795,1.7246,1.5736,1.4405,1.3425,1.2879,1.1757,1.0066,0.925,0.7892,0.6187,0.5262,0.4,0.24,-0.013,-0.2265,-0.4033,-0.4783,-0.5978,-0.7481,-0.8613,-0.9915,-1.1266,-1.2199,-1.3453,-1.4744,-1.4971,-1.6366,-1.8106,-1.8106,-1.8817,-1.9747,-2.0,-2.0532,-2.1055,-2.1306,-2.184,-2.2349,-2.25,-2.2634,-2.2822,-2.3271,-2.371,-2.3996,-2.3876,-2.4052,-2.4272,-2.4433,-2.5197,-2.5943,-2.6393,-2.7475,-2.837,-2.8577,-2.9175,-2.9548,-2.9457,-2.9568,-2.9674,-2.9758,-2.968,-2.9708,-2.9931,-3.0222,-3.0398,-3.0398,-3.0398,-3.0398,-3.0398,-3.0398,-3.0398,-3.0398,-3.0398,-3.0398,-3.0398,-3.0717,-3.116,-3.1698,-3.1744,-3.2648,1.495,1.6522,1.8285,1.9792,2.1049,2.2075,2.2567,2.3292,2.4105,2.4894,2.5618,2.6336,2.7086,2.7174,2.7159,2.7159,2.7765,2.8207,2.8207,2.7615,2.7159,2.7159,2.6587,2.5558,2.4109,2.3946,2.3078,2.0938,2.0795,2.0497,1.985,1.9097,1.8232,1.7246,1.626,1.4983,1.3425,1.3425,1.2549,1.0933,1.0072,0.8924,0.7502,0.6314,0.5262,0.4334,0.2332,0.0,-0.2444,-0.3722,-0.4854,-0.6023,-0.7664,-0.9186,-1.0535,-1.1458,-1.3014,-1.4698,-1.4698,-1.6194,-1.8106,-1.8106,-1.8817,-1.9747,-2.0035,-2.0532,-2.1071,-2.1337,-2.184,-2.2349,-2.2527,-2.2712,-2.3045,-2.3714,-2.4054,-2.419,-2.419,-2.419,-2.419,-2.419,-2.4746,-2.5264,-2.5542,-2.6948,-2.8039,-2.8067,-2.9063,-2.9763,-2.9588,-2.9785,-2.9927,-2.9927,-2.9918,-2.9931,-2.9931,-3.0222,-3.0398,-3.0398,-3.0398,-3.0398,-3.0398,-3.0398,-3.0398,-3.0398,-3.0398,-3.0398,-3.0398,-3.0398,-3.0698,-3.1256,-3.0674,-3.177,0.0,0.0,0.0,1.9023,2.059,2.1877,2.1877,2.2567,2.3365,2.4118,2.4908,2.5618,2.6336,2.7565,2.8463,2.8511,2.9012,2.9361,2.9361,2.8873,2.8463,2.8463,2.7944,2.6837,2.4907,2.4728,2.366,2.1023,2.0845,2.0547,1.985,1.9097,1.8058,1.6595,1.6539,1.5786,1.4264,1.4264,1.3416,1.1834,1.0933,1.0123,0.9268,0.7502,0.6252,0.5318,0.4411,0.2584,0.0061,-0.2251,-0.3664,-0.4587,-0.6742,-0.8436,-0.9834,-1.124,-1.2966,-1.4652,-1.4652,-1.6139,-1.8066,-1.8106,-1.8817,-1.969,-1.969,-2.0311,-2.0991,-2.0991,-2.1615,-2.231,-2.2338,-2.2773,-2.3392,-2.4054,-2.419,-2.419,-2.4209,-2.4209,-2.4209,-2.4209,-2.4209,-2.4485,-2.5239,-2.6445,-2.732,-2.7401,-2.9121,-3.0253,-2.978,-3.0126,-3.0398,-3.0398,-3.0398,-3.0398,-3.0398,-3.0398,-3.0398,-3.0398,-3.0398,-3.0398,-3.0398,-3.0398,-3.0398,-3.0398,-3.0398,-3.0398,-3.0398,-3.0398,-3.0398,-3.0398,-3.0393,-3.1751,1.3658,0.0,0.0,0.0,0.0,0.0,2.1753,2.2967,2.4002,2.4234,2.4908,2.5618,2.6336,2.7166,2.7902,2.84,2.8654,2.8732,2.8732,2.8222,2.786,2.786,2.771,2.7001,2.5482,2.5349,2.4458,2.232,2.1724,2.1197,2.0547,1.9347,1.8501,1.8112,1.7578,1.6856,1.5843,1.5284,1.4209,1.2634,1.1819,1.0703,0.9274,0.8156,0.7172,0.6252,0.4704,0.3215,0.1837,-0.0591,-0.2683,-0.459,-0.6234,-0.7729,-0.9089,-0.999,-1.1589,-1.3396,-1.381,-1.5239,-1.7011,-1.7854,-1.8574,-1.9207,-1.9566,-2.0311,-2.0991,-2.0991,-2.1757,-2.2704,-2.3177,-2.3606,-2.3976,-2.4151,-2.419,-2.4247,-2.4393,-2.4428,-2.4428,-2.4428,-2.4526,-2.4707,-2.4988,-2.618,-2.7242,-2.7688,-2.9269,-3.0348,-3.0222,-3.0316,-3.0398,-3.0398,-3.0398,-3.0398,-3.0398,-3.0398,-3.0398,-3.0398,-3.0398,-3.0398,-3.0398,-3.0398,-3.0398,-3.0398,-3.0398,-3.0398,-3.0398,-3.0398,-3.0398,-3.0398,-3.0393,-3.1424,1.315,1.4099,1.5013,1.6886,0.0,0.0,2.1089,2.2347,2.3386,2.3708,2.4394,2.5175,2.5906,2.6791,2.7625,2.84,2.8511,2.8606,2.8826,2.8367,2.8008,2.8008,2.776,2.7051,2.5734,2.5615,2.4815,2.2841,2.2346,2.1724,2.0845,2.0016,1.9294,1.8715,1.8274,1.7677,1.6978,1.6213,1.5158,1.393,1.3158,1.1943,1.0332,0.9424,0.8398,0.7177,0.5727,0.44,0.3007,0.0959,-0.1271,-0.3715,-0.581,-0.7261,-0.8403,-0.9732,-1.1299,-1.287,-1.3538,-1.506,-1.6818,-1.7491,-1.8391,-1.9281,-1.9603,-2.0311,-2.0991,-2.0991,-2.1811,-2.2848,-2.3522,-2.3837,-2.4016,-2.417,-2.419,-2.4228,-2.4339,-2.4426,-2.451,-2.4607,-2.4716,-2.4795,-2.479,-2.5919,-2.6711,-2.6393,-2.866,-3.0398,-3.0398,-3.0398,-3.0398,-3.0398,-3.0398,-3.0398,-3.0398,-3.0398,-3.0398,-3.0398,-3.0398,-3.0398,-3.0398,-3.0398,-3.0398,-3.0398,-3.0398,-3.0398,-3.0398,-3.0398,-3.0398,-3.0398,-3.0393,-3.1193,1.2858,1.3448,1.3947,1.5781,1.7073,0.0,1.9901,2.1037,2.2002,2.2823,2.3531,2.4279,2.5119,2.6236,2.7309,2.8143,2.8271,2.8543,2.918,2.8779,2.8415,2.8415,2.7944,2.7081,2.5839,2.5644,2.4845,2.3033,2.2783,2.2175,2.0979,2.0845,2.0219,1.898,1.8874,1.8447,1.7743,1.709,1.627,1.5303,1.465,1.3468,1.1888,1.0933,0.9666,0.821,0.7237,0.5755,0.3886,0.245,0.0294,-0.2339,-0.5257,-0.6832,-0.7712,-0.9813,-1.144,-1.2667,-1.3521,-1.5194,-1.7042,-1.7261,-1.8363,-1.9639,-1.9747,-2.033,-2.1023,-2.1197,-2.1984,-2.2923,-2.3566,-2.3774,-2.3816,-2.4132,-2.419,-2.4209,-2.4266,-2.441,-2.4591,-2.4799,-2.4847,-2.4795,-2.4695,-2.5671,-2.6098,-2.5038,-2.8044,-3.0398,-3.0398,-3.0398,-3.0398,-3.0398,-3.0398,-3.0398,-3.0398,-3.0398,-3.0398,-3.0398,-3.0398,-3.0398,-3.0398,-3.0398,-3.0398,-3.0398,-3.0433,-3.0433,-3.0398,-3.0398,-3.0398,-3.0398,-3.0405,-3.102,1.0852,1.1957,1.275,1.3939,1.6087,0.0,1.8332,1.9695,2.1101,2.1939,2.2249,2.2786,2.4279,2.4711,2.5356,2.6692,2.6916,2.7312,2.8496,2.814,2.776,2.776,2.766,2.726,2.6482,2.5914,2.5239,2.4297,2.3271,2.236,2.1568,2.1077,2.0696,2.0383,1.9888,1.9254,1.8501,1.8328,1.7247,1.5303,1.5139,1.4269,1.2696,1.1176,1.0292,0.9914,0.8398,0.6711,0.4925,0.3922,0.1636,-0.1552,-0.3926,-0.5634,-0.7004,-0.8521,-0.9974,-1.1449,-1.3137,-1.4642,-1.6059,-1.7491,-1.8444,-1.9192,-1.9934,-2.0565,-2.1243,-2.246,-2.293,-2.3277,-2.3917,-2.4094,-2.4113,-2.417,-2.419,-2.4284,-2.4607,-2.4716,-2.4828,-2.5138,-2.5065,-2.4998,-2.5133,-2.5382,-2.6381,-2.8821,-2.989,-3.0398,-3.0398,-3.0398,-3.0398,-3.0398,-3.0398,-3.0398,-3.0398,-3.0398,-3.0398,-3.0398,-3.0398,-3.0398,-3.0398,-3.0398,-3.0398,-3.0398,-3.0662,-3.0662,-3.0398,-3.0398,-3.0398,-3.0398,-3.0398,-3.1064,1.026,1.1143,1.1883,1.3295,1.4775,0.0,0.0,1.8609,1.9619,2.0962,2.1628,2.2237,2.3467,2.4021,2.4681,2.5783,2.596,2.6215,2.6857,2.7327,2.7625,2.7625,2.7625,2.737,2.6662,2.5989,2.5196,2.4193,2.3526,2.286,2.2239,2.1582,2.1113,2.0795,2.0156,1.9631,1.9254,1.8874,1.7927,1.6465,1.6079,1.5109,1.3545,1.2304,1.1301,1.0425,0.918,0.7825,0.6403,0.51,0.3062,0.045,-0.2654,-0.4736,-0.6284,-0.8041,-0.9614,-1.1007,-1.2318,-1.3954,-1.5668,-1.685,-1.7958,-1.9066,-2.0039,-2.0863,-2.1782,-2.2888,-2.3323,-2.3566,-2.4074,-2.419,-2.4228,-2.4339,-2.4339,-2.4426,-2.4731,-2.4855,-2.4956,-2.513,-2.5152,-2.5173,-2.5274,-2.5763,-2.7119,-2.9976,-3.0406,-3.0398,-3.0398,-3.0398,-3.0398,-3.0398,-3.0398,-3.0398,-3.0398,-3.0398,-3.0398,-3.0398,-3.0398,-3.0477,-3.0645,-3.0653,-3.0656,-3.0641,-3.0801,-3.0828,-3.0641,-3.0641,-3.0642,-3.0653,-3.0653,-3.0983,1.0034,1.049,1.1007,1.2938,1.36,1.4291,0.0,0.0,0.0,1.9488,2.0482,2.1358,2.2116,2.3012,2.3794,2.4453,2.4772,2.4939,2.4984,2.6275,2.724,2.7357,2.7509,2.7415,2.6841,2.6264,2.5364,2.3894,2.3919,2.3627,2.2934,2.2239,2.1677,2.1175,2.0534,2.0093,2.0003,1.9399,1.865,1.7786,1.709,1.6016,1.4619,1.3666,1.2427,1.0927,1.0142,0.9133,0.785,0.6271,0.4624,0.2663,-0.1334,-0.3848,-0.5554,-0.7706,-0.94,-1.0695,-1.1657,-1.3606,-1.5731,-1.6308,-1.7691,-1.9325,-2.0162,-2.1225,-2.2245,-2.3003,-2.3464,-2.3821,-2.4172,-2.4284,-2.4357,-2.4528,-2.4561,-2.4607,-2.4799,-2.4911,-2.501,-2.5046,-2.5318,-2.5563,-2.5563,-2.6399,-2.7736,-2.9792,-3.0298,-3.0441,-3.0488,-3.0488,-3.0488,-3.0488,-3.0488,-3.0488,-3.0488,-3.0488,-3.0488,-3.0488,-3.0491,-3.0616,-3.0884,-3.089,-3.0905,-3.0907,-3.0899,-3.0899,-3.0907,-3.0901,-3.0897,-3.0901,-3.0901,-3.1135,0.9145,0.9448,0.997,1.1996,1.3091,1.381,1.4083,0.0,1.5764,1.6656,0.0,1.8645,1.9457,0.0,0.0,2.1451,2.2518,2.3341,2.3588,2.4819,2.5892,2.6563,2.7188,2.7595,2.747,2.7344,2.652,2.4657,2.4991,2.4744,2.3581,2.292,2.2558,2.2512,2.1805,2.1245,2.0696,2.0597,1.9914,1.8555,1.7841,1.7024,1.6197,1.4737,1.3545,1.2687,1.1888,1.0627,0.9012,0.7861,0.6393,0.4386,0.0283,-0.2652,-0.4801,-0.6956,-0.8593,-1.0089,-1.2015,-1.4222,-1.6296,-1.6892,-1.8484,-2.0246,-2.0748,-2.1456,-2.2245,-2.3003,-2.3581,-2.4025,-2.4391,-2.4591,-2.4746,-2.476,-2.476,-2.4799,-2.4949,-2.4998,-2.5046,-2.5224,-2.5918,-2.6467,-2.6535,-2.6881,-2.7612,-2.8884,-2.9921,-3.0634,-3.0826,-3.0827,-3.0827,-3.0827,-3.0827,-3.0827,-3.0827,-3.0827,-3.0827,-3.0827,-3.0839,-3.0856,-3.091,-3.0891,-3.0896,-3.0892,-3.0896,-3.0896,-3.0892,-3.0892,-3.0898,-3.0897,-3.0897,-3.1971,0.8161,0.8846,0.9674,1.1093,1.2137,1.3025,1.36,1.4027,1.4585,1.5536,0.0,0.0,0.0,0.0,0.0,0.0,2.0848,2.1649,2.1753,2.3073,2.4486,2.5728,2.6496,2.7004,2.7036,2.7013,2.6302,2.4717,2.4821,2.4563,2.364,2.3024,2.2694,2.2694,2.2053,2.1424,2.0795,2.0795,2.0067,1.8715,1.8394,1.7852,1.709,1.5563,1.4632,1.4269,1.3036,1.1826,1.0683,0.9623,0.788,0.556,0.2303,-0.067,-0.3356,-0.5112,-0.7158,-0.9379,-1.1022,-1.2979,-1.5136,-1.7083,-1.909,-2.0748,-2.0926,-2.1681,-2.2556,-2.3069,-2.349,-2.3945,-2.4391,-2.4559,-2.4666,-2.4877,-2.4917,-2.4968,-2.5141,-2.5173,-2.5357,-2.5937,-2.6351,-2.6928,-2.7969,-2.8266,-2.856,-2.9106,-3.0037,-3.0687,-3.0762,-3.0842,-3.0897,-3.0897,-3.0897,-3.0897,-3.0897,-3.0897,-3.0897,-3.0897,-3.0903,-3.0891,-3.0891,-3.0907,-3.0898,-3.0898,-3.0898,-3.0898,-3.0898,-3.0898,-3.0902,-3.0898,-3.0898,-3.1934,0.8084,0.8917,0.982,1.0265,1.1168,1.199,1.2418,1.2705,1.3142,1.3852,1.4885,0.0,0.0,0.0,1.8041,1.7922,0.0,1.9803,1.9663,2.1179,2.294,2.4557,2.5769,2.6547,2.6589,2.689,2.6494,2.5001,2.5018,2.4671,2.364,2.3187,2.2934,2.2934,2.2469,2.1946,2.1321,2.1126,2.0458,1.9282,1.8874,1.8436,1.7841,1.6511,1.5706,1.5245,1.41,1.3045,1.2058,1.0873,0.9065,0.6837,0.4315,0.143,-0.1504,-0.36,-0.6079,-0.8573,-0.9941,-1.2195,-1.4823,-1.7451,-1.9353,-2.0698,-2.0926,-2.1678,-2.2574,-2.3052,-2.3548,-2.402,-2.4391,-2.4575,-2.4693,-2.493,-2.5034,-2.5111,-2.5264,-2.5495,-2.5851,-2.6486,-2.6967,-2.7678,-2.8978,-2.9195,-2.9328,-2.9706,-3.029,-3.0709,-3.0748,-3.0837,-3.0898,-3.0898,-3.0898,-3.0898,-3.0898,-3.0898,-3.0898,-3.0898,-3.0898,-3.0898,-3.0898,-3.0898,-3.0898,-3.0898,-3.0898,-3.0898,-3.0898,-3.0898,-3.0898,-3.0898,-3.0898,-3.1797,0.9523,0.9965,1.0565,0.9599,1.0115,1.0565,0.9669,1.019,1.0932,1.0932,1.2478,1.381,1.381,1.4665,1.518,1.4753,1.6551,0.0,0.0,1.9265,2.1255,2.288,2.5093,2.6496,2.6481,2.7685,2.7639,2.5721,2.6122,2.5613,2.3713,2.3595,2.3551,2.3551,2.3551,2.3231,2.2649,2.2007,2.1342,2.0696,1.9334,1.8715,1.8661,1.7895,1.6701,1.5303,1.5245,1.4387,1.2818,1.1169,0.9854,0.8653,0.6065,0.3458,0.0752,-0.3016,-0.5735,-0.775,-0.9226,-1.2596,-1.6507,-1.8285,-1.9281,-1.9909,-2.0731,-2.145,-2.2092,-2.2968,-2.3826,-2.4478,-2.4495,-2.4752,-2.4998,-2.501,-2.5152,-2.5284,-2.5303,-2.5967,-2.6563,-2.6601,-2.7909,-2.9074,-2.919,-2.9205,-2.9536,-3.0505,-3.0683,-3.0741,-3.0878,-3.0898,-3.0898,-3.0898,-3.0898,-3.0898,-3.0898,-3.0898,-3.0898,-3.0898,-3.0898,-3.0898,-3.0898,-3.0898,-3.0898,-3.0898,-3.0898,-3.0898,-3.0898,-3.0898,-3.0898,-3.0898,-3.0898,-3.1797,0.9372,1.0045,1.0565,0.9523,1.0045,1.0565,0.9518,0.9593,0.982,0.982,1.034,1.0783,1.0783,1.1563,1.239,1.2892,1.4143,1.5233,0.0,1.7591,1.9456,2.1105,2.3495,2.5453,2.6404,2.6916,2.692,2.6318,2.6027,2.5425,2.4328,2.3849,2.3595,2.3595,2.3595,2.3334,2.2694,2.2053,2.139,2.0795,1.9888,1.9423,1.9423,1.8661,1.7775,1.6813,1.6813,1.5678,1.3726,1.3107,1.1669,0.9599,0.7059,0.4787,0.2542,-0.095,-0.3575,-0.6037,-1.0055,-1.3868,-1.7098,-1.8454,-1.9636,-2.0665,-2.1179,-2.1848,-2.2583,-2.3328,-2.3738,-2.4059,-2.4408,-2.4682,-2.4891,-2.4986,-2.5152,-2.5457,-2.6043,-2.639,-2.6948,-2.8102,-2.8786,-2.9363,-2.9967,-3.01,-3.024,-3.0579,-3.0664,-3.0723,-3.0762,-3.0859,-3.0898,-3.0898,-3.0898,-3.0898,-3.0898,-3.0898,-3.0898,-3.0898,-3.0898,-3.0898,-3.0898,-3.0898,-3.0898,-3.0898,-3.0898,-3.0898,-3.0898,-3.0898,-3.0898,-3.0898,-3.0898,-3.1797,0.9895,1.0565,1.1019,0.9674,1.0045,1.0409,0.9064,0.9069,0.9296,0.9296,0.9296,0.9523,1.0276,1.0248,1.0525,1.1575,1.2503,1.3584,0.0,1.6729,1.8455,1.9824,2.2274,2.4355,2.5618,2.6176,2.6393,2.6208,2.583,2.533,2.4627,2.3969,2.3595,2.3595,2.3595,2.3421,2.3009,2.2392,2.1866,2.1465,2.0597,2.0156,2.0156,1.9411,1.8715,1.8015,1.8015,1.689,1.4963,1.4662,1.3237,1.0941,0.8454,0.6354,0.4274,0.04,-0.2952,-0.6226,-1.0916,-1.4272,-1.6703,-1.7905,-1.9396,-2.0813,-2.121,-2.195,-2.277,-2.3351,-2.3759,-2.406,-2.4408,-2.4682,-2.4891,-2.4986,-2.5382,-2.5928,-2.6486,-2.7082,-2.7852,-2.8978,-2.9457,-2.9892,-3.0443,-3.0574,-3.0602,-3.0602,-3.0649,-3.0726,-3.0761,-3.0859,-3.0898,-3.0898,-3.0898,-3.0898,-3.0898,-3.0898,-3.0898,-3.0898,-3.0898,-3.0898,-3.0898,-3.0898,-3.1172,-3.1777,-3.1191,-3.1094,-3.1504,-3.1094,-3.0898,-3.0918,-3.1211,-3.209]}]]